     2              OBSERVATION DATA    GPS                 RINEX VERSION / TYPE
teqc 1997Jun30 19970702                                     PGM / RUN BY / DATE
                                                            COMMENT
Original Marker Name: HMCP                                  COMMENT
Campaign Name: HMC San Gabriel Valley 1993-1996             COMMENT
4-Character Station Name: HMCP                              COMMENT
6-Character Antenna Code: DMRCHT                            COMMENT
Vertical Measurement Point: BPA                             COMMENT
Vertical Offset to Rinex Ref. Point: 0.0000                 COMMENT
Radial Measurement Point: RRP                               COMMENT
Radial Offset to Rinex Ref. Point: 0.0000                   COMMENT
Antenna Height from Field Measurement: 0.0000 m             COMMENT
Additional Antenna Identification Info.:                    COMMENT
Turborogue and Ashtech Choke Ring                           COMMENT
Original XYZ: -2458607.8934 -4680468.7132 3556436.6467      COMMENT
New XYZ position is based on association with SCEC monument COMMENT
E1D0R2C7+0011. Position of that monument is believed to be  COMMENT
valid to within 1 m horizontally; vertical accuracy         COMMENT
should be no worse than 3-times this value.                 COMMENT
                                                            COMMENT
Revised Rinex header created by UCSD GPS archive for        COMMENT
GSAC on 13-Apr-1999 (1999:103) 17:25:08 GMT                 COMMENT
For assistance contact dagnew@ucsd.edu or hjohnson@ucsd.edu COMMENT
                                                            COMMENT
HMC PHYSICS                                                 MARKER NAME
GAL HARVEY MUDD COLLEGE                                     OBSERVER / AGENCY
262 TURBOROGUE SNR-8000 95.03.08                            REC # / TYPE / VERS
260 DORNE-MARGOL. TYPE T                                    ANT # / TYPE
 -2458598.0000 -4680494.0000  3556451.0000                  APPROX POSITION XYZ
        0.0000        0.0000        0.0000                  ANTENNA: DELTA H/E/N
     1     1     0                                          WAVELENGTH FACT L1/2
     5    L1    L2    C1    P2    P1                        # / TYPES OF OBSERV
     0                                                      INTERVAL
  1996     3    23     0     0    0.000000                  TIME OF FIRST OBS
  1996     3    23    23    59   30.000000                  TIME OF LAST OBS
     0                                                      # OF SATELLITES
                                                            END OF HEADER
 96  3 23  0  0  0.0000000  0  7G 5G12G20G 9G 4G24G 7
 -15766684.90444 -12285717.30044  22090614.9234   22090614.9674
  -2106514.241 4  -1641439.114 4  24296831.256    24296827.964
  -3188904.86544  -2484858.23044  24604560.6354   24604557.6794
 -19423886.67944 -15135489.38144  21211341.3254   21211340.7684
 -16853829.88544 -13132838.52244  20763321.0454   20763320.5334
 -18961837.61644 -14775439.69444  20724369.6254   20724370.1214
 -10390151.10944  -8096202.60144  22746461.7414   22746462.3594
 96  3 23  0  0 30.0000000  0  7G 5G12G20G 9G 7G 4G24
 -15842450.25244 -12344755.21544  22076196.8834   22076196.9854
  -2002199.144 4  -1560154.701 4  24316681.980    24316678.469
  -3285867.08944  -2560413.14344  24586109.9784   24586109.5284
 -19394073.78644 -15112258.57244  21217013.9214   21217014.0414
 -10323306.63844  -8044116.02544  22759182.1754   22759182.3134
 -16820071.24444 -13106533.08944  20769745.3864   20769744.6924
 -19005112.34844 -14809160.25244  20716134.8514   20716135.1734
 96  3 23  0  1  0.0000000  0  7G 5G12G20G 9G 4G24G 7
 -15918157.75044 -12403748.05544  22061789.8754   22061790.1924
  -1897823.072 4  -1478822.775 4  24336544.185    24336540.690
  -3382955.69944  -2636066.48344  24567634.2654   24567636.0374
 -19363854.84644 -15088711.36244  21222764.4494   21222764.5104
 -16785865.08144 -13079878.93944  20776254.5064   20776253.7624
 -19047979.86644 -14842563.50044  20707977.4574   20707977.8084
 -10256526.26044  -7992079.40544  22771890.0584   22771891.2104
 96  3 23  0  1 30.0000000  0  7G 5G12G20G 9G 7G 4G24
 -15993751.56544 -12462652.31644  22047405.2414   22047405.4894
  -1793310.704 4  -1397384.642 4  24356432.318    24356428.731
  -3480111.56144  -2711772.27444  24549147.0494   24549145.0104
 -19333163.45644 -15064796.00544  21228604.9724   21228605.0694
 -10189720.31044  -7940022.85444  22784602.7644   22784603.2674
 -16751135.39644 -13052816.85044  20782863.4234   20782862.6494
 -19090378.95344 -14875601.73444  20699908.9544   20699909.5014
 96  3 23  0  2  0.0000000  0  7G 5G12G20G 9G 4G24G 7
 -16069230.23644 -12521466.84444  22033042.1914   22033042.8884
  -1688649.149 4  -1315830.259 4  24376348.771    24376345.324
  -3577313.51444  -2787513.98544  24530649.6844   24530649.4854
 -19301980.06844 -15040497.28044  21234538.9214   21234538.6884
 -16715880.18044 -13025345.25844  20789572.0464   20789571.4354
 -19132293.19044 -14908262.16444  20691933.1524   20691933.4984
 -10122867.13644  -7887929.49144  22797324.4804   22797325.2954
 96  3 23  0  2 30.0000000  0  7G 5G12G20G 9G 7G 4G24
 -16144600.34744 -12580196.78244  22018699.5574   22018699.8074
  -1583829.903 4  -1234153.004 4  24396295.269    24396291.929
  -3674554.60544  -2863286.20144  24512144.8614   24512144.4354
 -19270280.26644 -15015796.14344  21240571.3644   21240571.2774
 -10055952.65144  -7835788.36144  22810057.8524   22810058.0184
 -16680084.62244 -12997452.62644  20796383.7984   20796383.0104
 -19173700.08944 -14940527.26444  20684053.6144   20684054.0344
 96  3 23  0  3  0.0000000  0  7G 5G 9G12G20G 4G24G 7
 -16219834.03344 -12638820.41544  22004382.8194   22004383.0334
 -19238026.93544 -14990663.68744  21246708.8704   21246708.6334
  -1478835.933 4  -1152339.607 4  24416274.732    24416271.543
  -3771808.46844  -2939068.38644  24493637.0574   24493640.2594
 -16643737.90244 -12969130.51144  20803300.4984   20803299.5554
 -19214562.70544 -14972368.24944  20676277.6134   20676277.9724
  -9988965.68844  -7783590.75844  22822805.1214   22822806.4854
 96  3 23  0  3 30.0000000  0  7G 5G 9G12G20G 7G 4G24
 -16294947.23244 -12697350.17444  21990089.3134   21990089.4574
 -19205250.84244 -14965123.88544  21252945.9444   21252945.6554
  -1373706.046 4  -1070420.294 4  24436280.459    24436277.154
  -3869088.11644  -3014870.65444  24475126.0134   24475125.5524
  -9921944.33344  -7731366.34144  22835558.8904   22835558.3874
 -16606880.51744 -12940410.47344  20810314.2274   20810313.3254
 -19254900.67044 -15003800.41544  20668601.6344   20668602.0144
 96  3 23  0  4  0.0000000  0  7G 5G 9G12G20G 4G24G 7
 -16369945.82144 -12755790.61844  21975817.3124   21975817.6214
 -19171967.15244 -14939188.55344  21259279.8504   21259279.5464
  -1268463.960 4   -988413.565 4  24456307.295    24456304.272
  -3966400.17644  -3090698.08644  24456604.8554   24456607.9434
 -16569527.87144 -12911304.51944  20817422.1314   20817421.4584
 -19294731.66144 -15034837.53744  20661021.9204   20661022.3694
  -9854913.33044  -7679134.41644  22848314.7434   22848315.8294
 96  3 23  0  4 30.0000000  0  7G 5G 9G12G20G 7G 4G24
 -16444834.19244 -12814145.17244  21961567.2134   21961566.9964
 -19138195.02044 -14912872.61844  21265706.5714   21265706.5064
  -1163131.113 4   -906336.115 4  24476351.925    24476348.511
  -4063771.90844  -3166572.08044  24438077.4974   24438078.0744
  -9787894.48744  -7626911.94644  22861067.7944   22861068.7714
 -16531706.28544 -12881833.15644  20824619.2774   20824618.4524
 -19334087.52144 -15065504.42644  20653532.8454   20653533.2624
 96  3 23  0  5  0.0000000  0  7G 5G12G20G 4G24G 9G 7
 -16519595.35444 -12872400.60244  21947340.9594   21947340.8864
  -1057707.974 4   -824188.316 4  24496413.187    24496409.673
  -4161191.48844  -3242483.43244  24419536.2614
 -16493436.18844 -12852012.30544  20831901.8304   20831901.1614
 -19372976.64844 -15095807.62844  20646132.4594   20646132.9684
 -19103943.54544 -14886183.17144  21272223.7654   21272223.8914
  -9720892.32844  -7574702.50144  22873817.8004   22873818.3424
 96  3 23  0  5 30.0000000  0  6G 5G12G 9G 7G 4G24
 -16594199.81744 -12930533.93644  21933143.6614   21933143.8244
   -952152.675 4   -741937.536 4  24516499.942    24516496.253
 -19069185.00044 -14859098.60644  21278838.4914   21278838.5084
  -9653854.49944  -7522465.25944  22886575.3334   22886576.9864
 -16454670.82444 -12821805.52444  20839278.8344   20839277.8284
 -19411369.75544 -15125724.32044  20638826.4244   20638826.9014
 96  3 23  0  6  0.0000000  0  7G 5G12G20G 4G24G 9G 7
 -16668617.57644 -12988521.79444  21918982.2844   21918982.5864
   -846432.000 4   -659557.908 4  24536618.028    24536614.652
        -1.11054        -0.25154  24382456.4844   24382461.2484
 -16415381.72344 -12791190.64644  20846755.1734   20846754.6904
 -19449243.08344 -15155235.99244  20631619.1664   20631619.7404
 -19033886.45644 -14831593.25944  21285555.7734   21285555.4474
  -9586754.56344  -7470179.62344  22899343.0234   22899345.2624
 96  3 23  0  6 30.0000000  0  7G 5G12G20G 9G 4G24G 7
 -16742906.96644 -13046409.62144  21904845.0154   21904845.1434
   -740603.495 4   -577094.253 4  24556756.788    24556753.094
    -97485.18444    -75961.81744  24363906.7544   24363909.9204
 -18998101.01844 -14803708.51144  21292365.2684   21292365.1704
 -16375630.37844 -12760215.57144  20854319.6584   20854318.9104
 -19486644.72144 -15184380.11144  20624502.0414   20624502.5004
  -9519657.32644  -7417896.07444  22912112.0924   22912113.1774
 96  3 23  0  7  0.0000000  0  7G 5G12G 4G20G24G 9G 7
 -16817097.58344 -13104220.47444  21890727.5284   21890727.0934
   -634697.913 4   -494570.544 4  24576909.835    24576906.145
 -16335442.95644 -12728900.69944  20861966.9604   20861966.2554
   -195048.45344   -151985.10244  24345341.3774   24345343.4004
 -19523592.91644 -15213170.90144  20617471.0474   20617471.4274
 -18961854.33844 -14775464.35844  21299262.9294   21299262.9124
  -9452597.60144  -7365641.77744  22924872.8314   22924873.8594
 96  3 23  0  7 30.0000000  0  7G 5G12G20G 9G 4G24G 7
 -16891131.13744 -13161908.94044  21876639.5214   21876639.4584
   -528661.372 4   -411944.788 4  24597088.127    24597084.657
   -292643.04644   -228032.83044  24326771.2594   24326773.4424
 -18925080.17444 -14746809.17044  21306260.9384   21306260.6294
 -16294760.77644 -12697200.30444  20869708.1764   20869707.7014
 -19560023.45544 -15241558.32044  20610538.5024   20610538.8674
  -9385512.61144  -7313367.78844  22937638.9854   22937639.4694
 96  3 23  0  8  0.0000000  0  7G 5G12G20G 4G24G 9G 7
 -16964954.63844 -13219433.73144  21862591.3844   21862591.0374
   -422465.954 4   -329195.236 4  24617296.521    24617292.866
   -390233.07344   -304076.98744  24308200.2774   24308201.6384
 -16253555.58344 -12665092.36744  20877549.4794   20877548.6674
 -19595895.31544 -15269510.40744  20603712.3504   20603712.5284
 -18887753.00444 -14717723.07344  21313364.3354   21313364.2754
  -9318384.81344  -7261060.43444  22950412.7794   22950412.8424
 96  3 23  0  8 30.0000000  0  7G 5G12G20G 9G 4G24G 7
 -17038556.04144 -13276785.46544  21848585.1364   21848585.3274
   -316113.305 4   -246323.160 4  24637534.980    24637531.330
   -487802.71744   -380105.21544  24289633.5424   24289634.2474
 -18849881.22644 -14688212.60844  21320570.6544   21320570.7044
 -16211819.27644 -12632570.57444  20885491.6334   20885490.8014
 -19631196.42744 -15297017.75844  20596994.8184   20596995.2344
  -9251207.84744  -7208714.76244  22963196.0254   22963197.5934
 96  3 23  0  9  0.0000000  0  7G12G 5G20G 4G24G 9G 7
   -209609.382 4   -163333.213 4  24657801.897    24657798.402
 -17111935.57344 -13333964.31444  21834621.5054   21834621.6994
   -585345.24744   -456112.33344  24271071.7854   24271072.2144
 -16169558.90644 -12599640.42244  20893533.4924   20893532.6164
 -19665935.07644 -15324086.82644  20590384.0104   20590384.4424
 -18811483.72644 -14658292.49544  21327877.3784   21327877.3954
  -9183979.26744  -7156328.87644  22975989.4334   22975989.5914
 96  3 23  0  9 30.0000000  0  7G12G 5G20G 9G 4G24G 7
   -102952.975 4    -80224.446 4  24678098.504    24678094.476
 -17185094.19644 -13390971.02644  21820699.8214   21820700.1504
   -682853.74144   -532092.93044  24252516.4444   24252516.3644
 -18772560.04744 -14627962.36744  21335284.6204   21335284.3844
 -16126767.89744 -12566296.78444  20901676.3904   20901675.4624
 -19700099.27744 -15350708.26944  20583882.8364   20583883.2184
  -9116695.06544  -7103899.65344  22988792.7564   22988792.6194
 96  3 23  0 10  0.0000000  0  7G12G 5G20G 4G24G 9G 7
      3861.667 4      3007.619 4  24698424.483    24698420.958
 -17258028.71744 -13447803.10744  21806821.1294   21806821.4444
   -780312.03344   -608034.41944  24233970.7734   24233970.5314
 -16083414.84344 -12532515.19044  20909926.2364   20909925.3284
 -19733682.95744 -15376877.36144  20577492.1664   20577492.6074
 -18733101.10644 -14597215.15144  21342793.2384   21342793.0044
  -9049359.56344  -7051430.46744  23001606.0904   23001605.7954
 96  3 23  0 10 30.0000000  0  7G12G 5G20G 4G24G 9G 7
    110813.060 4     86346.253 4  24718777.166    24718772.928
 -17330772.58444 -13504486.63444  21792978.0714   21792977.8024
   -877737.06744   -683949.95944  24215430.1214   24215431.0324
 -16039516.02444 -12498308.32544  20918279.7764   20918278.7954
 -19766716.52544 -15402617.79544  20571205.9144   20571206.3234
 -18693116.34744 -14566058.21044  21350402.1154   21350401.8674
  -8981981.36944  -6998928.01144  23014427.7004   23014428.3414
 96  3 23  0 11  0.0000000  0  7G12G 5G20G 4G24G 9G 7
    217896.946 4    169788.131 4  24739154.258    24739150.321
 -17403345.53444 -13561036.97044  21779168.0144   21779168.0694
   -975141.06844   -759849.13644  24196893.4344   24196897.0774
 -15995080.12844 -12463682.95744  20926735.9274   20926734.8664
 -19799212.79744 -15427939.55344  20565022.3274   20565022.6524
 -18652603.12744 -14534489.48144  21358111.5494   21358111.6904
  -8914561.81344  -6946393.30944  23027257.6364   23027257.7934
 96  3 23  0 11 30.0000000  0  7G12G 5G20G 9G 4G24G 7
    325111.108 4    253331.517 4  24759556.808    24759553.030
 -17475750.46144 -13617456.38944  21765389.8594   21765389.5334
  -1072537.35544   -835742.29944  24178358.7824   24178362.6944
 -18611559.94344 -14502507.79344  21365921.7634   21365921.8494
 -15950107.21744 -12428639.13944  20935293.7314   20935292.8664
 -19831173.65044 -15452844.10444  20558940.0784   20558940.5014
  -8847100.05244  -6893825.71844  23040095.3154   23040095.4054
 96  3 23  0 12  0.0000000  0  7G12G 5G 4G20G24G 9G 7
    432425.852 4    336953.272 4  24779978.051    24779974.087
 -17548010.93344 -13673763.23944  21751638.9294   21751638.6494
 -15904642.17744 -12393211.84444  20943945.5374   20943944.6624
  -1169955.61144   -911652.59844  24159822.3624   24159827.4414
 -19862639.15144 -15477362.66644  20552952.4554   20552952.7674
 -18570028.41644 -14470145.57944  21373825.1594   21373825.0884
  -8779622.01844  -6841245.45744  23052936.0174   23052937.3334
 96  3 23  0 12 30.0000000  0  7G12G 5G20G 4G24G 9G 7
    539827.855 4    420643.002 4  24800416.081    24800411.888
 -17620133.15744 -13729962.36844  21737914.5284   21737914.2224
  -1267406.81044   -987588.51744  24141277.6674   24141281.8834
 -15858734.44344 -12357439.59044  20952681.4464   20952680.9054
 -19893612.51344 -15501497.74344  20547058.6894   20547058.9934
 -18528027.72744 -14437417.78244  21381817.4304   21381817.1294
  -8712123.46344  -6788649.23544  23065780.5044   23065783.3594
 96  3 23  0 13  0.0000000  0  7G12G 5G 4G20G24G 9G 7
    647315.575 4    504399.525 4  24820870.435    24820866.241
 -17692104.90644 -13786044.24644  21724218.8794   21724218.5114
 -15812400.24644 -12321335.03144  20961498.6414   20961497.8714
  -1364889.70444  -1063549.13544  24122728.5714   24122730.2634
 -19924084.65544 -15525242.25644  20541260.0364   20541260.3754
 -18485554.80944 -14404322.01644  21389899.7944   21389899.7244
  -8644608.86444  -6736040.48844  23078628.0914   23078628.9984
 96  3 23  0 13 30.0000000  0  7G12G 5G20G 4G24G 9G 7
    754896.297 4    588228.501 4  24841342.634    24841338.222
 -17763893.48844 -13841983.39444  21710558.2874   21710557.9834
  -1462377.85344  -1139513.87444  24104175.8824   24104177.6904
 -15765641.72844 -12284899.82644  20970396.3804   20970395.5924
 -19954032.83644 -15548578.49044  20535560.9634   20535561.4244
 -18442600.19444 -14370850.89944  21398073.8774   21398073.4354
  -8577069.87344  -6683412.74544  23091480.1224   23091481.2434
 96  3 23  0 14  0.0000000  0  7G12G 5G 4G20G24G 9G 7
    862577.861 4    672136.055 4  24861833.752    24861829.422
 -17835478.81744 -13897764.14944  21696935.6474   21696935.5494
 -15718448.02344 -12248125.51944  20979377.2524   20979376.6544
  -1559840.64644  -1215458.87844  24085631.3694   24085632.8134
 -19983438.21844 -15571491.76344  20529965.5954   20529966.0484
 -18399146.11244 -14336990.58844  21406343.0834   21406342.7484
  -8509493.16044  -6630755.58644  23104339.7224   23104339.4914
 96  3 23  0 14 30.0000000  0  7G 4G12G 5G20G24G 9G 7
 -15670790.31544 -12210989.65044  20988446.4024   20988445.1804
    970362.694 4    756124.083 4  24882344.700    24882340.560
 -17906843.76844 -13953373.18844  21683355.5794   21683355.6144
  -1657265.76344  -1291374.52844  24067091.8134   24067093.6444
 -20012297.01144 -15593979.12244  20524473.4644   20524473.9154
 -18355176.71744 -14302728.73544  21414710.0704   21414710.1474
  -8441866.35744  -6578059.36344  23117208.8574   23117208.7574
 96  3 23  0 15  0.0000000  0  7G 4G12G 5G20G24G 9G 7
 -15622655.83744 -12173482.27144  20997605.8044   20997605.1764
   1078236.269 4    840181.255 4  24902872.678    24902868.355
 -17977996.92444 -14008817.20744  21669815.6974   21669815.0814
  -1754665.48944  -1367270.37544  24048556.8444   24048557.7814
 -20040634.56044 -15616060.31644  20519081.2844   20519081.4904
 -18310707.33644 -14268077.28144  21423171.9244   21423171.8544
  -8374212.74244  -6525342.29344  23130084.0144   23130083.5664
 96  3 23  0 15 30.0000000  0  7G 4G12G 5G20G24G 9G 7
 -15574010.66644 -12135576.94844  21006862.7684   21006862.1414
   1186221.072 4    924325.093 4  24923421.481    24923417.421
 -18048923.18744 -14064084.42544  21656318.9084   21656318.6604
  -1852014.48444  -1443126.69544  24030031.7774   24030033.3964
 -20068429.17744 -15637718.44844  20513791.8654   20513792.3804
 -18265724.33944 -14233025.61144  21431732.1414   21431732.3714
  -8306500.47344  -6472579.53044  23142968.0684   23142968.6844
 96  3 23  0 16  0.0000000  0  7G 4G12G 5G20G24G 9G 7
 -15524854.31944 -12097273.30544  21016216.9074   21016216.4154
   1294307.548 4   1008548.162 4  24943989.831    24943985.783
 -18119644.35244 -14119191.80144  21642860.7864   21642860.9584
  -1949338.47344  -1518963.49144  24011510.1204   24011514.8804
 -20095701.71944 -15658969.76744  20508602.1114   20508602.4534
 -18220242.12044 -14197584.93544  21440387.4694   21440387.1084
  -8238740.83444  -6419779.85444  23155862.3764   23155863.6414
 96  3 23  0 16 30.0000000  0  7G 4G12G 5G20G24G 9G 7
 -15475191.94844 -12058575.35944  21025667.2634   21025666.6824
   1402493.451 4   1092848.701 4  24964576.982    24964572.756
 -18190164.70344 -14174142.71444  21629441.2244   21629440.8644
  -2046648.48644  -1594789.44244  23992991.9454   23992993.9284
 -20122460.31044 -15679820.60844  20503510.1284   20503510.4674
 -18174273.56944 -14161765.30144  21449134.6504   21449134.9444
  -8170940.93144  -6366948.76944  23168764.6284   23168766.1274
 96  3 23  0 17  0.0000000  0  7G 4G12G 5G20G24G 9G 7
 -15425058.96844 -12019510.69644  21035206.8944   21035206.3574
   1510767.726 4   1177218.095 4  24985181.176    24985176.993
 -18260512.49644 -14228959.16544  21616054.4674   21616054.0434
  -2143962.79144  -1670618.72644  23974474.2134   23974478.4734
 -20148705.54844 -15700271.43144  20498515.7604   20498516.2224
 -18127842.14244 -14125584.98944  21457970.2474   21457970.1144
  -8103122.86644  -6314103.55644  23181668.7554   23181669.3504
 96  3 23  0 17 30.0000000  0  7G 4G12G 5G20G24G 9G 7
 -15374478.99144 -11980097.73244  21044832.4024   21044831.5174
   1619114.505 4   1261643.991 4  25005798.982    25005794.740
 -18330694.15344 -14283646.16044  21602699.4324   21602699.1584
  -2241293.12344  -1746460.49144  23955952.2424   23955960.4334
 -20174440.49544 -15720324.62944  20493618.7744   20493619.0194
 -18080963.86144 -14089056.47544  21466890.9684   21466890.8624
  -8035298.60944  -6261253.52244  23194576.2604   23194576.8224
 96  3 23  0 18  0.0000000  0  7G 4G12G 5G20G24G 9G 7
 -15323404.96844 -11940299.78944  21054551.2644   21054550.6434
   1727571.456 4   1346155.724 4  25026437.933    25026433.732
 -18400659.03144 -14338164.23244  21589385.6344   21589385.9234
  -2338590.12444  -1822276.37244  23937437.5024   23937440.7104
 -20199625.40344 -15739949.22444  20488826.1994   20488826.3944
 -18033603.26244 -14052152.13144  21475903.2714   21475902.9734
  -7967435.71244  -6208373.39244  23207490.3644   23207491.6594
 96  3 23  0 18 30.0000000  0  6G12G 5G20G24G 9G 7
   1836134.283 4   1430749.966 4  25047096.791    25047092.520
 -18470402.97944 -14392510.15944  21576114.0454   21576113.5304
  -2435840.88344  -1898056.13244  23918932.4194   23918933.8444
 -20224253.96544 -15759140.30344  20484139.8774   20484139.9574
 -17985763.11844 -14014874.10744  21485007.4014   21485006.9234
  -7899526.98544  -6155457.53944  23220412.6044   23220413.1614
 96  3 23  0 19  0.0000000  0  6G12G 5G20G24G 9G 7
   1944798.933 4   1515423.540 4  25067775.173    25067770.939
 -18539919.35744 -14446678.74844  21562885.1994   21562885.2734
  -2533046.16344  -1973800.47544  23900433.8584   23900436.0804
 -20248325.82944 -15777897.59444  20479558.7674   20479559.1364
 -17937432.76144 -13977214.10344  21494204.2844   21494204.3444
  -7831564.48344  -6102499.74044  23233345.0154   23233345.9764
 96  3 23  0 19 30.0000000  0  6G12G 5G20G24G 9G 7
   2053556.556 4   1600169.549 4  25088471.626    25088467.085
 -18609199.71244 -14500663.41944  21549701.6054   21549701.2044
  -2630199.19344  -2049504.06644  23881946.9484   23881947.8014
 -20271845.21444 -15796224.38144  20475083.1734   20475083.5354
 -17888609.37244 -13939169.92744  21503494.8594   21503494.8344
  -7763537.68144  -6049491.88844  23246290.3464   23246289.8164
 96  3 23  0 20  0.0000000  0  6G12G 5G20G24G 9G 7
   2162366.763 4   1684956.539 4  25109177.326    25109173.122
 -18678291.06244 -14554500.81944  21536553.9314   21536554.1554
  -2727335.26244  -2125194.47744  23863462.6854   23863463.2354
 -20294855.85444 -15814154.74344  20470704.4244   20470704.7374
 -17839328.36644 -13900769.16244  21512872.9524   21512873.0354
  -7695485.11244  -5996463.93044  23259240.8014   23259243.7224
 96  3 23  0 20 30.0000000  0  6G12G 5G20G24G 9G 7
   2271228.773 4   1769783.903 4  25129893.406    25129889.105
 -18747195.78344 -14608192.79144  21523441.6054   21523441.6474
  -2824467.78544  -2200882.11144  23844978.1824   23844980.7514
 -20317350.59444 -15831683.10444  20466423.9034   20466424.1234
 -17789580.56444 -13862004.65944  21522339.7464   21522339.4374
  -7627408.51544  -5943417.26544  23272195.0364   23272195.3274
 96  3 23  0 21  0.0000000  0  7G 6G12G 5G20G24G 9G 7
        -0.01354                  25432600.9194
   2380162.668 4   1854667.260 4  25150623.157    25150618.506
 -18815879.39544 -14661712.48044  21510371.8714   21510371.3784
  -2921572.40844  -2276547.98144  23826499.7574   23826500.7604
 -20339304.00844 -15848789.65544  20462246.1824   20462246.3314
 -17739350.40944 -13822864.29844  21531898.2024   21531898.4554
  -7559303.74244  -5890348.64744  23285155.4864   23285156.3974
 96  3 23  0 21 30.0000000  0  7G 6G12G 5G20G24G 9G 7
    -73744.11144                  25418567.5734
   2489159.286 4   1939599.489 4  25171364.414    25171359.999
 -18884341.26344 -14715059.37844  21497343.9654   21497344.0924
  -3018639.39144  -2352184.54444  23808028.0784   23808032.2284
 -20360723.13944 -15865479.88244  20458170.1194   20458170.2844
 -17688664.72444 -13783368.97744  21541543.1534   21541543.2764
  -7491194.45044  -5837276.49244  23298116.1024   23298116.8864
 96  3 23  0 22  0.0000000  0  6G12G 5G20G24G 9G 7
   2598194.609 4   2024561.879 4  25192113.555    25192108.673
 -18952591.98344 -14768241.73644  21484355.8684   21484355.6404
  -3115699.44244  -2427815.72944  23789558.6584   23789560.7854
 -20381640.01144 -15881778.73644  20454189.9424   20454190.1984
 -17637562.66244 -13743549.20744  21551267.4674   21551267.2974
  -7423116.83944  -5784229.03944  23311070.0414   23311070.2824
 96  3 23  0 22 30.0000000  0  6G12G 5G20G24G 9G 7
   2707278.725 4   2109562.283 4  25212871.630    25212866.977
 -19020599.00744 -14821234.21844  21471415.1024   21471414.9404
  -3212735.71544  -2503428.37744  23771093.7354   23771095.9004
 -20402043.38544 -15897677.46444  20450307.1224   20450307.2774
 -17586044.90444 -13703405.51344  21561071.2534   21561070.8734
  -7355060.19044  -5731197.93244  23324021.1854   23324022.9954
 96  3 23  0 23  0.0000000  0  6G 5G12G20G24G 9G 7
 -19088333.41144 -14874014.26044  21458525.3274   21458524.9804
   2816425.306 4   2194611.347 4  25233641.735    25233637.126
  -3309705.96744  -2578989.57444  23752641.0594   23752642.9744
 -20421926.44844 -15913170.75444  20446523.2884   20446523.7044
 -17534101.08644 -13662929.82744  21570955.6254   21570955.5914
  -7287003.48744  -5678166.77344  23336972.3194   23336974.5524
 96  3 23  0 23 30.0000000  0  6G 5G12G20G24G 9G 7
 -19155784.17844 -14926573.29344  21445689.8164   21445689.6884
   2925651.784 4   2279722.658 4  25254427.460    25254422.229
  -3406594.06244  -2654486.73844  23734204.8604   23734206.1974
 -20441273.13444 -15928246.08744  20442841.8494   20442842.1584
 -17481709.83744 -13622105.49644  21580925.1774   21580925.4384
  -7218911.84644  -5625108.37444  23349930.0234   23349931.7624
 96  3 23  0 24  0.0000000  0  6G 5G12G20G24G 9G 7
 -19222963.91644 -14978921.13844  21432906.3504   21432906.0324
   3034961.646 4   2364898.942 4  25275228.376    25275223.479
  -3503409.26844  -2729927.11444  23715780.3904   23715780.2254
 -20460079.57244 -15942900.45044  20439263.1714   20439263.4694
 -17428838.82044 -13580907.32444  21590986.3264   21590986.4454
  -7150779.84844  -5572018.54544  23362895.2704   23362895.7584
 96  3 23  0 24 30.0000000  0  6G 5G12G20G24G 9G 7
 -19289881.80444 -15031064.94344  21420171.9934   21420171.7904
   3144353.913 4   2450139.434 4  25296045.243    25296040.101
  -3600144.30944  -2805305.01344  23697373.2774   23697373.8214
 -20478340.47144 -15957129.72044  20435788.1854   20435788.5624
 -17375462.24144 -13539315.20644  21601143.8534   21601143.8344
  -7082605.26044  -5518895.52944  23375868.3074   23375869.0064
 96  3 23  0 25  0.0000000  0  6G 5G12G20G24G 9G 7
 -19356560.68844 -15083022.51644  21407483.6834   21407483.3694
   3253820.421 4   2535437.788 4  25316876.398    25316871.149
  -3696818.99144  -2880635.90444  23678975.7934   23678976.3884
 -20496054.03244 -15970932.48944  20432417.5124   20432417.8724
 -17321571.75244 -13497322.63744  21611398.7444   21611398.4414
  -7014390.96944  -5465741.56844  23388849.1604   23388849.6674
 96  3 23  0 25 30.0000000  0  6G 5G12G20G24G 9G 7
 -19423011.68644 -15134802.51444  21394838.5254   21394838.0914
   3363358.083 4   2620791.579 4  25337720.915    25337715.562
  -3793459.66544  -2955940.28644  23660584.7864   23660584.4284
 -20513222.87244 -15984310.80144  20429150.4154   20429150.6104
 -17267173.46244 -13454934.38144  21621750.3934   21621749.9754
  -6946137.96944  -5412557.43144  23401836.9134   23401836.3874
 96  3 23  0 26  0.0000000  0  6G 5G12G20G24G 9G 7
 -19489219.62244 -15186393.10944  21382239.4194   21382239.0254
   3472977.965 4   2706209.440 4  25358581.075    25358575.730
  -3890057.37444  -3031211.18744  23642202.7084   23642205.7404
 -20529841.19844 -15997260.14544  20425987.9284   20425988.0144
 -17212259.74944 -13412144.49544  21632200.1884   21632200.2704
  -6877835.15044  -5359334.48244  23414834.1494   23414833.4564
 96  3 23  0 26 30.0000000  0  6G 5G12G20G24G 9G 7
 -19555169.15744 -15237782.35144  21369689.5414   21369689.1634
   3582683.413 4   2791693.973 4  25379457.668    25379452.179
  -3986600.17444  -3106439.30144  23623831.7744   23623832.2744
 -20545894.77044 -16009769.41944  20422933.2104   20422933.3344
 -17156862.85044 -13368978.09844  21642741.9794   21642742.0024
  -6809464.26344  -5306058.49844  23427844.6014   23427845.0574
 96  3 23  0 27  0.0000000  0  6G 5G20G12G24G 9G 7
 -19620849.60244 -15288961.91144  21357190.8114   21357190.4134
  -4083066.31544  -3181607.68544  23605475.1864   23605474.2104
   3692486.282 4   2877254.407 4  25400352.523    25400347.089
 -20561373.21644 -16021830.53944  20419987.6384   20419987.9754
 -17101000.54044 -13325449.04844  21653372.1044   21653372.3424
  -6741004.54744  -5252713.30044  23440872.0624   23440873.0264
 96  3 23  0 27 30.0000000  0  6G 5G20G12G24G 9G 7
 -19686246.64044 -15339920.63644  21344746.1634   21344745.8024
  -4179428.91144  -3256695.38344  23587137.0364   23587136.5234
   3802390.696 4   2962893.970 4  25421266.919    25421261.368
 -20576268.92444 -16033437.57944  20417153.3004   20417153.4594
 -17044682.98744 -13281565.25944  21664088.9024   21664089.0994
  -6672442.47744  -5199288.34044  23453919.2134   23453920.7794
 96  3 23  0 28  0.0000000  0  6G 5G20G12G24G 9G 7
 -19751366.49544 -15390663.38144  21332354.2304   21332353.8004
  -4275687.48444  -3331702.03944  23568820.9334   23568821.1034
   3912377.362 4   3048597.621 4  25442197.203    25442191.224
 -20590587.61244 -16044594.99144  20414428.3724   20414428.6194
 -16987923.99444 -13237337.49344  21674889.9504   21674889.8344
  -6603789.96344  -5145792.92144  23466983.8944   23466984.7924
 96  3 23  0 28 30.0000000  0  6G 5G12G20G24G 9G 7
 -19816197.72344 -15441181.21244  21320017.5534   21320017.1904
   4022449.244 4   3134367.689 4  25463143.254    25463137.927
  -4371813.29744  -3406605.18344  23550528.9574   23550529.5984
 -20604316.31344 -16055292.67144  20411815.8924   20411816.1324
 -16930716.77544 -13192760.45744  21685776.3354   21685775.8534
  -6535036.16044  -5092218.54544  23480067.1964   23480068.1664
 96  3 23  0 29  0.0000000  0  6G 5G12G20G24G 9G 7
 -19880760.66444 -15491489.98544  21307731.5814   21307731.0684
   4132569.990 4   3220175.832 4  25484098.909    25484093.066
  -4467836.27344  -3481428.25144  23532254.5244   23532256.5164
 -20617491.21844 -16065558.82644  20409308.6854   20409308.9884
 -16873071.43944 -13147842.03244  21696745.6934   21696745.5514
  -6466217.18944  -5038593.42244  23493163.3264   23493162.9304
 96  3 23  0 29 30.0000000  0  7G 5G 6G12G20G24G 9G 7
 -19945067.40244 -15541599.12644  21295494.3354   21295493.9524
        -1.00654                  25195979.1564
   4242712.890 4   3306001.228 4  25505058.638    25505052.821
  -4563780.41644  -3556189.84944  23513998.5334   23513999.6944
 -20630129.12844 -16075406.54044  20406903.9784   20406904.2074
 -16814996.89744 -13102589.16044  21707796.6744   21707796.8774
  -6397365.63344  -4984942.88344  23506264.2224   23506266.0114
 96  3 23  0 30  0.0000000  0  6G 5G 9G12G20G24G 7
 -20009143.36544 -15591528.44044  21283300.9954   21283300.9784
 -16756511.13344 -13057015.86144  21718926.1784   21718926.3434
   4352853.627 4   3391824.911 4  25526017.580    25526011.926
  -4659671.08844  -3630909.80444  23495750.6494   23495751.4044
 -20642264.22044 -16084862.45044  20404594.7004   20404594.7874
  -6328525.90544  -4931301.58344  23519364.7104   23519365.8794
 96  3 23  0 30 30.0000000  0  6G 5G12G20G24G 9G 7
 -20073039.56544 -15641317.67644  21271141.5784   21271141.7754
   4462944.774 4   3477609.959 4  25546966.856    25546961.890
  -4755560.60844  -3705628.84944  23477503.0124   23477504.9984
 -20653942.62444 -16093962.49744  20402372.5634   20402372.7324
 -16697658.35344 -13011156.57244  21730126.0324   21730126.1424
  -6259756.77644  -4877715.27544  23532451.0244   23532451.2054
 96  3 23  0 31  0.0000000  0  7G 5G 6G12G20G24G 9G 7
 -20136700.01544 -15690923.21444  21259027.9154   21259027.5614
        -1.12554                  25154557.8074
   4573039.349 4   3563397.692 4  25567918.577    25567912.649
  -4851411.53244  -3780317.85444  23459263.3924   23459265.1664
 -20665109.53544 -16102663.98244  20400247.6144   20400247.3334
 -16638378.40344 -12964964.42044  21741406.6554   21741406.5034
  -6191016.64444  -4824151.58444  23545531.8254   23545533.2624
 96  3 23  0 31 30.0000000  0  6G 5G 6G20G24G 9G 7
 -20200138.88544 -15740356.08344  21246956.0564   21246955.8714
    -72491.60644                  25140763.4324
  -4947232.12644  -3854983.19744  23441029.4974   23441031.0014
 -20675776.44044 -16110975.85244  20398217.4454   20398217.8084
 -16578689.80044 -12918453.84144  21752764.6414   21752765.1474
  -6122317.70344  -4770619.95944  23558604.8304   23558606.4634
 96  3 23  0 32  0.0000000  0  6G 6G 5G20G24G 9G 7
   -144971.90944                  25126971.7584
 -20263394.86844 -15789646.44044  21234918.7694   21234918.5934
  -5043071.51344  -3929663.21944  23422790.9334   23422791.3434
 -20685981.90544 -16118928.15944  20396275.4634   20396275.6994
 -16518637.10044 -12871659.54644  21764191.9684   21764192.5024
  -6053692.11344  -4717145.49944  23571664.4164   23571665.4714
 96  3 23  0 32 30.0000000  0  7G 6G 4G 5G20G24G 9G 7
   -217391.45344                  25113190.4154
        -0.26354         0.23854  21373358.3704   21373357.6304
 -20326399.53544 -15838740.98044  21222929.0624   21222928.7384
  -5138878.74444  -4004318.17644  23404560.2274   23404560.0064
 -20695669.18044 -16126476.68444  20394431.9144   20394432.3094
 -16458172.04544 -12824543.94044  21775698.6624   21775698.3114
  -5985060.91644  -4663666.67844  23584724.3074   23584725.9224
 96  3 23  0 33  0.0000000  0  6G 4G 5G20G24G 9G 7
     63996.16444     49867.57244  21385536.4914   21385535.4684
 -20389187.10144 -15887666.35144  21210981.1464   21210980.7934
  -5234680.19244  -4078968.65344  23386329.5974   23386329.5914
 -20704889.65544 -16133661.46644  20392677.2814   20392677.6384
 -16397347.89744 -12777148.51244  21787272.9724   21787272.6204
  -5916452.55444  -4610205.64844  23597779.1904   23597779.7164
 96  3 23  0 33 30.0000000  0  6G 4G 5G20G24G 9G 7
    128219.65344     99911.84144  21397757.7844   21397757.1924
 -20451846.99544 -15936492.22544  21199057.5564   21199057.2564
  -5330546.19044  -4153669.38544  23368086.9664   23368087.6624
 -20713726.74944 -16140547.51444  20390995.5994   20390996.0164
 -16336270.98644 -12729556.12844  21798895.2964   21798895.1274
  -5847945.46844  -4556823.56244  23610816.3584   23610819.5534
 96  3 23  0 34  0.0000000  0  6G 4G 5G20G24G 9G 7
    192815.99344    150246.64244  21410049.9724   21410049.2164
 -20514221.42444 -15985095.66444  21187187.8674   21187187.6044
  -5426314.04544  -4228293.69044  23349862.4904   23349862.0604
 -20722027.24744 -16147015.43244  20389416.1764   20389416.5224
 -16274793.77144 -12681651.81844  21810594.3224   21810593.8954
  -5779370.30044  -4503388.41844  23623865.4504   23623866.3614
 96  3 23  0 34 30.0000000  0  6G 4G 5G20G24G 9G 7
    257829.52744    200906.53544  21422421.6634   21422421.2004
 -20576264.36844 -16033440.80444  21175381.2734   21175381.3184
  -5521919.98744  -4302791.78544  23331670.6684   23331670.5344
 -20729752.05944 -16153034.76744  20387946.2654   20387946.6504
 -16212870.98844 -12633400.31444  21822377.4064   21822377.8214
  -5710683.64644  -4449866.42444  23636936.4024   23636937.1664
 96  3 23  0 35  0.0000000  0  7G 6G 4G 5G20G24G 9G 7
        -0.51454                  25044295.1664
    323278.08844    251905.40144  21434876.2304   21434875.6214
 -20637970.99344 -16081523.88544  21163639.2184   21163638.7984
  -5617349.63344  -4377152.51144  23313510.4074   23313512.5974
 -20736881.82844 -16158590.42644  20386589.2324   20386589.7094
 -16150501.65244 -12584800.85644  21834246.1884   21834246.6534
  -5641897.78244  -4396267.06044  23650027.1134   23650026.8534
 96  3 23  0 35 30.0000000  0  7G 6G 4G 5G20G24G 9G 7
    -72188.35544    -56249.96444  25030558.0294
    389144.16744    303229.61144  21447410.5094   21447409.5964
 -20699351.21044 -16129352.62444  21151958.8924   21151958.4274
  -5712632.14044  -4451398.57044  23295378.0194   23295380.0934
 -20743433.47844 -16163695.60244  20385342.8804   20385343.2104
 -16087704.77344 -12535868.24144  21846196.1824   21846196.3584
  -5573044.78044  -4342615.41744  23663127.6134   23663128.5934
 96  3 23  0 36  0.0000000  0  7G 6G 4G 5G20G24G 9G 7
   -144288.04444   -112431.44144  25016839.9064   25016836.7734
    455428.43944    354879.68544  21460023.6194   21460023.0984
 -20760394.27344 -16176918.63944  21140342.8334   21140342.4314
  -5807785.30344  -4525543.82544  23277271.0084   23277272.1964
 -20749429.06644 -16168367.48444  20384201.7814   20384202.1544
 -16024467.84044 -12486592.72644  21858229.8434   21858229.8684
  -5504139.58344  -4288923.04344  23676240.3814   23676240.9094
 96  3 23  0 36 30.0000000  0  7G 6G 4G 5G20G24G 9G 7
   -216331.47544   -168569.12044  25003128.2064   25003131.9634
    522101.86744    406832.99044  21472711.1234   21472710.6174
 -20821129.01644 -16224244.40244  21128785.1964   21128784.9664
  -5902846.05944  -4599617.10844  23259181.9054   23259180.7804
 -20754909.84044 -16172638.21244  20383158.8764   20383159.2364
 -15960819.38144 -12436996.54944  21870341.8304   21870341.7844
  -5435241.67644  -4235236.42244  23689351.0844   23689353.0594
 96  3 23  0 37  0.0000000  0  7G 6G 4G 5G20G24G 9G 7
   -288309.72744   -224655.98644  24989430.2054
    589159.01044    459085.29644  21485471.6424   21485471.0014
 -20881544.86444 -16271321.67844  21117288.6784   21117288.4754
  -5997824.77444  -4673626.46544  23241107.5384   23241108.2434
 -20759885.10844 -16176515.03844  20382211.9724   20382212.5024
 -15896766.11944 -12387084.94144  21882530.3004   21882530.7274
  -5366350.66544  -4181555.17344  23702460.0824   23702462.2554
 96  3 23  0 37 30.0000000  0  7G 6G 4G 5G20G24G 9G 7
   -360189.93144                  24975752.8964
    656628.32744    511658.77944  21498310.2234   21498309.5264
 -20941608.77344 -16318124.71944  21105858.6794   21105858.3024
  -6092681.06944  -4747540.39344  23223057.0984   23223057.5994
 -20764330.58844 -16179979.04244  20381366.1444   20381366.2674
 -15832252.63844 -12336814.72344  21894806.6644   21894807.0464
  -5297410.64744  -4127835.68444  23715579.9484   23715583.6134
 96  3 23  0 38  0.0000000  0  7G 6G 4G 5G20G24G 9G 7
   -431970.80644   -336599.61044  24962093.5884
    724521.03344    564562.17644  21511229.7804   21511229.2584
 -21001320.45444 -16364653.29644  21094495.8264   21094495.4904
  -6187386.16344  -4821336.54244  23205035.7224   23205035.0584
 -20768231.00544 -16183018.32344  20380623.7524   20380624.1424
 -15767272.24444 -12286180.67244  21907172.4954   21907172.8934
  -5228398.66244  -4074060.15744  23728711.9954   23728715.5454
 96  3 23  0 38 30.0000000  0  7G 6G 4G 5G20G24G 9G 7
   -503700.01644   -392492.44344  24948441.6564
    792784.26644    617754.29844  21524220.0214   21524219.3234
 -21060738.22944 -16410952.85544  21083188.9914   21083188.8464
  -6281968.53344  -4895037.04744  23187037.3634   23187036.1684
 -20771609.83244 -16185651.17044  20379980.8324   20379981.3214
 -15701883.24744 -12235228.23244  21919615.7054   21919615.6574
  -5159348.07244  -4020254.52144  23741852.9894   23741856.5024
 96  3 23  0 39  0.0000000  0  7G 6G 4G 5G20G24G 9G 7
   -575381.37844   -448348.01144  24934799.7344
    861407.51044    671226.94344  21537279.0264   21537278.4144
 -21119883.32344 -16457039.93344  21071934.0734   21071933.6994
  -6376435.11744  -4968647.35944  23169060.6774   23169062.7254
 -20774464.02444 -16187875.21344  20379437.9714   20379438.1214
 -15636106.65544 -12183973.76544  21932132.1984   21932132.3974
  -5090256.42744                  23755000.0674
 96  3 23  0 39 30.0000000  0  7G 6G 4G 5G20G24G 9G 7
   -647016.47644                  24921167.9464
    930395.25044    724983.61544  21550406.7244   21550406.1724
 -21178763.17944 -16502920.33744  21060729.8344   21060729.3564
  -6470773.50044  -5042157.73644  23151109.1374   23151110.1424
 -20776775.67944 -16189676.49744  20378997.7904   20378998.1384
 -15569944.31744 -12132418.71644  21944722.8294   21944722.9334
  -5021127.94944  -3912548.77644  23768155.7144   23768154.6424
 96  3 23  0 40  0.0000000  0  8G 6G16G 4G 5G20G24G 9G 7
   -718614.47144                  24907547.2944
        -0.11254                  24323698.9584
    999742.11644    779020.12444  21563602.9314   21563602.3824
 -21237369.35344 -16548587.47744  21049577.3174   21049576.9664
  -6565003.79144  -5115583.89644  23133177.1324   23133177.7684
 -20778545.89844 -16191055.88444  20378660.9844   20378661.3864
 -15503426.24444 -12080586.47644  21957380.3594   21957380.7194
  -4951982.27744                  23781312.4484
 96  3 23  0 40 30.0000000  0  8G 6G16G 4G 5G20G24G 9G 7
   -790205.90044                  24893924.3694
    -94077.55744    -73305.39044  24305797.0614
   1069409.76544    833306.59944  21576860.1894   21576859.6514
 -21295723.99944 -16594058.62444  21038472.7654   21038472.3034
  -6659183.72144  -5188970.82044  23115255.0934   23115255.6434
 -20779826.35244 -16192053.63944  20378417.3884   20378417.7454
 -15436582.79144 -12028500.69144  21970100.6444   21970100.6734
  -4882864.10544  -3804811.61544  23794465.0924
 96  3 23  0 41  0.0000000  0  8G 6G16G 4G 5G20G24G 9G 7
   -861762.20544                  24880304.2934
   -188228.56544                  24287880.4594
   1139425.09844    887863.99544  21590183.3644   21590183.2814
 -21353781.64644 -16639298.34244  21027424.6524   21027424.1614
  -6753293.70744  -5262303.24744  23097347.0964   23097346.7814
 -20780609.84444 -16192664.14944  20378268.2444   20378268.2824
 -15369395.50744 -11976146.98744  21982886.1234   21982885.6984
  -4813756.22544  -3750961.34244  23807616.1324   23807618.4274
 96  3 23  0 41 30.0000000  0  8G 6G16G 4G 5G20G24G 9G 7
   -933257.15244                  24866700.7864
   -282430.63144                  24269954.4584
   1209805.06244    942705.51344  21603576.6544   21603576.3844
 -21411488.51844 -16684264.72944  21016443.7824   21016443.4044
  -6847302.55444  -5335556.85244  23079457.9624   23079458.9064
 -20780877.37544 -16192872.61244  20378217.2674   20378217.7864
 -15301833.79244 -11923501.52444  21995742.9014   21995742.4524
  -4744624.22444  -3697092.28144  23820771.3874
 96  3 23  0 42  0.0000000  0  8G 6G16G 4G 5G20G24G 9G 7
  -1004699.43244                  24853104.9404
   -376665.78844   -293504.24244  24252021.6224
   1280538.15944    997822.20644  21617036.8714   21617036.3764
 -21468855.14144 -16728965.98044  21005527.1174   21005526.7274
  -6941217.08344  -5408736.96644  23061586.3744   23061586.9084
 -20780655.40344 -16192699.64344  20378259.8164   20378259.9324
 -15233905.80144 -11870570.64244  22008669.0334   22008668.6474
  -4675474.78244  -3643209.63344  23833930.1424   23833937.2794
 96  3 23  0 42 30.0000000  0  8G 6G16G 4G 5G20G24G 9G 7
  -1076061.03344                  24839525.2984
   -470899.20144   -366932.76844  24234089.6624   24234090.8224
   1351648.29144   1053232.69044  21630568.4744   21630568.0714
 -21525866.66144 -16773390.53344  20994677.9084   20994677.6634
  -7034988.82044  -5481805.80844  23043742.1344   23043742.2824
 -20779918.94144 -16192125.77344  20378399.8184   20378400.0304
 -15165587.91144 -11817335.94644  22021669.4344   22021669.6124
  -4606281.17144  -3589292.56544  23847098.7004   23847098.4354
 96  3 23  0 43  0.0000000  0  8G 6G16G 4G 5G20G24G 9G 7
  -1147378.22244                  24825953.4204
   -565159.94344   -440382.59644  24216152.9244   24216156.3644
   1423101.53244   1108910.52944  21644165.7984   21644165.3434
 -21582557.23844 -16817564.99444  20983890.3464   20983890.1414
  -7128624.50044  -5554768.65144  23025923.8354   23025924.4134
 -20778673.26744 -16191155.11244  20378636.8564   20378637.1914
 -15096914.71344 -11763824.39044  22034737.3764   22034738.2504
  -4537060.49644  -3535354.31444  23860270.2764   23860269.9254
 96  3 23  0 43 30.0000000  0  8G 6G16G 4G 5G20G24G 9G 7
  -1218681.86944                  24812383.7524
   -659454.43544   -513858.71244  24198208.8284   24198210.4534
   1494877.25544   1164839.65244  21657824.3664   21657823.8874
 -21638969.09644 -16861522.27944  20973155.5334   20973155.0274
  -7222144.69344  -5627641.47844  23008126.9784   23008128.6974
 -20776927.12644 -16189794.47644  20378969.1474   20378969.3684
 -15027894.79944 -11710042.67544  22047871.5684   22047872.2474
  -4467822.89244  -3481402.05644  23873446.2484   23873447.1694
 96  3 23  0 44  0.0000000  0  8G 6G16G 4G 5G20G24G 9G 7
  -1289964.43944                  24798820.8944
   -753769.04344   -587350.52044  24180261.4714   24180261.4134
   1567000.10544   1221039.26544  21671548.6514   21671548.2754
 -21695104.10844 -16905263.83744  20962473.2744   20962472.9724
  -7315537.57644  -5700415.11444  22990355.5304   22990355.3854
 -20774651.38444 -16188021.16644  20379402.2204   20379402.5544
 -14958516.78344 -11655981.90644  22061074.2704   22061074.0814
  -4398556.91244                  23886626.5734
 96  3 23  0 44 30.0000000  0  8G 6G16G 4G 5G20G24G 9G 7
  -1361226.41144  -1060693.01444  24785262.3294   24785262.5744
   -848138.91544   -660885.37644  24162302.6474   24162306.4634
   1639466.92444   1277506.90544  21685338.5834   21685338.1294
 -21750945.84944 -16948776.86344  20951846.9654   20951846.8294
  -7408815.56344  -5773099.21744  22972604.6174   22972605.5744
 -20771840.95144 -16185831.20944  20379936.9314   20379937.2084
 -14888783.88444 -11601644.59944  22074343.4024   22074343.4834
  -4329255.85744  -3373428.84544  23899814.0034   23899814.4544
 96  3 23  0 45  0.0000000  0  8G 6G16G 4G 5G20G24G 9G 7
  -1432460.68544  -1116200.19644  24771706.8294   24771707.8784
   -942558.28844   -734458.83444  24144335.6024   24144338.6994
   1712277.79544   1334242.64144  21699194.2564   21699193.7454
 -21806480.39544 -16992050.52544  20941278.9864   20941278.6264
  -7501979.49644  -5845694.44744  22954877.1844   22954877.8544
 -20768503.31844 -16183230.45244  20380572.0524   20380572.2454
 -14818682.11544 -11547019.87544  22087683.1854   22087683.7084
  -4259907.06944  -3319390.78844  23913010.0094   23913008.5864
 96  3 23  0 45 30.0000000  0  8G 6G16G 4G 5G20G24G 9G 7
  -1503622.58744                  24758164.7634
  -1036984.34144   -808037.49544  24126366.5084   24126367.3194
   1785467.67444   1391273.70344  21713121.5534   21713120.9284
 -21861669.40744 -17035054.93644  20930776.9224   20930776.5634
  -7595000.75244  -5918178.52344  22937175.2514   22937174.8044
 -20764618.83744 -16180203.57544  20381311.2664   20381311.6234
 -14748192.21344 -11492092.70944  22101097.2854   22101097.4144
  -4190490.10144  -3265299.72644  23926219.9154   23926218.9214
 96  3 23  0 46  0.0000000  0  8G 6G16G 4G 5G20G24G 9G 7
  -1574711.86744                  24744636.3764
  -1131427.20944   -881629.27044  24108394.7934   24108399.0664
   1859002.41044   1448573.47844  21727114.8284   21727114.4664
 -21916509.04644 -17077787.11044  20920341.2154   20920340.7644
  -7687889.81644  -5990559.57144  22919498.5264   22919499.3454
 -20760223.77244 -16176778.84144  20382147.4784   20382147.8654
 -14677352.81944 -11436893.20944  22114577.7064   22114578.1484
  -4121028.55244  -3211173.84444  23939438.2214   23939440.9604
 96  3 23  0 46 30.0000000  0  8G 6G16G 4G 5G20G24G 9G 7
  -1645711.31944  -1282369.36244  24731125.9324   24731126.4904
  -1225865.77144   -955217.67544  24090423.6564   24090424.9794
   1932870.62744   1506133.11944  21741171.4034   21741170.9364
 -21970985.56844 -17120236.33644  20909974.8434   20909974.5434
  -7780615.20144  -6062813.06644  22901853.5794   22901854.6684
 -20755331.74244 -16172966.86644  20383078.3724   20383078.5924
 -14606155.72844 -11381414.98244  22128125.9154   22128126.2084
  -4051518.10044  -3157009.84944  23952666.3664   23952665.2584
 96  3 23  0 47  0.0000000  0  8G 6G16G 4G 5G20G24G 9G 7
  -1716613.12844  -1337617.51044  24717632.8154   24717638.1914
  -1320266.45244  -1028776.58944  24072459.4944   24072462.6414
   2007068.46444   1563949.60444  21755291.0254   21755290.4934
 -22025109.82244 -17162411.06644  20899675.1154   20899674.7204
  -7873159.89544  -6134925.77644  22884242.9664   22884244.3204
 -20749932.77344 -16168759.87244  20384106.0144   20384106.3164
 -14534599.73644 -11325657.09844  22141742.8684   22141742.7024
  -3981959.52244  -3102808.41744  23965902.0244   23965902.0164
 96  3 23  0 47 30.0000000  0  8G 6G16G 4G 5G20G24G 9G 7
  -1787439.08644  -1392806.51244  24704153.5374
  -1414647.59544  -1102320.25944  24054500.1224   24054503.1564
   2081579.54044   1622010.17244  21769469.7664   21769469.2784
 -22078893.47844 -17204320.40644  20889440.5844   20889440.3474
  -7965543.16144  -6206912.71844  22866662.6194   22866663.6254
 -20744040.46244 -16164168.45944  20385227.3344   20385227.6174
 -14462709.91244 -11269639.07944  22155422.7854   22155422.7834
  -3912382.71344  -3048592.69744  23979142.0344   23979143.4044
 96  3 23  0 48  0.0000000  0  8G 6G16G 4G 5G20G24G 9G 7
  -1858213.90244  -1447955.66744  24690685.5834
  -1509029.07244  -1175864.19144  24036539.1174   24036542.3064
   2156400.59444   1680312.28244  21783708.1854   21783707.4244
 -22132346.32744 -17245971.96844  20879268.6324   20879268.3804
  -8057779.34944  -6278785.03244  22849111.0334   22849111.5994
 -20737668.38944 -16159203.20444  20386439.5824   20386439.7994
 -14390482.14144 -11213357.72844  22169167.1204   22169167.4594
  -3842796.37444  -2994369.64944  23992383.3884   23992384.3334
 96  3 23  0 48 30.0000000  0  8G 6G16G 4G 5G20G24G 9G 7
  -1928961.12544  -1503083.35344  24677222.2544
  -1603420.11844  -1249415.55144  24018577.2164   24018580.4184
   2231542.85944   1738864.68744  21798007.0524   21798006.5904
 -22185483.46744 -17287377.52444  20869156.8784   20869156.4894
  -8149892.02544  -6350561.10544  22831582.2694   22831583.5254
 -20730814.94144 -16153862.84644  20387743.8404   20387744.0984
 -14317914.81844 -11156811.79944  22182976.6624   22182977.1514
  -3773221.86644  -2940155.79244  24005623.0764   24005621.9794
 96  3 23  0 49  0.0000000  0  8G 6G16G 4G 5G20G24G 9G 7
  -1999700.13844                  24663760.6174
  -1697821.89744  -1322975.33144  24000612.0604   24000614.1524
   2307000.81344   1797663.07844  21812366.3854   21812365.8014
 -22238308.04644 -17328539.52244  20859104.9104   20859104.4304
  -8241904.95344  -6422259.44444  22814073.1854   22814073.7314
 -20723471.97044 -16148141.04644  20389141.3614   20389141.5134
 -14245029.18044 -11100017.82844  22196846.1904   22196846.5914
  -3703671.69044  -2885960.81444  24018859.9074   24018860.0784
 96  3 23  0 49 30.0000000  0  8G 6G16G 4G 5G20G24G 9G 7
  -2070426.97644  -1613316.45844  24650302.7924   24650306.1684
  -1792229.23644  -1396539.39744  23982647.6964   23982650.0954
   2382776.32644   1856708.92244  21826785.7194   21826784.9444
 -22290807.13644 -17369447.89244  20849114.5904   20849114.0844
  -8333810.34444  -6493874.00844  22796584.2754   22796584.9984
 -20715638.10444 -16142036.73044  20390631.9884   20390632.1674
 -14171824.83144 -11042975.51244  22210776.9354   22210776.9774
  -3634136.31144  -2831777.43644  24032091.1534   24032090.3434
 96  3 23  0 50  0.0000000  0  8G 6G16G 4G 5G20G24G 9G 7
  -2141124.27244  -1668405.24744  24636850.0714   24636853.2994
  -1886616.30044  -1470087.68144  23964686.2544   23964687.2414
   2458858.37844   1915993.62944  21841263.8514   21841263.0394
 -22342984.14744 -17410105.29544  20839185.6364   20839185.3054
  -8425592.72844  -6565392.69944  22779118.3914   22779119.5144
 -20707293.44944 -16135534.39544  20392220.0664   20392220.2724
 -14098311.29644 -10985692.26344  22224766.2474   22224765.8724
  -3564591.74944  -2777586.92844  24045325.1364   24045326.9844
 96  3 23  0 50 30.0000000  0  8G 6G16G 4G 5G20G24G 9G 7
  -2211771.59744  -1723455.12344  24623407.8494   24623408.2644
  -1980945.78344  -1543591.12544  23946736.6454   23946740.0514
   2535240.19944   1975511.92144  21855798.4254   21855797.6714
 -22394817.93444 -17450495.25244  20829321.9964   20829321.5954
  -8517220.78544  -6636791.14844  22761681.9084   22761681.4044
 -20698417.36644 -16128617.96144  20393909.0934   20393909.0934
 -14024486.99244 -10928166.85944  22238814.3974   22238814.3364
  -3495007.78144  -2723365.71744  24058566.2864   24058568.6184
 96  3 23  0 51  0.0000000  0  8G 6G16G 4G 5G20G24G 9G 7
  -2282364.44444  -1778462.50244  24609974.1304   24609974.5694
  -2075219.55344  -1617051.13044  23928796.3644   23928796.9984
   2611900.68544   2035247.34844  21870386.6884   21870386.0574
 -22446302.17844 -17490612.84144  20819524.9814   20819524.3854
  -8608677.86044  -6708056.35144  22744278.6704   22744278.8424
 -20689013.05844 -16121289.92344  20395698.5414   20395698.8464
 -13950356.11244 -10870402.56644  22252920.4044   22252921.0484
  -3425364.97344  -2669098.65044  24071818.6794   24071819.9714
 96  3 23  0 51 30.0000000  0  8G 6G16G 4G 5G20G24G 9G 7
  -2352914.92244                  24596546.4284
  -2169462.04444  -1690486.77844  23910862.7514   23910864.8734
   2688832.16144   2095193.94144  21885026.6134   21885025.5884
 -22497445.33744 -17530464.64444  20809792.5264   20809792.1624
  -8699988.13044  -6779207.17444  22726903.2084   22726903.2124
 -20679114.03144 -16113576.38744  20397582.1614   20397582.3384
 -13875925.54144 -10812404.75144  22267084.2934   22267084.5484
  -3355667.52944  -2614789.01044  24085081.9274   24085081.6164
 96  3 23  0 52  0.0000000  0  8G 6G16G 4G 5G20G24G 9G 7
  -2423428.01844  -1888382.01144  24583129.4274   24583131.6254
  -2263672.64944  -1763897.58744  23892934.9534   23892937.1494
   2766051.51844   2155364.85744  21899720.7874   21899720.3864
 -22548227.66044 -17570035.27744  20800128.9504   20800128.4214
  -8791133.63044  -6850229.61144  22709558.5964   22709558.5984
 -20668717.10044 -16105474.87544  20399560.6614   20399560.9834
 -13801185.11444 -10754165.48744  22281307.2724   22281307.9774
  -3285913.11044  -2560434.92344  24098356.3954   24098353.7224
 96  3 23  0 52 30.0000000  0  8G 6G16G 4G 5G20G24G 9G 7
  -2493902.17144  -1943297.03644  24569719.3264   24569721.4784
  -2357851.71644  -1837283.82244  23875013.3044   23875016.4394
   2843583.87944   2215779.67944  21914475.1104   21914474.2404
 -22598620.05044 -17609302.06644  20790539.8354   20790539.4844
  -8882099.01544  -6921111.67944  22692248.0744   22692249.0554
 -20657824.98144 -16096987.49944  20401633.3524   20401633.6424
 -13726094.53744 -10695653.38544  22295595.9364   22295596.9524
  -3216098.06644  -2506033.58644  24111641.3264   24111639.3234
 96  3 23  0 53  0.0000000  0  8G 6G16G 4G 5G20G24G 9G 7
  -2564379.50144  -1998214.36644  24556307.2964   24556308.4834
  -2452050.87244  -1910685.70244  23857088.1394   23857091.0864
   2921392.89244   2276410.07544  21929281.2014   21929280.4844
 -22648664.81144 -17648297.97844  20781016.7434   20781016.2344
  -8972925.00344  -6991885.14544  22674964.1694   22674965.3424
 -20646480.49644 -16088147.63244  20403792.2784   20403792.6094
 -13650688.59444 -10636895.54444  22309944.9774   22309946.4864
  -3146279.32744  -2451629.34844  24124927.5974   24124928.4844
 96  3 23  0 53 30.0000000  0  8G 6G16G 4G 5G20G24G 9G 7
  -2634843.87144  -2053121.62944  24542898.5154   24542899.6834
  -2546252.37844  -1984089.38144  23839161.7364   23839165.2614
   2999498.56444   2337271.63244  21944144.5194   21944143.6844
 -22698353.03344 -17687016.06544  20771561.0314   20771560.9304
  -9063578.90144  -7062524.51744  22657713.3914   22657714.5054
 -20634668.72344 -16078943.64444  20406039.8584   20406040.2554
 -13574956.02344 -10577883.18544  22324357.1064   22324357.6064
  -3076448.24144  -2397215.52844  24138215.8914   24138216.2354
 96  3 23  0 54  0.0000000  0  8G 6G16G 4G 5G20G24G 9G 7
  -2705287.56844  -2108012.77244  24529493.5434   24529493.0014
  -2640447.00344  -2057487.71544  23821236.6944   23821237.5894
   3077892.69344   2398357.96344  21959062.2824   21959061.2514
 -22747691.13944 -17725461.33444  20762172.4024   20762172.0224
  -9154035.07844  -7133009.81544  22640499.1394   22640499.8584
 -20622367.03244 -16069357.90344  20408380.6414   20408381.1024
 -13498895.86044 -10518615.55544  22338831.2934   22338831.0324
  -3006609.18644  -2342795.52444  24151506.6414   24151508.3314
 96  3 23  0 54 30.0000000  0  8G 6G16G 4G 5G20G24G 9G 7
  -2775697.49844  -2162877.56944  24516095.2354   24516096.2264
  -2734622.71744  -2130871.32244  23803315.8414   23803317.4984
   3156576.26044   2459669.82244  21974035.2884   21974034.6344
 -22796673.95244 -17763629.75244  20752851.3444   20752850.8584
  -9244306.00744  -7203350.76044  22623321.7394   22623322.4344
 -20609568.17444 -16059384.76344  20410816.3724   20410816.5494
 -13422513.49644 -10459096.85244  22353366.3924   22353365.8454
  -2936756.28644  -2288364.76444  24164798.0284   24164800.5154
 96  3 23  0 55  0.0000000  0  8G 6G16G 4G 5G20G24G 9G 7
  -2846034.05444  -2217685.23444  24502710.7534   24502709.1854
  -2828749.97344  -2204217.14344  23785404.5704   23785407.2724
   3235578.08644   2521229.67944  21989069.1214   21989068.6344
 -22845278.95444 -17801503.76744  20743602.3264   20743601.9034
  -9334367.55944  -7273528.55844  22606184.0094   22606185.0354
 -20596247.12744 -16049004.71844  20413350.9704   20413351.2734
 -13345811.77744 -10399329.30044  22367961.8354   22367961.7944
  -2866859.85244  -2233900.06344  24178098.9384   24178101.9774
 96  3 23  0 55 30.0000000  0  8G 6G16G 4G 5G20G24G 9G 7
  -2916298.79444  -2272436.92644  24489339.7284   24489340.3494
  -2922839.58044  -2277533.65144  23767499.6134   23767503.1074
   3314889.44044   2583030.72144  22004161.1864   22004160.7654
 -22893506.12444 -17839083.37544  20734424.7644   20734424.3764
  -9424245.45944  -7343563.26444  22589081.5504   22589081.9584
 -20582424.23344 -16038233.62544  20415981.6964   20415982.0824
 -13268822.50744 -10339337.69344  22382612.1974   22382612.2064
  -2796921.06644  -2179402.35444  24191408.1144   24191410.1904
 96  3 23  0 56  0.0000000  0  8G 6G16G 4G 5G20G24G 9G 7
  -2986474.85244  -2327119.50644  24475985.3524   24475988.5564
  -3016870.33344  -2350804.32444  23749605.9834   23749607.7564
   3394520.56044   2645080.93744  22019314.4274   22019313.6674
 -22941323.48444 -17876343.64944  20725325.6134   20725325.4104
  -9513953.60444  -7413465.70944  22572010.8084   22572010.5874
 -20568089.32544 -16027063.56244  20418709.6254   20418709.7134
 -13191550.87044 -10279126.06244  22397316.5514   22397317.5844
  -2726931.22944  -2124864.85244  24204726.7734   24204726.5984
 96  3 23  0 56 30.0000000  0  8G 6G16G 4G 5G20G24G 9G 7
  -3056554.82544  -2381727.21644  24462649.9234   24462650.3214
  -3110834.27544  -2424022.91044  23731725.2164   23731728.5974
   3474462.53344   2707373.36744  22034526.5454   22034526.0674
 -22988716.52944 -17913273.28744  20716306.9264   20716306.5054
  -9603497.42044  -7483240.09044  22554970.4394   22554971.7444
 -20553259.47944 -16015507.83144  20421531.3874   20421531.5744
 -13113996.03744 -10218693.76044  22412074.5904   22412075.5574
  -2656882.33644  -2070281.31144  24218056.7424   24218058.2084
 96  3 23  0 57  0.0000000  0  8G 6G16G 4G 5G20G24G 9G 7
  -3126547.22144  -2436266.64644  24449330.8354   24449331.9214
  -3204738.97944  -2497195.36244  23713855.1694   23713856.2814
   3554691.11944   2769889.14444  22049794.0664   22049793.4534
 -23035702.79144 -17949885.95044  20707365.5054   20707365.0704
  -9692871.56044  -7552882.24444  22537962.7954   22537963.9064
 -20537952.83444 -16003580.57144  20424444.3154   20424444.6714
 -13036166.71444 -10158047.56244  22426885.1384   22426885.9134
  -2586788.95444  -2015663.07444  24231395.5684   24231394.9404
 96  3 23  0 57 30.0000000  0  8G 6G16G 4G 5G20G24G 9G 7
  -3196501.84244  -2490776.67444  24436018.1324   24436017.7254
  -3298607.96144  -2570339.97544  23695992.4934   23695994.4554
   3635152.95444   2832586.66444  22065105.5374   22065105.1614
 -23082321.74344 -17986212.39544  20698494.5014   20698493.9334
  -9782109.71644  -7622418.44844  22520980.4764   22520981.6724
 -20522189.61944 -15991297.54444  20427444.0014   20427444.1944
 -12958083.37044 -10097203.42644  22441744.0444   22441744.3464
  -2516691.05844  -1961041.35944  24244733.7444
 96  3 23  0 58  0.0000000  0  8G 6G16G 4G 5G20G24G 9G 7
  -3266420.36344  -2545258.56344  24422713.1784   24422713.5154
  -3392409.74844  -2643432.22444  23678143.1584   23678144.9284
   3715856.46444   2895472.50344  22080462.5004   22080462.3764
 -23128571.52544 -18022251.17644  20689693.2054   20689692.8944
  -9871175.30644  -7691820.17544  22504032.5544   22504033.1434
 -20505939.69244 -15978635.26044  20430535.9744   20430536.2794
 -12879713.27844 -10036135.85444  22456657.7774   22456658.2454
  -2446581.48844  -1906410.59344  24258075.5454   24258075.9524
 96  3 23  0 58 30.0000000  0  8G 6G16G 4G 5G20G24G 9G 7
  -3336298.41244  -2599708.92244  24409416.2144   24409416.6114
  -3486131.82344  -2716462.36344  23660308.3904   23660311.3054
   3796808.15944   2958551.72644  22095867.4154   22095867.1074
 -23174448.07744 -18057999.13144  20680963.1834   20680962.7434
  -9960031.36644  -7761058.63244  22487123.9334   22487124.2504
 -20489186.61844 -15965580.91144  20433724.2774   20433724.5854
 -12801030.55744  -9974824.67244  22471630.7544   22471630.8534
  -2376445.54644  -1851759.21244  24271422.4044   24271421.2704
 96  3 23  0 59  0.0000000  0  8G 6G16G 4G 5G20G24G 9G 7
  -3406151.99744  -2654140.24144  24396123.5374   24396125.6254
  -3579772.35144  -2789428.94444  23642489.0674   23642489.4544
   3878010.86044   3021826.55344  22111319.9754   22111319.6334
 -23219963.43944 -18093465.64144  20672302.1864   20672301.7854
 -10048680.06244  -7830135.50044  22470254.5784   22470255.1664
 -20471929.60944 -15952133.88844  20437008.0534   20437008.3144
 -12722058.20944  -9913287.80344  22486659.0344   22486658.6924
  -2306291.02544  -1797093.41144  24284772.4364   24284774.2074
 96  3 23  0 59 30.0000000  0  8G 6G16G 4G 5G20G24G 9G 7
  -3475972.19344  -2708545.51544  24382837.7424   24382836.8224
  -3673307.62044  -2862313.49744  23624690.5454   23624691.4244
   3959478.49444   3085307.81844  22126822.3484   22126822.0354
 -23265110.05244 -18128644.80944  20663710.6894   20663710.2854
 -10137103.39744  -7899036.76544  22453428.1384   22453428.6324
 -20454149.41844 -15938279.18744  20440391.3914   20440391.2974
 -12642791.81644  -9851521.80844  22501742.4674   22501743.1474
  -2236098.00144  -1742397.58044  24298128.5694   24298133.1144
 96  3 23  1  0  0.0000000  0  8G 6G16G 4G 5G20G24G 9G 7
  -3545752.14944  -2762919.42044  24369558.3314   24369559.2844
  -3766749.70144  -2935125.48544  23606907.9974   23606909.3574
   4041213.91344   3148997.75644  22142376.6284   22142376.1654
 -23309884.62644 -18163534.08444  20655190.6444   20655190.1294
 -10225289.31044  -7967753.04144  22436647.6554   22436648.1184
 -20435875.50944 -15924039.76944  20443868.9224   20443869.1234
 -12563247.00944  -9789538.87544  22516878.9234   22516879.6824
  -2165869.36144  -1687673.99444  24311493.9354   24311493.4164
 96  3 23  1  0 30.0000000  0  8G 6G16G 4G 5G20G24G 9G 7
  -3615481.30444  -2817253.74244  24356288.7394   24356291.0934
  -3860106.11144  -3007870.65844  23589142.9374   23589146.3574
   4123214.00444   3212893.91744  22157980.1704   22157980.0614
 -23354288.46944 -18198134.47544  20646740.6204   20646740.3894
 -10313253.44444  -8036296.48644  22419907.9604   22419908.8154
 -20417139.12644 -15909439.98344  20447434.3404   20447434.5484
 -12483440.19344  -9727351.78944  22532064.8644   22532066.6184
  -2095605.08544  -1632922.65144  24324864.2184
 96  3 23  1  1  0.0000000  0  8G 6G16G 4G 5G20G24G 9G 7
  -3685161.19544  -2871549.68544  24343029.5204   24343029.5434
  -3953387.29544  -3080557.26244  23571392.4114   23571392.6184
   4205487.79544   3277003.35444  22173636.2804   22173635.9204
 -23398326.81644 -18232450.05944  20638360.6434   20638360.1764
 -10401005.08344  -8104674.35444  22403209.0214   22403209.1014
 -20397957.83844 -15894493.51744  20451084.4644   20451084.7424
 -12403367.47544  -9664957.50744  22547302.7614   22547303.5154
  -2025303.80544                  24338240.9814
 96  3 23  1  1 30.0000000  0  8G 6G16G 4G 5G20G24G 9G 7
  -3754789.92544  -2925805.79944  24329779.9044   24329779.4344
  -4046610.89344  -3153198.97644  23553653.0064   23553656.3444
   4288025.07844   3341318.10844  22189342.6764   22189342.2784
 -23441985.06344 -18266469.46744  20630052.6284   20630052.2704
 -10488546.48444  -8172888.40144  22386550.5884   22386550.3144
 -20378349.85444 -15879214.56244  20454815.8064   20454815.8854
 -12323020.26844  -9602349.32744  22562592.9764   22562593.6134
  -1954969.28544                  24351626.5534
 96  3 23  1  2  0.0000000  0  8G 6G16G 4G 5G20G24G 9G 7
  -3824391.61444  -2980040.78344  24316534.3084   24316533.9094
  -4139814.91544  -3225825.44044  23535916.0014   23535919.1224
   4370801.48144   3405819.19344  22205094.0984   22205094.0544
 -23485268.59244 -18300196.88344  20621816.0004   20621815.6174
 -10575924.63444  -8240975.25944  22369923.0444   22369923.4804
 -20358358.87044 -15863637.16344  20458619.7714   20458620.1504
 -12242422.49944  -9539545.89744  22577930.9754   22577930.3914
  -1884633.56944                  24365009.9214
 96  3 23  1  2 30.0000000  0  8G 6G16G 4G 5G20G24G 9G 7
  -3893949.63444  -3034241.74244  24303296.9914   24303298.7374
  -4232965.71044  -3298410.39244  23518189.7784   23518191.3024
   4453835.41144   3470520.94844  22220895.2534   22220895.0964
 -23528147.35544 -18333608.90144  20613656.5644   20613655.9754
 -10663138.55044  -8308934.13844  22353326.6524   22353327.0804
 -20337951.39344 -15847735.22944  20462503.3404   20462503.4424
 -12161558.84444  -9476535.27844  22593318.6544   22593317.7524
  -1814277.12544                  24378399.1684
 96  3 23  1  3  0.0000000  0  8G 6G16G 4G 5G20G24G 9G 7
  -3963472.88844  -3088415.56544  24290067.9224   24290068.5234
  -4326063.40644  -3370953.98744  23500474.8474   23500476.6314
   4537115.55744   3535414.55744  22236742.9444   22236742.1084
 -23570600.62144 -18366689.36444  20605577.9374   20605577.5844
 -10750181.21644  -8376759.55744  22336763.1204   22336763.5824
 -20317108.44944 -15831493.96944  20466469.6504   20466469.5884
 -12080438.46844  -9413324.62444  22608755.0984   22608754.9224
  -1743901.33144                  24391791.1244
 96  3 23  1  3 30.0000000  0  8G 6G16G 4G 5G20G24G 9G 7
  -4032961.11944  -3142562.12744  24276844.8504   24276846.6734
  -4419080.95244  -3443435.13344  23482773.8134   23482774.7084
   4620617.84144   3600481.26344  22252632.9724   22252632.2924
 -23612624.43544 -18399435.18744  20597581.1474   20597580.7244
 -10837053.81944  -8444452.45844  22320232.0164   22320232.5904
 -20295820.04644 -15814905.59944  20470520.5804   20470520.5704
 -11999085.86044  -9349933.01444  22624235.0964   22624235.9034
  -1673510.29444                  24405186.9214
 96  3 23  1  4  0.0000000  0  8G 6G16G 4G 5G20G24G 9G 7
  -4102416.14844  -3196682.82744  24263628.4584   24263628.4604
  -4511986.76444  -3515829.21144  23465093.5314   23465095.1134
   4704355.32444   3665731.24244  22268568.1664   22268568.0874
 -23654228.62444 -18431854.03044  20589663.8314   20589663.5314
 -10923738.33144  -8511998.81944  22303736.1474   22303736.0694
 -20274053.54444 -15797944.68544  20474662.6994   20474662.6914
 -11917505.76044  -9286364.15344  22639759.0754   22639759.9974
  -1603095.80744                  24418585.5344
 96  3 23  1  4 30.0000000  0  8G 6G16G 4G 5G20G24G 9G 7
  -4171844.47044  -3250782.72044  24250416.1504   24250417.7394
  -4604770.89344  -3588128.46344  23447437.3864   23447440.4524
   4788320.55344   3731158.68444  22284545.9704   22284545.7624
 -23695416.57744 -18463948.53144  20581826.2724   20581825.7354
 -11010201.99844  -8579373.08744  22287283.0964   22287283.1814
 -20251777.32144 -15780586.58644  20478901.7554   20478901.7104
 -11835704.80444  -9222623.18444  22655325.6694   22655326.0444
  -1532638.07944                  24431993.5674
 96  3 23  1  5  0.0000000  0  8G 6G16G 4G 5G20G24G 9G 7
  -4241230.14344  -3304849.45244  24237212.0994   24237212.6784
  -4697416.69244  -3660319.90044  23429807.8004   23429809.9994
   4872526.01044   3796773.31844  22300568.8624   22300568.2874
 -23736185.81844 -18495716.76744  20574068.2044   20574067.5724
 -11096401.48944  -8646541.48644  22270879.8824   22270880.0584
 -20228978.91444 -15762821.58844  20483240.0094   20483240.1864
 -11753670.85944  -9158700.66544  22670937.0514   22670936.8764
  -1462103.69444                  24445416.5564
 96  3 23  1  5 30.0000000  0  8G 6G16G 4G 5G20G24G 9G 7
  -4310582.04044  -3358889.74744  24224014.6524   24224017.2234
  -4789936.32544  -3732413.07944  23412201.4094   23412203.7704
   4956967.63744   3862571.96944  22316637.9594   22316638.0484
 -23776579.76244 -18527192.55744  20566381.6034   20566380.9854
 -11182341.62644  -8713507.80444  22254525.9744   22254526.6104
 -20205677.06844 -15744664.30344  20487674.0684   20487674.3974
 -11671410.18144  -9094601.46444  22686590.9874   22686591.2064
  -1391507.23144                  24458849.2704
 96  3 23  1  6  0.0000000  0  8G 6G16G 4G 5G20G24G 9G 7
  -4379913.93744  -3412914.50244  24210820.8754   24210822.6624
  -4882367.72944  -3804437.47244  23394612.4424   23394615.1834
   5041629.86044   3928542.53044  22332748.8744   22332748.6174
 -23816613.22644 -18558387.46244  20558763.2174   20558762.8074
 -11268037.44244  -8780283.72644  22238218.2434   22238219.0334
 -20181897.84644 -15726135.03644  20492199.1824   20492199.3504
 -11588939.96144  -9030338.98644  22702284.1404   22702284.3024
  -1320882.91144                  24472288.9924
 96  3 23  1  6 30.0000000  0  8G 6G16G 4G 5G20G24G 9G 7
  -4449203.36744  -3466906.18344  24197634.9174   24197635.9334
  -4974701.35644  -3876385.69744  23377042.3924   23377043.8514
   5126516.69644   3994688.11544  22348902.9054   22348902.3444
 -23856267.91244 -18589287.21344  20551217.1744   20551216.9444
 -11353483.96744  -8846865.39744  22221958.4064   22221958.8324
 -20157667.00844 -15707253.86044  20496810.2574   20496810.4904
 -11506243.79644  -8965900.45744  22718021.0214   22718021.8604
  -1250222.35344                  24485735.7484
 96  3 23  1  7  0.0000000  0  8G 6G16G 4G 5G20G24G 9G 7
  -4518422.21444  -3520842.91144  24184463.2744   24184465.9744
  -5066899.83244  -3948228.59644  23359498.0434   23359499.5134
   5211650.86644   4061026.42944  22365103.1464   22365101.9954
 -23895513.78544 -18619868.40844  20543749.0254   20543748.4734
 -11438662.73444  -8913238.43444  22205749.4154   22205750.0724
 -20132996.66344 -15688030.21044  20501504.8634   20501504.9634
 -11423283.00144  -8901255.71044  22733807.4864   22733808.1094
  -1179536.33544                  24499186.6294
 96  3 23  1  7 30.0000000  0  8G 6G16G 4G 5G20G24G 9G 7
  -4587598.16744  -3574746.16744  24171299.9704   24171299.8674
  -5158968.44144  -4019970.31844  23341976.6784   23341978.7004
   5297001.25044   4127533.21144  22381344.9624   22381344.7854
 -23934345.99244 -18650127.26344  20536359.3994   20536358.9924
 -11523608.73444  -8979430.08744  22189584.5954   22189585.6114
 -20107906.47744 -15668479.40644  20506279.3744   20506279.3894
 -11340057.39344  -8836404.62344  22749644.4074   22749644.9604
  -1108866.04844                  24512636.1244
 96  3 23  1  8  0.0000000  0  8G 6G16G 4G 5G20G24G 9G 7
  -4656750.22344  -3628630.80044  24158140.0884   24158140.7344
  -5250906.48744  -4091610.29744  23324481.4064   23324483.4864
   5382554.49844   4194198.06244  22397625.5234   22397624.7774
 -23972747.32644 -18680050.37644  20529051.9044   20529051.3814
 -11608337.20744  -9045452.24844  22173461.4864   22173461.6764
 -20082404.92744 -15648608.06144  20511131.9674   20511132.0514
 -11256581.13544  -8771358.21944  22765529.7384   22765529.4504
  -1038208.76544                  24526079.9274
 96  3 23  1  8 30.0000000  0  8G 6G16G 4G 5G20G24G 9G 7
  -4725881.70644  -3682499.46044  24144984.9654   24144986.0084
  -5342706.16144  -4163142.45844  23307012.7104   23307013.7104
   5468313.00444   4261022.86844  22413944.7514   22413943.7044
 -24010709.05944 -18709630.94844  20521828.0594   20521827.5784
 -11692839.38444  -9111298.07344  22157381.4084   22157381.8394
 -20056488.26844 -15628413.25144  20516063.8734   20516064.0774
 -11172860.71444  -8706121.55544  22781461.1594   22781461.2054
   -967537.78244                  24539529.1674
 96  3 23  1  9  0.0000000  0  8G 6G16G 4G 5G20G24G 9G 7
  -4794992.44144  -3736351.89444  24131834.4184   24131834.1024
  -5434384.75544  -4234580.27944  23289567.0564   23289568.5224
   5554283.23644   4328012.64644  22430303.7544   22430304.3264
 -24048215.54944 -18738856.78144  20514690.9304   20514690.4334
 -11777104.12144  -9176958.86744  22141346.4514   22141346.7374
 -20030121.77644 -15607867.92444  20521081.2134   20521081.4494
 -11088898.45144  -8640696.45144  22797438.4114   22797439.4004
   -896843.81644                  24552980.3174
 96  3 23  1  9 30.0000000  0  8G 6G16G 4G 5G20G24G 9G 7
  -4864118.58544  -3790216.37444  24118680.1724   24118680.5744
  -5525995.11544  -4305964.90844  23272133.9284   23272135.6374
   5640435.32444   4395144.13944  22446697.7404   22446697.1834
 -24085310.06144 -18767761.59344  20507632.1044   20507631.6184
 -11861178.02544  -9242470.96244  22125347.3544   22125347.7904
 -20003330.97444 -15586991.96844  20526179.2734   20526179.6164
 -11004757.25944  -8575131.93144  22813449.9014   22813450.9924
   -826137.57144                  24566436.3514
 96  3 23  1 10  0.0000000  0  8G 6G16G 4G 5G20G24G 9G 7
  -4933226.56244  -3844066.70544  24105529.5784   24105531.7084
  -5617530.97344  -4377291.49944  23254715.3604   23254716.4934
   5726795.60244   4462437.85444  22463131.0764   22463131.2954
 -24121976.26944 -18796332.65644  20500654.4214   20500654.0164
 -11945037.31844  -9307815.83844  22109389.6034   22109389.7834
 -19976100.67744 -15565773.54644  20531360.9994   20531361.0374
 -10920449.29944  -8509437.45744  22829494.1624   22829494.7514
   -755381.62944                  24579901.6434
 96  3 23  1 10 30.0000000  0  8G 6G16G 4G 5G20G24G 9G 7
  -5002254.88944  -3897854.98344  24092392.0104   24092395.0924
  -5708942.20444  -4448520.97944  23237319.6844   23237321.1534
   5813400.43044   4529922.13044  22479611.8414   22479611.5274
 -24158163.50844 -18824530.50044  20493768.3494   20493767.8904
 -12028636.52444  -9372958.04744  22093480.8984   22093480.8094
 -19948386.35044 -15544177.95744  20536634.9674   20536635.1804
 -10835924.48844  -8443574.00744  22845578.6704   22845579.1014
   -684542.16144                  24593381.9744
 96  3 23  1 11  0.0000000  0  8G 6G16G 4G 5G20G24G 9G 7
  -5071194.57344  -3951574.16144  24079273.6544   24079272.8894
  -5800192.47044  -4519625.04044  23219955.0894   23219957.4444
   5900258.86844   4597604.01644  22496141.3914   22496140.8684
 -24193865.17244 -18852349.97144  20486974.6634   20486974.2964
 -12111964.16644  -9437888.66344  22077625.1204   22077625.1744
 -19920173.38244 -15522193.82044  20542003.7884   20542003.7134
 -10751162.76344  -8377525.94844  22861708.0434   22861708.3824
   -613618.21544                  24606877.5374
 96  3 23  1 11 30.0000000  0  7G 6G16G 4G 5G20G24G 9
  -5140048.55244  -4005226.58944  24066171.2894   24066172.2174
  -5891253.67244  -4590581.75644  23202626.8244   23202629.6774
   5987348.78144   4665466.27844  22512713.2954   22512712.7334
 -24229104.25044 -18879808.98744  20480268.6694   20480268.1624
 -12195033.02644  -9502617.61744  22061816.6044   22061817.2914
 -19891476.25344 -15499832.41144  20547464.7944   20547464.8564
 -10666179.93244  -8311305.59144  22877879.8184   22877879.4014
 96  3 23  1 12  0.0000000  0  7G 6G16G 4G 5G20G24G 9
  -5208842.47044  -4058832.18344  24053081.2944   24053082.2304
  -5982134.18344  -4661397.67644  23185333.5834   23185336.3734
   6074630.42344   4733477.93344  22529323.0174   22529322.4734
 -24263917.23044 -18906935.98044  20473644.0964   20473643.4434
 -12277855.12944  -9567154.28444  22046055.6494   22046056.1754
 -19862318.09644 -15477111.76844  20553012.9574   20553013.2584
 -10581004.42444  -8244935.09344  22894088.1614   22894088.6624
 96  3 23  1 12 30.0000000  0  7G 6G16G 4G 5G20G24G 9
  -5277591.12044  -4112402.51644  24039998.9274   24039999.2054
  -6072822.12144  -4732063.54144  23168075.9744   23168077.7844
   6162104.12544   4801639.24744  22545968.1784   22545968.0744
 -24298328.76444 -18933750.15544  20467095.7384   20467095.2924
 -12360411.18044  -9631483.65344  22030346.5344   22030346.9984
 -19832703.32844 -15454035.31744  20558648.4814   20558648.6044
 -10495630.49644  -8178410.00244  22910334.5674   22910335.8164
 96  3 23  1 13  0.0000000  0  8G 6G16G 4G 5G20G24G 9G 7
  -5346266.54444  -4165915.80544  24026929.6694   24026932.8714
  -6163284.40544  -4802553.58444  23150861.4144   23150863.0994
   6249810.80044   4869982.08944  22562658.3154   22562657.6914
 -24332323.53644 -18960239.58244  20460626.6484   20460626.0184
 -12442659.20844  -9695573.00244  22014695.0404   22014695.6374
 -19802606.88144 -15430583.53744  20564375.9144   20564376.0924
 -10410033.80044  -8111711.32444  22926623.2734   22926624.5524
        -1.18154                  24660950.9194
 96  3 23  1 13 30.0000000  0  8G 6G16G 4G 5G20G24G 9G 7
  -5414905.34344  -4219400.48144  24013868.5144   24013869.3404
  -6253573.99544  -4872909.04644  23133680.0074   23133681.3724
   6337714.75344   4938478.67044  22579385.7674   22579385.2414
 -24365926.79244 -18986423.93344  20454232.1874   20454231.7954
 -12524636.14244  -9759451.11544  21999095.4024   21999094.9444
 -19772083.23444 -15406798.87144  20570184.1604   20570184.2794
 -10324255.02744  -8044870.75444  22942946.2494   22942947.7854
     71120.45144                  24674486.9854
 96  3 23  1 14  0.0000000  0  8G 6G16G 4G 5G20G24G 9G 7
  -5483533.16844  -4272876.66444  24000809.8064   24000810.6394
  -6343713.55644  -4943147.59844  23116526.9384   23116528.0544
   6425817.34844   5007130.01744  22596150.9714   22596150.3604
 -24399123.00044 -19012291.09644  20447915.1654   20447914.6924
 -12606345.10144  -9823120.39644  21983545.9984   21983547.3934
 -19741150.91744 -15382695.76044  20576070.5574   20576070.7074
 -10238292.94244  -7977887.35644  22959303.7474   22959305.9064
    142262.75644                  24688024.7814
 96  3 23  1 14 30.0000000  0  8G 6G16G 4G 5G20G24G 9G 7
  -5552190.92244  -4326376.18344  23987743.8044   23987743.2344
  -6433739.25244  -5013297.43544  23099395.4424   23099396.1844
   6514081.22544   5075907.05044  22612947.3504   22612946.8414
 -24431919.95544 -19037847.16044  20441674.1824   20441673.7814
 -12687830.87444  -9886615.77844  21968040.2974   21968040.6824
 -19709852.95144 -15358307.73344  20582026.3094   20582026.5774
 -10152163.95544  -7910773.90044  22975692.9794   22975694.2004
    213393.54944                  24701561.1284
 96  3 23  1 15  0.0000000  0  8G 6G16G 4G 5G20G24G 9G 7
  -5620846.00244  -4379873.60444  23974679.3614   23974678.9834
  -6523638.53444  -5083348.76444  23082288.0544   23082290.3224
   6602509.09344   5144811.88144  22629775.0314   22629774.4254
 -24464258.34244 -19063045.89544  20435520.2404   20435519.8164
 -12769091.62944  -9949935.82544  21952576.8794   21952577.0214
 -19678176.99444 -15333625.16144  20588054.1454   20588054.1064
 -10065844.44744  -7843511.97744  22992119.7564   22992120.2734
    284526.93244                  24715097.5434
 96  3 23  1 15 30.0000000  0  7G 6G16G 4G 5G20G24G 9
  -5689509.46644  -4433377.52944  23961612.5754   23961612.9524
  -6613425.82544  -5153312.81544  23065202.1344   23065203.1724
   6691080.58944   5213828.61144  22646628.7954   22646629.2064
 -24496130.36144 -19087881.22544  20429455.3184   20429454.6774
 -12850123.67944 -10013077.66744  21937157.5924   21937157.3124
 -19646131.98144 -15308655.01844  20594151.9754   20594152.3284
  -9979349.92644  -7776113.68244  23008579.4904   23008578.9634
 96  3 23  1 16  0.0000000  0  7G 6G16G 4G 5G20G24G 9
  -5758141.36044  -4486856.82344  23948552.9904   23948554.5634
  -6703060.43744  -5223157.92044  23048145.2764   23048146.7614
   6779810.06744   5282968.44544  22663513.8304   22663513.5234
 -24527525.27444 -19112344.78844  20423481.2584   20423480.6884
 -12930884.98944 -10076008.53744  21921788.7384   21921789.3214
 -19613689.50244 -15283375.15944  20600325.4394   20600325.5324
  -9892660.04444  -7708563.15444  23025076.2144   23025076.4494
 96  3 23  1 16 30.0000000  0  7G 6G16G 4G 5G20G24G 9
  -5826678.70144  -4540262.49044  23935510.2674   23935510.8794
  -6792507.78344  -5292857.06844  23031123.5624   23031125.7864
   6868730.94944   5352257.44344  22680434.5144   22680434.0414
 -24558420.63744 -19136419.09044  20417601.8544   20417601.4094
 -13011329.22044 -10138692.33744  21906480.4114   21906480.8414
 -19580811.64844 -15257756.04744  20606581.9034   20606582.2234
  -9805757.37544  -7640846.82044  23041613.0684   23041613.1734
 96  3 23  1 17  0.0000000  0  7G 6G16G 4G 5G20G24G 9
  -5895148.82144  -4593615.76844  23922481.1734   23922480.7254
  -6881800.45844  -5362435.70344  23014131.5774   23014133.1654
   6957821.60944   5421678.74844  22697388.2514   22697388.4664
 -24588860.81844 -19160138.71144  20411809.3984   20411808.9184
 -13091478.26244 -10201146.10744  21891228.4174   21891229.2464
 -19547526.25844 -15231819.37644  20612915.8644   20612916.2154
  -9718695.54444  -7573006.45744  23058180.1254   23058181.0924
 96  3 23  1 17 30.0000000  0  7G 6G16G 4G 5G20G24G 9
  -5963546.40844  -4646912.51844  23909465.4704   23909464.9154
  -6970910.66344  -5431872.17544  22997174.7844   22997176.0434
   7047120.53644   5491262.31044  22714381.4484   22714381.9314
 -24618849.01444 -19183506.13444  20406102.9434   20406102.5374
 -13171299.21544 -10263344.23544  21876039.4094   21876039.2424
 -19513800.90144 -15205539.87344  20619333.8154   20619333.7434
  -9631460.98344  -7505031.52944  23074779.5684   23074781.5254
 96  3 23  1 18  0.0000000  0  8G 6G16G 4G 5G20G24G 9G 7
  -6031874.62844  -4700155.22744  23896463.0514   23896464.1824
  -7059832.41344  -5501161.77044  22980253.2194   22980255.5754
   7136630.41944   5561010.27744  22731415.3494   22731414.2934
 -24648385.65844 -19206521.69844  20400482.2044   20400481.7414
 -13250804.84644 -10325296.66144  21860910.0094   21860910.4734
 -19479637.93244 -15178919.37244  20625834.7724   20625835.1294
  -9544056.16644  -7436923.92244  23091412.2884   23091413.2434
         0.14654                  24796471.8454
 96  3 23  1 18 30.0000000  0  8G 6G16G 4G 5G20G24G 9G 7
  -6100181.90444  -4753381.62844  23883464.1734   23883465.5124
  -7148599.53044  -5570330.89444  22963362.0624   22963363.4224
   7226318.39844   5630897.01344  22748482.1174   22748481.3094
 -24677484.61044 -19229196.20044  20394944.8454   20394944.2174
 -13330036.89144 -10387035.89644  21845832.4404   21845832.8984
 -19445065.64744 -15151979.92744  20632413.5734   20632413.6684
  -9456517.51844  -7368712.02744  23108071.3834   23108073.1124
     71488.03344                  24810075.1114
 96  3 23  1 19  0.0000000  0  8G 6G16G 4G 5G20G24G 9G 7
  -6168462.76644  -4806587.37744  23870470.8434   23870470.5314
  -7237170.14744  -5639346.91044  22946508.1594   22946509.8884
   7316189.53444   5700926.44644  22765583.9434   22765582.7944
 -24706116.59244 -19251506.82744  20389496.2164   20389495.8124
 -13408978.05444 -10448548.48144  21830810.4554   21830810.9554
 -19410072.08144 -15124712.21044  20639072.5344   20639072.8564
  -9368815.06044  -7300372.47144  23124760.7314   23124760.7444
    143028.70244                  24823688.3874
 96  3 23  1 19 30.0000000  0  8G 6G16G 4G 5G20G24G 9G 7
  -6236712.68444  -4859769.08244  23857483.1904   23857484.6064
  -7325533.69644  -5708201.56444  22929691.9174   22929692.3754
   7406219.88444   5771079.96444  22782716.4544   22782715.5704
 -24734279.95544 -19273452.30644  20384137.0844   20384136.4174
 -13487630.75044 -10509836.28544  21815843.1624   21815843.5184
 -19374666.75744 -15097123.64444  20645809.8874   20645810.3574
  -9280960.60544  -7231914.50144  23141478.5084   23141478.5964
    214597.42444                  24837307.3474
 96  3 23  1 20  0.0000000  0  8G 6G16G 4G 5G20G24G 9G 7
  -6304942.32444  -4912934.93944  23844499.3414   23844501.2594
  -7413698.88144  -5776901.65044  22912915.0574   22912915.3764
   7496366.86944   5841324.35544  22799870.5934   22799870.2044
 -24761984.33344 -19295040.13244  20378865.1694   20378864.7004
 -13566018.56644 -10570917.68044  21800927.0664   21800927.7194
 -19338871.21544 -15069231.00844  20652621.7424   20652621.9634
  -9192978.15444  -7163356.77644  23158221.0074   23158221.0284
    286161.82844                  24850925.7324
 96  3 23  1 20 30.0000000  0  8G20G 6G16G 4G 5G24G 9G 7
 -13644133.57544 -10631786.50144  21786062.3344   21786062.1304
  -6373136.62544  -4966073.28344  23831522.4294   23831523.0344
  -7501643.39644  -5845429.78944  22896180.1414   22896181.0644
   7586644.82344   5911670.80344  22817049.7664   22817049.0944
 -24789220.13544 -19316262.82944  20373682.2794   20373681.6184
 -19302664.22444 -15041017.75944  20659511.6084   20659511.9104
  -9104852.57644  -7094687.51744  23174991.0484   23174992.5484
    357736.45744                  24864545.8534
 96  3 23  1 21  0.0000000  0  8G 6G16G 4G 5G20G24G 9G 7
  -6441290.10444  -5019179.81444  23818553.0224   23818554.4714
  -7589365.14944  -5913784.34344  22879486.5754   22879487.6724
   7677065.71144   5982128.63644  22834256.4444   22834255.6274
 -24815995.74244 -19337126.93744  20368586.9184   20368586.5814
 -13721975.54844 -10692442.57244  21771249.0894   21771249.4854
 -19266043.40544 -15012482.05344  20666480.4314   20666480.7664
  -9016593.54644  -7025914.28644  23191785.3154   23191785.7204
    429331.44544                  24878170.7734
 96  3 23  1 21 30.0000000  0  8G20G 6G16G 4G 5G24G 9G 7
 -13799527.79144 -10752872.87044  21756491.3004   21756491.6814
  -6509408.55544  -5072259.02544  23805590.7584   23805592.7414
  -7676868.40744  -5981968.64944  22862835.4924   22862836.9774
   7767658.66944   6052720.54044  22851495.3744   22851494.4294
 -24842315.94544 -19357636.17944  20363578.6104   20363578.0144
 -19229000.83144 -14983617.70044  20673529.3704   20673529.5134
  -8928193.61744  -6957031.25944  23208607.6124   23208608.8504
    500975.77344    390370.75544  24891803.6964
 96  3 23  1 22  0.0000000  0  8G20G 6G16G 4G 5G24G 9G 7
 -13876779.04844 -10813068.64144  21741790.5554   21741790.7704
  -6577505.28644  -5125321.32644  23792632.8434   23792632.5104
  -7764154.05944  -6049983.39344  22846226.1474   22846227.7424
   7858441.20344   6123460.16844  22868770.9444   22868770.3444
 -24868181.86944 -19377791.44444  20358656.2644   20358655.6954
 -19191537.11344 -14954425.18944  20680658.4774   20680658.7774
  -8839631.97344  -6888022.21944  23225460.3444   23225461.2684
    572687.80744                  24905449.5754
 96  3 23  1 22 30.0000000  0  8G20G 6G16G 4G 5G24G 9G 7
 -13953729.97344 -10873030.37244  21727147.5124   21727148.0094
  -6645594.07444  -5178377.43444  23779674.5124   23779675.9794
  -7851236.03544  -6117839.44144  22829654.6344   22829655.0644
   7949411.70044   6194346.26644  22886081.8104   22886080.1234
 -24893601.99744 -19397599.33244  20353818.9524   20353818.5494
 -19153681.82244 -14924927.55644  20687862.0564   20687862.3354
  -8750923.59044  -6818898.83644  23242341.2004   23242341.8624
    644457.52244                  24919107.1214
 96  3 23  1 23  0.0000000  0  8G20G 6G16G 4G 5G24G 9G 7
 -14030345.26044 -10932730.58144  21712568.2074   21712568.4204
  -6713674.88644  -5231427.31044  23766719.6734   23766721.5104
  -7938114.50344  -6185536.89344  22813121.4934   22813122.5084
   8040557.62844   6265369.06744  22903426.1634   22903424.5974
 -24918561.64744 -19417048.40944  20349069.3864   20349068.9474
 -19115444.81244 -14895132.47544  20695138.2214   20695138.5884
  -8662065.90644  -6749659.12244  23259249.9544   23259250.5234
    716286.85344                  24932776.1824
 96  3 23  1 23 30.0000000  0  8G 6G16G 4G 5G20G24G 9G 7
  -6781745.66444  -5284469.39844  23753766.5824   23753766.0674
  -8024790.17444  -6253076.33044  22796627.8114   22796629.5094
   8131849.13844   6336505.29144  22920798.1804   22920797.8464
 -24943052.01044 -19436131.80744  20344408.8504   20344408.3474
 -14106613.45644 -10992160.32144  21698054.9564   21698055.2734
 -19076831.90744 -14865044.49544  20702486.0344   20702486.3694
  -8573058.63144  -6680302.83644  23276188.1004   23276188.7334
    788155.46344                  24946451.1564
 96  3 23  1 24  0.0000000  0  8G 6G16G 4G 5G20G24G 9G 7
  -6849788.62444  -5337489.82044  23740818.0634   23740818.2494
  -8111252.40044  -6320449.44344  22780174.6014   22780176.1164
   8223251.91844   6407728.23944  22938191.9434   22938191.5754
 -24967053.98344 -19454834.63644  20339841.8224   20339841.1824
 -14182547.96644 -11051330.04144  21683605.1514   21683605.5574
 -19037839.63044 -14834660.90344  20709906.0924   20709906.3754
  -8483920.82044  -6610844.83044  23293150.2674   23293151.3564
    860028.67444                  24960128.6084
 96  3 23  1 24 30.0000000  0  8G20G 6G16G 4G 5G24G 9G 7
 -14258151.91944 -11110242.18444  21669217.8804   21669218.1414
  -6917782.08044  -5390471.66244  23727879.3294   23727880.0104
  -8197492.88744  -6387649.76644  22763763.3714   22763763.8114
   8314759.83644   6479033.09244  22955605.1014   22955604.7564
 -24990555.98944 -19473147.88744  20335369.0684   20335368.6614
 -18998461.78244 -14803976.86244  20717399.3044   20717399.7054
  -8394665.00344  -6541294.87544  23310135.3064   23310137.0624
    931906.56344                  24973806.4534
 96  3 23  1 25  0.0000000  0  7G20G 6G16G 4G 5G24G 9
 -14333449.09744 -11168915.28644  21654889.0154   21654889.3754
  -6985734.52544  -5443421.54444  23714948.0974   23714949.3324
  -8283519.63144  -6454683.53544  22747393.2784   22747394.2224
   8406360.32044   6550410.09644  22973036.3934   22973035.7194
 -25013585.07844 -19491092.62644  20330987.0774   20330986.5084
 -18958700.07944 -14772993.71044  20724966.0334   20724966.3224
  -8305312.61744  -6471669.67644  23327138.4744   23327139.9214
 96  3 23  1 25 30.0000000  0  7G20G 6G16G 4G 5G24G 9
 -14408451.94144 -11227359.04344  21640616.6844   21640616.6934
  -7053632.65644  -5496329.13344  23702027.2864   23702029.2054
  -8369310.27044  -6521533.33644  22731067.9444   22731068.5644
   8498081.18844   6621880.87944  22990490.0484   22990490.4614
 -25036138.72144 -19508666.89444  20326695.0784   20326694.5494
 -18918542.58544 -14741702.15244  20732607.5744   20732607.6964
  -8215851.99944  -6401960.13544  23344162.5904   23344163.7664
 96  3 23  1 26  0.0000000  0  7G20G 6G16G 4G 5G24G 9
 -14483151.56444 -11285566.52244  21626401.7494   21626402.0644
  -7121474.17744  -5549192.60644  23689117.8604   23689118.1494
  -8454849.87744  -6588187.51144  22714789.9394   22714790.9604
   8589959.12544   6693474.06544  23007973.8874   23007973.3284
 -25058209.80744 -19525865.13444  20322495.0754   20322494.6494
 -18877986.07644 -14710099.67444  20740325.2174   20740325.3394
  -8126267.88344  -6332154.36944  23361209.8984   23361210.9644
 96  3 23  1 26 30.0000000  0  7G20G 6G16G 4G 5G24G 9
 -14557519.60344 -11343515.60644  21612250.1794   21612250.7514
  -7189261.25844  -5602013.68244  23676218.4124   23676218.5744
  -8540139.82544  -6654647.16844  22698560.0824   22698560.4444
   8682020.70244   6765210.34444  23025492.7174   23025492.6294
 -25079808.85844 -19542695.55944  20318385.0884   20318384.5194
 -18837028.28044 -14678184.50544  20748118.8754   20748119.2174
  -8036545.75144  -6262241.05144  23378283.1554   23378283.5964
 96  3 23  1 27  0.0000000  0  7G20G 6G16G 4G 5G24G 9
 -14631549.72444 -11401201.39344  21598162.5814   21598163.0824
  -7257017.30344  -5654810.57544  23663324.8384   23663324.4364
  -8625190.80144  -6720920.60544  22682375.2534   22682375.7144
   8774251.80244   6837078.71744  23043044.0254   23043043.6244
 -25100934.16144 -19559156.82844  20314364.9354   20314364.4524
 -18795680.30344 -14645965.30244  20755987.5534   20755987.6724
  -7946683.52144  -6192218.57244  23395383.0944   23395384.1694
 96  3 23  1 27 30.0000000  0  7G 6G16G 4G 5G20G24G 9
  -7324753.52144  -5707592.01744  23650434.2504   23650434.7434
  -8710015.77044  -6787017.92944  22666233.5094   22666234.8494
   8866629.88844   6909061.64344  23060623.1864   23060623.3184
 -25121581.35144 -19575245.54244  20310435.8494   20310435.4204
 -14705238.51544 -11458621.21844  21584139.9814   21584140.3514
 -18753964.68444 -14613459.62044  20763925.6484   20763925.8954
  -7856684.29744  -6122089.34744  23412509.5864   23412510.9764
 96  3 23  1 28  0.0000000  0  7G20G 6G16G 4G 5G24G 9
 -14778575.24744 -11515766.70744  21570184.1654   21570184.5004
  -7392468.09744  -5760356.59144  23637548.9634   23637549.3754
  -8794613.83144  -6852938.45744  22650134.7684   22650135.2894
   8959138.09144   6981145.93644  23078226.2214   23078226.7534
 -25141736.25844 -19590950.65944  20306600.6944   20306600.2364
 -18711878.00944 -14580664.80444  20771934.4824   20771934.7414
  -7766567.17844  -6051868.25444  23429658.0424   23429660.8214
 96  3 23  1 28 30.0000000  0  7G20G 6G16G 4G 5G24G 9
 -14851574.94944 -11572649.56844  21556292.7834   21556292.8634
  -7460161.10744  -5813104.37344  23624667.2694   23624669.0504
  -8878992.00844  -6918687.64744  22634078.4194   22634079.8594
   9051738.21344   7053301.87044  23095847.9824   23095847.2284
 -25161403.85944 -19606276.05544  20302858.0054   20302857.5724
 -18669441.71844 -14547597.56444  20780009.8524   20780009.9534
  -7676353.83844  -5981572.18144  23446825.4654   23446827.0614
 96  3 23  1 29  0.0000000  0  7G 6G16G 4G 5G20G24G 9
  -7527813.33544  -5865820.38544  23611794.3264   23611794.2464
  -8963116.26544  -6984238.98244  22618069.9324   22618070.6514
   9144437.15044   7125534.79244  23113487.5894   23113485.8514
 -25180556.05444 -19621199.83644  20299213.2874   20299212.7434
 -14924240.97744 -11629272.43144  21542465.2004   21542465.0214
 -18626655.75344 -14514257.85044  20788151.6324   20788151.6994
  -7586036.35044  -5911194.94244  23464012.6134   23464013.5284
 96  3 23  1 29 30.0000000  0  7G20G 6G16G 4G 5G24G 9
 -14996586.55944 -11685645.59544  21528698.6664   21528698.6104
  -7595420.55844  -5918501.33444  23598929.0664   23598929.7344
  -9046977.96544  -7049585.71644  22602111.0914   22602112.0074
   9237240.70744   7197849.25744  23131147.7614   23131146.9134
 -25199206.80044 -19635732.88144  20295664.4294   20295663.8164
 -18583518.47544 -14480644.37944  20796360.5324   20796360.8034
  -7495644.49844  -5840759.75744  23481214.0794   23481214.0804
 96  3 23  1 30  0.0000000  0  7G20G 6G16G 4G 5G24G 9
 -15068596.67244 -11741757.36644  21514995.2194   21514995.3554
  -7662972.89444  -5971139.51444  23586073.8504   23586075.4654
  -9130548.72344  -7114705.74344  22586208.5944   22586209.9654
   9330166.75344   7270259.16544  23148831.3004   23148830.2054
 -25217344.76844 -19649866.36044  20292212.6114   20292212.0424
 -18540010.81044 -14446742.30344  20804639.4774   20804639.8384
  -7405177.46144  -5770266.00744  23498429.0264   23498429.6424
 96  3 23  1 30 30.0000000  0  7G20G 6G16G 4G 5G24G 9
 -15140271.49144 -11797607.86144  21501355.6954   21501356.3474
  -7730468.56744  -6023733.56944  23573230.1844   23573231.1054
  -9213835.54844  -7179604.53144  22570359.4804   22570360.6614
   9423213.79144   7342763.34044  23166537.1794   23166536.2134
 -25234994.37744 -19663619.30244  20288854.0634   20288853.6154
 -18496147.09244 -14412562.77644  20812986.7344   20812986.5454
  -7314628.31244  -5699708.26844  23515659.7844   23515660.9684
 96  3 23  1 31  0.0000000  0  7G 6G16G 4G 5G20G24G 9
  -7797927.14044  -6076298.66644  23560393.0104   23560393.1414
  -9296849.87644  -7244290.98044  22554562.2844   22554562.5014
   9516386.24944   7415365.24044  23184267.4794   23184266.1054
 -25252168.36344 -19677001.62744  20285586.1314   20285585.7054
 -15211615.94344 -11853200.92144  21487779.8794   21487780.0464
 -18451906.52644 -14378089.60144  20821405.3924   20821405.6714
  -7224005.88744  -5629093.42544  23532903.9654   23532904.9224
 96  3 23  1 31 30.0000000  0  7G 6G16G 4G 5G20G24G 9
  -7865354.26544  -6128839.27444  23547562.9304   23547562.3824
  -9379595.80144  -7308768.27744  22538816.4854   22538817.8284
   9609679.18144   7488061.02944  23202020.1864   23202018.4284
 -25268861.81244 -19690009.50844  20282409.4074   20282408.7524
 -15282606.05744 -11908517.88344  21474270.8194   21474270.7794
 -18407269.20344 -14343307.27144  20829899.5234   20829899.8714
  -7133306.89144  -5558418.93144  23550163.1474   23550164.6054
 96  3 23  1 32  0.0000000  0  7G20G 6G16G 4G 5G24G 9
 -15353243.21544 -11963559.80744  21460828.8244   21460829.3254
  -7932762.86244  -6181365.43844  23534734.8154   23534734.0874
  -9462084.82844  -7373045.39644  22523119.1894   22523120.6144
   9703066.93044   7560830.70944  23219791.4274   23219791.4084
 -25285080.04144 -19702647.08744  20279323.1754   20279322.6474
 -18362265.89644 -14308239.75744  20838463.2774   20838463.4554
  -7042526.93544  -5487681.33244  23567439.1944   23567440.9644
 96  3 23  1 32 30.0000000  0  7G20G 6G16G 4G 5G24G 9
 -15423542.29044 -12018338.29044  21447451.4184   21447451.8274
  -8000163.20344  -6233885.16244  23521908.5674   23521909.1454
  -9544328.82144  -7437131.57644  22507468.7344   22507470.0224
   9796540.52244   7633667.24444  23237578.8924   23237578.0784
 -25300835.14944 -19714923.79544  20276325.0764   20276324.5874
 -18316903.26544 -14272892.25044  20847095.5854   20847095.7074
  -6951666.42744  -5416880.98944  23584729.3184   23584729.1494
 96  3 23  1 33  0.0000000  0  7G20G 6G16G 4G 5G24G 9
 -15493499.35744 -12072850.27444  21434138.7864   21434138.8914
  -8067569.78944  -6286409.72844  23509082.2834   23509081.7444
  -9626318.01944  -7501019.21744  22491866.9544   22491867.1774
   9890094.31044   7706566.31144  23255382.1884   23255381.6894
 -25316112.61244 -19726828.31244  20273417.7554   20273417.4504
 -18271178.19744 -14237262.32844  20855796.7144   20855796.9314
  -6860729.61044  -5346021.14144  23602034.4464   23602034.8194
 96  3 23  1 33 30.0000000  0  7G 6G16G 4G 5G20G24G 9
  -8134946.28744  -6338910.86744  23496260.1014   23496260.6854
  -9708007.83444  -7564673.56844  22476321.8994   22476322.5404
   9983742.81144   7779539.15544  23273202.3544   23273201.0724
 -25330882.34244 -19738337.19244  20270607.2764   20270606.8014
 -15563076.58244 -12127066.28344  21420898.5174   21420899.1004
 -18225094.71244 -14201353.11944  20864566.2594   20864566.2084
  -6769703.34044  -5275091.62444  23619356.2844   23619357.5464
 96  3 23  1 34  0.0000000  0  7G 6G16G 4G 5G20G24G 9
  -8202288.28444  -6391385.10944  23483445.1064   23483444.0904
  -9789396.07244  -7628092.92844  22460833.8804   22460834.9574
  10077477.96844   7852579.53844  23291039.1304   23291039.4614
 -25345151.14344 -19749455.73644  20267892.2384   20267891.6194
 -15632285.15744 -12180995.02344  21407728.8194   21407728.9284
 -18178675.70144 -14165182.45944  20873399.3554   20873399.7124
  -6678605.63244  -5204106.42944  23636690.3284   23636692.2544
 96  3 23  1 34 30.0000000  0  7G 6G16G 4G 5G20G24G 9
  -8269572.30744  -6443814.17344  23470641.7264   23470641.4984
  -9870457.40644  -7691257.55744  22445408.7344   22445409.4064
  10171328.01944   7925709.44644  23308898.4884   23308897.9054
 -25358884.39044 -19760156.96744  20265278.6274   20265278.1334
 -15701100.66344 -12234617.47844  21394633.7294   21394633.6014
 -18131888.48644 -14128724.88544  20882302.8114   20882302.9134
  -6587417.46044  -5133050.74644  23654043.4174   23654045.0234
 96  3 23  1 35  0.0000000  0  7G 6G16G 4G 5G20G24G 9
  -8336790.33644  -6496191.78144  23457850.9144   23457851.3424
  -9951195.32644  -7754170.17644  22430044.4374   22430045.6644
  10265283.49344   7998921.49944  23326777.4564   23326776.0734
 -25372060.02144 -19770423.69044  20262771.3754   20262770.9514
 -15769517.60044 -12287929.35844  21381613.9874   21381614.3644
 -18084745.98544 -14091990.46744  20891273.6974   20891274.0564
  -6496156.34244  -5061938.24644  23671410.1684   23671411.4944
 96  3 23  1 35 30.0000000  0  7G 6G16G 4G 5G20G24G 9
  -8403938.10344  -6548514.67744  23445073.1014   23445072.0174
 -10031636.93344  -7816851.90044  22414736.9374   22414738.4444
  10359335.42344   8072208.71244  23344674.8114   23344674.1904
 -25384685.54144 -19780261.75544  20260368.6334   20260368.0504
 -15837554.10144 -12340944.79744  21368667.3724   21368667.8654
 -18037273.96244 -14054999.27944  20900307.3744   20900307.6594
  -6404852.96544  -4990792.77644  23688785.3264   23688785.6454
 96  3 23  1 36  0.0000000  0  7G 6G16G 4G 5G20G24G 9
  -8471009.75044  -6600778.20944  23432308.9674   23432310.5864
 -10111787.42344  -7879306.78944  22399485.1404   22399485.8514
  10453509.09644   8145590.79344  23362595.7304   23362595.6404
 -25396756.80744 -19789667.93344  20258071.6834   20258071.2334
 -15905206.24544 -12393660.74644  21355793.6674   21355794.0814
 -17989451.50544 -14017735.02144  20909407.5514   20909407.7304
  -6313477.86944  -4919591.43844  23706173.5674   23706174.8434
 96  3 23  1 36 30.0000000  0  7G 6G16G 4G 5G20G24G 9
  -8538037.63644  -6653007.28644  23419553.9764   23419553.8654
 -10191686.66644  -7941565.89944  22384280.7104   22384281.3524
  10547780.86744   8219049.29644  23380535.1984   23380535.5994
 -25408313.06344 -19798672.80244  20255872.7734   20255872.1914
 -15972514.01144 -12446108.34744  21342985.4994   21342985.8384
 -17941294.14244 -13980209.80044  20918571.4614   20918571.8424
  -6222052.08744  -4848350.60944  23723570.5674   23723571.8264
 96  3 23  1 37  0.0000000  0  7G 6G16G 4G 5G20G24G 9
  -8605028.68944  -6705209.37244  23406805.6454   23406806.0674
 -10271344.06344  -8003636.55644  22369121.7674   22369122.8554
  10642140.32244   8292576.13744  23398490.7954   23398490.3274
 -25419382.56244 -19807298.38244  20253765.9944   20253765.5594
 -16039473.75844 -12498284.74944  21330243.5084   21330243.9274
 -17892812.18344 -13942431.64644  20927797.5314   20927797.3344
  -6130590.15144  -4777081.61044  23740974.9784   23740974.9114
 96  3 23  1 37 30.0000000  0  7G16G 6G 4G 5G20G24G 9
 -10350722.96444  -8065490.19644  22354016.9114   22354017.4794
  -8671976.61044  -6757376.67444  23394065.8484   23394066.6124
  10736611.29344   8366189.85944  23416468.0744   23416466.5624
 -25429971.99744 -19815549.88544  20251751.1224   20251750.4214
 -16106054.93544 -12550166.17744  21317573.4474   21317573.6934
 -17843981.89744 -13904382.06644  20937089.4154   20937089.7154
  -6039063.02844  -4705761.79744  23758391.6694   23758391.9154
 96  3 23  1 38  0.0000000  0  7G16G 6G 4G 5G20G24G 9
 -10429809.87744  -8127116.32244  22338967.1094   22338968.0874
  -8738907.34344  -6809530.42444  23381330.1014   23381329.9634
  10831164.04244   8439867.32844  23434461.2664   23434461.1704
 -25440092.06044 -19823435.64344  20249825.3564   20249824.7754
 -16172260.55844 -12601754.96344  21304974.9814   21304975.1954
 -17794803.55144 -13866061.27744  20946447.8314   20946448.1524
  -5947466.56944  -4634387.98744  23775822.3554   23775822.9524
 96  3 23  1 38 30.0000000  0  7G16G 6G 4G 5G20G24G 9
 -10508592.46844  -8188505.31044  22323975.2034   22323976.3044
  -8805823.54544  -6861672.86244  23368596.0814   23368595.7324
  10925787.42544   8513599.80944  23452467.4874   23452467.4114
 -25449726.67744 -19830943.13044  20247991.7894   20247991.1844
 -16238079.68244 -12653042.57544  21292450.0024   21292450.0674
 -17745294.50844 -13827482.80344  20955869.1424   20955869.2414
  -5855817.62444  -4562973.26844  23793262.7184   23793263.0454
 96  3 23  1 39  0.0000000  0  7G16G 6G 4G 5G20G24G 9
 -10587055.29944  -8249645.13544  22309044.0154   22309045.0034
  -8872719.13744  -6913799.23844  23355866.1484   23355868.2054
  11020477.91044   8587384.59944  23470486.5314   23470485.4164
 -25458850.40144 -19838052.52544  20246255.8734   20246255.3614
 -16303478.28244 -12704002.51544  21280005.0234   21280004.6924
 -17695458.46644 -13788649.52244  20965352.6784   20965352.7984
  -5764115.86744  -4491517.40544  23810712.5224   23810713.5074
 96  3 23  1 39 30.0000000  0  7G16G 6G 4G 5G20G24G 9
 -10665183.98144  -8310524.58344  22294176.7024   22294178.0154
  -8939593.63244  -6965909.19844  23343140.2654   23343140.5774
  11115220.06444   8661209.63644  23488515.5544   23488516.8794
 -25467463.41144 -19844763.95944  20244616.6984   20244616.1924
 -16368473.34944 -12754648.01444  21267636.9494   21267637.0734
 -17645305.32244 -13749569.15144  20974896.3654   20974896.5754
  -5672366.23944  -4420024.21744  23828172.4364   23828172.4504
 96  3 23  1 40  0.0000000  0  7G 6G16G 4G 5G20G24G 9
  -9006443.20544  -7017999.72844  23330419.2354   23330419.7144
 -10742987.09544  -8371150.34544  22279371.5524   22279372.4424
  11210009.21544   8735071.30244  23506553.2624   23506552.6214
 -25475556.38044 -19851070.17044  20243076.6404   20243076.1344
 -16433081.32444 -12804991.88244  21255342.5104   21255342.6204
 -17594849.09144 -13710252.60944  20984497.9074   20984497.7274
  -5580585.47144  -4348506.77344  23845638.2404   23845638.2414
 96  3 23  1 40 30.0000000  0  7G 6G16G 4G 5G20G24G 9
  -9073244.77744  -7070052.87544  23317706.2514   23317706.7854
 -10820452.34944  -8431512.83844  22264630.3274   22264631.1274
  11304868.81644   8808987.87844  23524603.9644   23524604.2024
 -25483118.72544 -19856962.90444  20241637.7954   20241637.0694
 -16497286.82144 -12855022.12544  21243124.1674   21243124.2424
 -17544083.99144 -13670695.38544  20994158.2834   20994158.1284
  -5488771.46744  -4276963.43844  23863109.6544   23863110.6174
 96  3 23  1 41  0.0000000  0  7G 6G16G 4G 5G20G24G 9
  -9139993.43744  -7122064.77944  23305005.3994   23305005.7394
 -10897564.25344  -8491599.99544  22249956.1084   22249957.1224
  11399802.83244   8882962.44044  23542669.8634   23542667.7624
 -25490157.17944 -19862447.41644  20240298.3344   20240297.8254
 -16561099.54844 -12904746.31044  21230981.3844   21230981.4344
 -17492991.74244 -13630883.24444  21003880.8034   21003880.9284
  -5396925.48344  -4205395.17944  23880586.5644   23880587.4074
 96  3 23  1 41 30.0000000  0  7G 6G16G 4G 5G20G24G 9
  -9206702.63844  -7174045.93744  23292310.8354   23292313.0514
 -10974315.78244  -8551406.34444  22235350.7914   22235351.9464
  11494824.37844   8957005.17944  23560751.8374   23560751.7644
 -25496676.68444 -19867527.54744  20239057.7484   20239057.2214
 -16624540.75644 -12954181.01044  21218908.9294   21218908.9364
 -17441581.09044 -13590822.99844  21013663.8234   21013663.8684
  -5305059.60944  -4133811.45544  23898067.5424   23898069.5584
 96  3 23  1 42  0.0000000  0  7G 6G16G 4G 5G20G24G 9
  -9273395.91044  -7226014.68544  23279618.7284   23279619.6454
 -11050733.03944  -8610952.22044  22220808.9884   22220809.5244
  11589925.08244   9031109.62944  23578849.2804   23578848.2964
 -25502671.27544 -19872198.66144  20237916.8294   20237916.2744
 -16687606.85744 -13003323.40944  21206907.5544   21206907.8194
 -17389863.43544 -13550523.52144  21023505.4184   21023505.5444
  -5213184.01844  -4062220.11744  23915551.7944   23915553.5304
 96  3 23  1 42 30.0000000  0  7G 6G16G 4G 5G20G24G 9
  -9340078.80044  -7277975.34144  23266930.0584   23266931.8064
 -11126827.18144  -8670246.31644  22206329.0214   22206330.0054
  11685103.16944   9105274.37344  23596960.5744   23596959.5074
 -25508147.17544 -19876465.59844  20236875.0414   20236874.4684
 -16750270.11344 -13052151.91344  21194983.2434   21194983.2274
 -17337826.34444 -13509975.14044  21033407.9384   21033408.0914
  -5121284.72644  -3990610.31644  23933040.2074   23933040.7994
 96  3 23  1 43  0.0000000  0  7G 6G16G 4G 5G20G24G 9
  -9406771.44044  -7329943.60244  23254239.5964   23254241.2414
 -11202624.10944  -8729308.82744  22191905.3924   22191905.7084
  11780340.74244   9179485.45744  23615083.4364   23615083.4314
 -25513133.11644 -19880350.74944  20235926.0844   20235925.4904
 -16812539.32144 -13100673.35844  21183133.8384   21183134.0674
 -17285488.20244 -13469192.17544  21043367.3444   21043367.3904
  -5029372.92544  -3918990.78944  23950530.4434   23950530.9914
 96  3 23  1 43 30.0000000  0  7G 6G16G 4G 5G20G24G 9
  -9473463.07344  -7381911.08044  23241548.7704   23241549.2304
 -11278127.08344  -8788142.27544  22177537.4154   22177538.0484
  11875632.77844   9253738.96044  23633218.0484   23633217.1354
 -25517608.18344 -19883837.81344  20235074.5834   20235074.0574
 -16874378.24444 -13148859.51544  21171366.1274   21171366.1434
 -17232852.20944 -13428177.11544  21053383.6894   21053383.4304
  -4937431.51644  -3847348.19344  23968026.7924   23968026.4244
 96  3 23  1 44  0.0000000  0  7G 6G16G 4G 5G20G24G 9
  -9540115.49744  -7433847.99744  23228865.4984   23228866.0684
 -11353312.86344  -8846728.55744  22163229.8274   22163230.5884
  11970990.74744   9328043.90344  23651363.1794   23651360.7174
 -25521545.96244 -19886906.21444  20234325.0294   20234324.4834
 -16935752.43844 -13196683.54844  21159686.8754   21159687.1464
 -17179891.07544 -13386908.69744  21063461.8254   21063461.9504
  -4845434.77344  -3775662.45244  23985532.6974   23985533.6034
 96  3 23  1 44 30.0000000  0  7G 6G16G 4G 5G20G24G 9
  -9606731.85744  -7485756.84044  23216188.8874   23216188.2754
 -11428176.69144  -8905063.97144  22148983.7924   22148984.2724
  12066404.62744   9402392.38044  23669519.5034   23669519.6284
 -25524960.72844 -19889567.07244  20233675.3254   20233674.7444
 -16996688.92144 -13244166.50344  21148091.1324   21148091.6124
 -17126613.45944 -13345393.67244  21073600.4004   21073600.7104
  -4753413.68544  -3703957.73744  24003043.1864   24003044.4974
 96  3 23  1 45  0.0000000  0  7G 6G16G 4G 5G20G24G 9
  -9673296.91244  -7537625.68444  23203521.9614   23203521.7024
 -11502682.24944  -8963120.20644  22134805.6614   22134806.3474
  12161875.85244   9476785.53344  23687687.7144   23687686.6954
 -25527821.03944 -19891795.88644  20233131.2064   20233130.5294
 -17057205.53544 -13291322.29244  21136575.1224   21136575.3114
 -17073024.03244 -13303635.68244  21083798.2914   21083798.1834
  -4661397.16644  -3632256.61844  24020552.8124   24020553.0274
 96  3 23  1 45 30.0000000  0  7G 6G16G 4G 5G20G24G 9
  -9739828.79244  -7589468.69644  23190860.9894   23190860.8794
 -11576826.93744  -9020895.25944  22120696.4594   22120697.1144
  12257387.72844   9551210.37244  23705862.9654   23705862.4294
 -25530119.65544 -19893587.01444  20232693.6964   20232693.1544
 -17117328.15844 -13338171.07744  21125134.0274   21125134.4134
 -17019142.09744 -13261649.75144  21094051.6704   21094051.3854
  -4569413.29944  -3560580.94644  24038058.6344   24038057.7074
 96  3 23  1 46  0.0000000  0  7G 6G16G 4G 5G20G24G 9
  -9806316.58744  -7641277.33744  23178208.8384   23178207.7114
 -11650579.18644  -9078364.51044  22106661.7874   22106663.1544
  12352956.48944   9625679.56244  23724047.6194   23724046.7064
 -25531855.85844 -19894939.89944  20232363.3684   20232362.8264
 -17177059.42344 -13384714.90244  21113767.5524   21113767.8694
 -16964948.09544 -13219420.65744  21104364.0504   21104364.1634
  -4477463.79844  -3488932.01944  24055556.3584   24055556.4834
 96  3 23  1 46 30.0000000  0  7G 6G16G 4G 5G20G24G 9
  -9872757.96644  -7693049.82544  23165565.3094   23165565.5414
 -11723909.70644  -9135505.14044  22092707.6624   22092708.4034
  12448589.21344   9700198.52644  23742247.3944   23742247.0574
 -25533032.69744 -19895856.91644  20232139.4874   20232139.0404
 -17236377.02244 -13430936.38944  21102479.8884   21102479.7974
 -16910442.51244 -13176948.77644  21114736.0464   21114736.3444
  -4385535.17444  -3417299.38244  24073049.1164   24073049.8574
 96  3 23  1 47  0.0000000  0  7G 6G16G 4G 5G20G24G 9
  -9939147.78744  -7744782.12144  23152931.8604   23152930.8954
 -11796812.78944  -9192312.70644  22078834.5204   22078834.7624
  12544297.52444   9774776.47244  23760460.8554   23760461.0874
 -25533660.24744 -19896345.91444  20232019.9494   20232019.3844
 -17295252.00244 -13476812.98544  21091276.6074   21091276.5684
 -16855632.70344 -13134239.82944  21125166.0604   21125166.3704
  -4293598.78744  -3345660.67744  24090543.2314   24090543.4224
 96  3 23  1 47 30.0000000  0  7G 6G16G 4G 5G20G24G 9
 -10005486.10844  -7796474.29244  23140307.5834   23140308.1204
 -11869308.68944  -9248802.98444  22065039.2244   22065039.8704
  12640077.58344   9849410.26144  23778686.6484   23778687.6664
 -25533765.63344 -19896428.03144  20231999.9864   20231999.5944
 -17353668.29644 -13522332.15944  21080160.2414   21080160.5214
 -16800523.55144 -13091297.62944  21135653.1664   21135653.5904
  -4201627.91744  -3273995.12144  24108044.4524   24108046.0984
 96  3 23  1 48  0.0000000  0  7G 6G16G 4G 5G20G24G 9
 -10071776.14744  -7848128.85844  23127693.0314   23127693.5804
 -11941412.27944  -9304987.56944  22051318.0934   22051318.5004
  12735923.94844   9924095.76044  23796925.3544   23796925.2144
 -25533368.28244 -19896118.40444  20232075.4904   20232074.9284
 -17411618.92544 -13567488.47544  21069132.5574   21069132.8624
 -16745112.61344 -13048120.27044  21146197.4684   21146197.5504
  -4109625.79544  -3202305.21644  24125552.9374   24125555.1344
 96  3 23  1 48 30.0000000  0  7G 6G16G 4G 5G20G24G 9
 -10138027.56944  -7899753.31844  23115085.5254   23115085.9334
 -12013165.54944  -9360899.18044  22037663.7224   22037664.8354
  12831822.79344   9998822.13344  23815174.6264   23815173.5744
 -25532487.72444 -19895432.25244  20232243.1624   20232242.6314
 -17469125.34944 -13612298.66244  21058189.5154   21058189.5494
 -16689429.79544 -13004731.05544  21156793.4824   21156793.8574
  -4017609.72244  -3130604.40544  24143063.1384   24143063.7304
 96  3 23  1 49  0.0000000  0  7G 6G16G 4G 5G20G24G 9
 -10204237.29844  -7951345.29244  23102486.4814   23102486.6894
 -12084610.76044  -9416570.74444  22024068.0124   22024068.8384
  12927763.22744  10073580.90044  23833430.9654   23833430.5364
 -25531112.17944 -19894360.39944  20232504.7454   20232504.1144
 -17526207.29844 -13656778.09244  21047327.2024   21047327.3944
 -16633466.15444 -12961123.01944  21167443.0614   21167443.3644
  -3925591.06644  -3058901.59944  24160574.3564   24160574.6714
 96  3 23  1 49 30.0000000  0  7G 6G16G 4G 5G20G24G 9
 -10270410.79044  -8002909.01244  23089893.9314   23089894.2904
 -12155747.53244  -9472001.96344  22010531.0514   22010531.8484
  13023726.04544  10148357.11644  23851692.5464   23851690.0824
 -25529223.06644 -19892888.36144  20232864.3074   20232863.8664
 -17582881.13644 -13700939.50544  21036542.4474   21036542.6914
 -16577212.22144 -12917288.77644  21178147.9014   21178147.8584
  -3833587.85744  -2987210.80744  24178081.5354   24178083.3314
 96  3 23  1 50  0.0000000  0  7G 6G16G 4G 5G20G24G 9
 -10336561.33044  -8054454.85444  23077306.2324   23077305.7474
 -12226565.44744  -9527184.72744  21997055.2144   21997055.9724
  13119701.58644  10223143.25644  23869956.0844   23869954.8294
 -25526812.83044 -19891010.25444  20233323.0064   20233322.4944
 -17639158.75944 -13744792.19144  21025833.5244   21025833.5724
 -16520670.94044 -12873230.62444  21188907.1704   21188907.0434
  -3741613.77844  -2915542.77544  24195582.5264   24195584.2614
 96  3 23  1 50 30.0000000  0  7G 6G16G 4G 5G20G24G 9
 -10402686.54344  -8105980.97344  23064722.6534   23064722.0694
 -12297055.02444  -9582111.63844  21983641.7634   21983642.4044
  13215679.37744  10297931.14244  23888219.5824   23888219.9854
 -25523863.89644 -19888712.38144  20233884.0084   20233883.5174
 -17695033.38244 -13788330.84544  21015200.5354   21015200.5904
 -16463848.11244 -12828953.09944  21199720.1774   21199720.4894
  -3649667.24844  -2843896.17244  24213079.4564   24213082.7444
 96  3 23  1 51  0.0000000  0  7G 6G16G 4G 5G20G24G 9
 -10468792.31044  -8157491.93044  23052143.6164   23052142.5284
 -12367174.35544  -9636750.05644  21970298.1354   21970299.0594
  13311647.96644  10372711.87044  23906481.2034   23906483.6164
 -25520351.73244 -19885975.63044  20234552.4534   20234551.8364
 -17750477.33144 -13831533.90844  21004650.2524   21004650.3004
 -16406730.18244 -12784445.61544  21210589.3634   21210589.0044
  -3557749.52844  -2772272.03144  24230571.0404   24230573.0244
 96  3 23  1 51 30.0000000  0  7G 6G16G 4G 5G20G24G 9
 -10534873.12744  -8208983.44844  23039568.8714   23039568.3584
 -12436878.45644  -9691064.90844  21957033.4164   21957034.2284
  13407619.59544  10447494.93344  23924744.9134   23924745.5224
 -25516276.57444 -19882800.18144  20235327.7204   20235327.2964
 -17805472.21244 -13874387.05144  20994184.6694   20994184.7984
 -16349321.64844 -12739711.68744  21221514.0194   21221513.7994
  -3465864.27044  -2700673.15244  24248056.5914   24248058.0714
 96  3 23  1 52  0.0000000  0  7G 6G16G 4G 5G20G24G 9
 -10600932.17844  -8260458.00144  23026997.9524   23026997.8814
 -12506173.39344  -9745060.93144  21943846.9874   21943848.0914
  13503603.47344  10522287.56044  23943009.0734   23943006.5424
 -25511654.75544 -19879198.76644  20236207.4644   20236206.7554
 -17860001.26844 -13916877.21244  20983808.4044   20983808.0864
 -16291640.34544 -12694765.21344  21232490.4924   21232490.3824
  -3374022.10444  -2629107.87544  24265533.4124   24265534.2604
 96  3 23  1 52 30.0000000  0  7G 6G16G 4G 5G20G24G 9
 -10666941.61944  -8311893.89544  23014436.3824   23014436.7224
 -12575038.38144  -9798721.92644  21930742.3914   21930743.2464
  13599617.29844  10597103.54044  23961280.4024   23961279.9444
 -25506478.51244 -19875165.32944  20237192.3354   20237191.8644
 -17914040.24544 -13958985.49744  20973524.7634   20973524.8144
 -16233681.25244 -12649602.28544  21243519.7744   21243520.3024
  -3282216.68144  -2557571.24644  24283003.7894   24283004.4204
 96  3 23  1 53  0.0000000  0  7G 6G16G 4G 5G20G24G 9
 -10732889.12544  -8363281.53044  23001887.1764   23001886.7014
 -12643464.47044  -9852040.92944  21917721.7704   21917722.2804
  13695680.75444  10671958.16844  23979560.6084   23979560.2874
 -25500753.27544 -19870704.10644  20238281.8044   20238281.2464
 -17967599.51144 -14000719.97544  20963332.7574   20963333.0504
 -16175449.03244 -12604226.53444  21254600.9334   21254601.0254
  -3190450.73344  -2486065.31844  24300465.6454   24300465.3214
 96  3 23  1 53 30.0000000  0  7G 6G16G 4G 5G20G24G 9
 -10798766.51344  -8414614.51644  22989350.9034   22989351.1534
 -12711471.38244  -9905033.29744  21904780.2464   21904781.2044
  13791808.74444  10746863.11944  23997852.5104   23997853.6704
 -25494492.21044 -19865825.35544  20239473.4614   20239472.9254
 -18020691.45944 -14042090.31644  20953230.0044   20953230.1794
 -16116966.66444 -12558655.85344  21265729.7664   21265729.5334
  -3098714.01744  -2414582.18844  24317922.9614   24317922.5584
 96  3 23  1 54  0.0000000  0  7G 6G16G 4G 5G20G24G 9
 -10864591.49144  -8465906.67444  22976824.7764   22976823.8004
 -12779083.33744  -9957717.90644  21891914.2624   21891914.7774
  13887982.56944  10821803.74144  24016154.9154   24016151.9944
 -25487706.50344 -19860537.79444  20240764.4894   20240764.0264
 -18073332.26944 -14083109.12644  20943212.7884   20943212.9364
 -16058251.89844 -12512904.08544  21276902.5914   21276902.7464
  -3007012.55444  -2343126.55644  24335373.1324   24335375.7254
 96  3 23  1 54 30.0000000  0  7G 6G16G 4G 5G20G24G 9
 -10930363.23544  -8517157.35944  22964308.5914   22964309.2074
 -12846293.18144 -10010089.18344  21879124.7554   21879125.2894
  13984192.64644  10896772.65544  24034463.0844   24034462.2664
 -25480383.26844 -19854831.37744  20242158.1894   20242157.6634
 -18125536.52544 -14123787.75744  20933278.6144   20933278.7634
 -15999294.78744 -12466963.48444  21288121.7794   21288121.8824
  -2915339.40744  -2271692.99844  24352818.6704   24352819.0304
 96  3 23  1 55  0.0000000  0  7G 6G16G 4G 5G20G24G 9
 -10996091.25844  -8568373.96144  22951801.1684   22951802.0814
 -12913107.46444 -10062152.23044  21866409.9704   21866410.5094
  14080444.31044  10971773.95244  24052779.5784   24052780.0694
 -25472510.21144 -19848696.53144  20243656.3404   20243655.7224
 -18177296.72244 -14164120.37444  20923428.6764   20923428.6864
 -15940089.44944 -12420829.45144  21299388.3904   21299388.4324
  -2823697.23544  -2200283.52244  24370257.1484   24370257.6124
 96  3 23  1 55 30.0000000  0  7G 6G16G 4G 5G20G24G 9
 -11061790.50144  -8619568.15444  22939299.2004   22939299.1914
 -12979522.73744 -10113904.36144  21853771.9274   21853772.5384
  14176731.83044  11046803.19044  24071102.1844   24071100.6374
 -25464093.07744 -19842137.72544  20245257.8424   20245257.3054
 -18228594.54144 -14204092.69244  20913667.2134   20913667.2444
 -15880623.26744 -12374492.17044  21310704.4314   21310704.4724
  -2732091.42744  -2128902.42644  24387688.2954   24387691.0684
 96  3 23  1 56  0.0000000  0  7G 6G16G 4G 5G20G24G 9
 -11127471.32644  -8670747.98844  22926800.7224   22926800.4654
 -13045532.22744 -10165340.29644  21841210.4834   21841211.0114
  14273039.04044  11121847.79244  24089427.7894   24089428.4374
 -25455138.28044 -19835159.96744  20246962.2014   20246961.6664
 -18279429.88944 -14243704.64044  20903993.4014   20903993.4944
 -15820886.17044 -12327943.78244  21322071.7864   21322071.6374
  -2640546.88144  -2057569.04344  24405109.1734   24405110.1434
 96  3 23  1 56 30.0000000  0  7G 6G16G 4G 5G20G24G 9
 -11193149.14044  -8721925.49744  22914302.7354   22914303.3084
 -13111156.01244 -10216475.68444  21828722.9794   21828723.8214
  14369334.36944  11196883.11644  24107752.0824   24107751.0074
 -25445669.93944 -19827782.03944  20248764.0724   20248763.2584
 -18329816.42544 -14282966.87044  20894405.5444   20894405.4664
 -15760906.82344 -12281206.62244  21333485.6584   21333485.6514
  -2549103.33644  -1986314.37044  24422510.5584   24422513.3994
 96  3 23  1 57  0.0000000  0  7G 6G16G 4G 5G20G24G 9
 -11258796.34944  -8773079.11144  22901809.9814   22901810.5854
 -13176374.14444 -10267294.97744  21816312.1744   21816312.7374
  14465632.95744  11271920.98544  24126077.9544   24126075.4534
 -25435683.13544 -19820000.11744  20250664.4204   20250663.9674
 -18379728.77644 -14321859.61244  20884907.4514   20884907.4124
 -15700673.63944 -12234271.67744  21344947.5194   21344947.2634
  -2457750.04544  -1915130.06944  24439894.7484   24439895.1934
 96  3 23  1 57 30.0000000  0  7G 6G16G 4G 5G20G24G 9
 -11324393.21144  -8824193.51644  22889327.3284   22889327.0064
 -13241155.61644 -10317774.02044  21803984.8334   21803985.0934
  14561931.46844  11346958.77844  24144403.3564   24144400.7294
 -25425159.75644 -19811800.08444  20252666.9384   20252666.3174
 -18429164.17044 -14360380.69144  20875500.1264   20875500.1934
 -15640170.29444 -12187126.20844  21356460.9274   21356460.7584
  -2366462.87344  -1843997.24444  24457266.5364   24457267.7014
 96  3 23  1 58  0.0000000  0  7G 6G16G 4G 5G20G24G 9
 -11389903.56844  -8875240.51944  22876861.2254   22876861.1104
 -13305491.59144 -10367905.92344  21791742.3904   21791743.0294
  14658224.85044  11421992.59944  24162726.2854   24162725.6484
 -25414068.12844 -19803157.26044  20254777.5184   20254777.1924
 -18478108.62844 -14398519.22644  20866186.2864   20866186.2064
 -15579386.85044 -12139762.47544  21368027.6504   21368027.6684
  -2275222.23944  -1772900.66844  24474628.8134   24474631.3544
 96  3 23  1 58 30.0000000  0  7G 6G16G 4G 5G20G24G 9
 -11455337.05144  -8926227.61944  22864409.5624   22864408.9674
 -13369394.38144 -10417700.27444  21779581.6224   21779581.9654
  14754507.93944  11497018.38944  24181048.9884   24181048.5844
 -25402409.32144 -19794072.47944  20256996.1424   20256995.5864
 -18526566.83544 -14436278.86144  20856965.1194   20856964.9134
 -15518327.86044 -12092184.04344  21379646.7724   21379646.8184
  -2184025.86244  -1701838.54944  24491982.4294   24491985.4744
 96  3 23  1 59  0.0000000  0  7G 6G16G 4G 5G20G24G 9
 -11520711.78044  -8977168.93244  22851969.3004   22851968.7794
 -13432852.99144 -10467148.50944  21767506.1924   21767506.4124
  14850777.68044  11572033.76944  24199368.1034   24199368.7554
 -25390178.00844 -19784541.58644  20259323.6754   20259323.1584
 -18574549.26344 -14473667.76044  20847834.1864   20847834.0974
 -15456988.66544 -12044387.26744  21391319.1984   21391319.5614
  -2092862.85344  -1630802.51044  24509330.0744   24509333.0084
 96  3 23  1 59 30.0000000  0  7G 6G16G 4G 5G20G24G 9
 -11586062.63344  -9028091.64344  22839533.1384   22839534.1184
 -13495882.60444 -10516262.46544  21755511.5944   21755512.0244
  14947021.08644  11647028.65444  24217683.3714   24217681.4234
 -25377373.47744 -19774564.03244  20261760.5114   20261759.8634
 -18622053.34144 -14510683.91744  20838794.5064   20838794.4594
 -15395388.50744 -11996387.13644  21403041.4654   21403041.3774
  -2001756.79344  -1559810.83244  24526666.5844   24526670.3734
 96  3 23  2  0  0.0000000  0  7G 6G16G 4G 5G20G24G 9
 -11651396.42944  -9079001.06444  22827100.5134   22827100.2354
 -13558500.41144 -10565055.54044  21743595.9504   21743596.2574
  15043251.92444  11722013.75544  24235995.5294   24235993.9114
 -25364019.96844 -19764158.70144  20264301.3824   20264300.8584
 -18669065.28844 -14547316.60044  20829848.4684   20829848.2714
 -15333542.20244 -11948195.20844  21414810.7054   21414810.9734
  -1910718.66644  -1488872.07544  24543991.3954   24543992.8884
 96  3 23  2  0 30.0000000  0  7G 6G16G 4G 5G20G24G 9
 -11716730.58244  -9129910.76444  22814668.4934   22814667.1624
 -13620696.04344 -10613519.63544  21731760.7354   21731761.1334
  15139483.71944  11796999.59344  24254306.7494   24254306.4984
 -25350129.69444 -19753335.11344  20266944.7434   20266944.2904
 -18715581.79744 -14583563.22044  20820996.3844   20820996.7404
 -15271468.95644 -11899826.44044  21426622.4924   21426622.3734
  -1819755.52244  -1417991.73044  24561301.7514   24561301.2804
 96  3 23  2  1  0.0000000  0  7G 6G16G 4G 5G20G24G 9
 -11782031.34344  -9180794.46444  22802241.4594   22802240.7304
 -13682442.56144 -10661633.77844  21720010.4964   21720010.8644
  15235740.64544  11872004.98244  24272622.9894   24272624.5634
 -25335691.82344 -19742084.82544  20269692.0634   20269691.5944
 -18761580.96844 -14619406.72344  20812243.5064   20812243.3654
 -15209161.65644 -11851275.29244  21438479.2284   21438479.5644
  -1728855.11044  -1347160.25944  24578600.0334   24578602.4194
 96  3 23  2  1 30.0000000  0  7G 6G16G 4G 5G20G24G 9
 -11847284.22944  -9231640.84044  22789824.1824   22789824.2534
 -13743764.14444 -10709416.79944  21708341.3974   21708341.8554
  15332038.09144  11947041.93644  24290948.2174   24290951.4174
 -25320732.81244 -19730428.45644  20272538.7424   20272538.2174
 -18807069.33444 -14654852.19444  20803587.1214   20803586.9154
 -15146633.94644 -11802552.39744  21450377.9114   21450378.2514
  -1638028.71344  -1276386.52144  24595881.5294   24595884.3994
 96  3 23  2  2  0.0000000  0  7G 6G16G 4G 5G20G24G 9
 -11912458.81344  -9282426.19844  22777421.7594   22777422.0934
 -13804651.64044 -10756861.57544  21696754.8864   21696755.4744
  15428384.67544  12022117.23044  24309282.6914   24309285.3064
 -25305254.42544 -19718367.37744  20275484.4164   20275483.7854
 -18852062.55544 -14689911.83844  20795025.1814   20795025.1424
 -15083883.75044 -11753656.13844  21462318.7674   21462318.8994
  -1547267.09744  -1205663.18744  24613154.1634   24613156.8634
 96  3 23  2  2 30.0000000  0  7G 6G16G 4G 5G20G24G 9
 -11977551.86244  -9333148.02344  22765035.2294   22765034.5914
 -13865082.21344 -10803950.30744  21685255.3014   21685255.6604
  15524772.97344  12097224.98244  24327625.4074   24327624.5874
 -25289239.58244 -19705888.27844  20278531.8274   20278531.3054
 -18896571.54844 -14724594.16144  20786555.1414   20786555.4344
 -15020909.92444 -11704585.62644  21474302.3624   21474302.8274
  -1456583.57644  -1135000.73944  24630410.1734   24630413.3314
 96  3 23  2  3  0.0000000  0  7G 6G16G 4G 5G20G24G 9
 -12042579.79044  -9383819.10544  22752661.3924   22752660.9974
 -13925062.14344 -10850687.89044  21673841.1474   21673841.5004
  15621189.97244  12172355.17144  24345972.5134   24345973.8864
 -25272696.15044 -19692997.29444  20281679.6544   20281679.2054
 -18940615.82544 -14758914.36744  20778173.8684   20778173.8134
 -14957713.76844 -11655341.86844  21486328.3374   21486328.6774
  -1365994.55044  -1064411.90444  24647649.0604   24647648.1754
 96  3 23  2  3 30.0000000  0  7G 6G16G 4G 5G20G24G 9
 -12107553.40144  -9434447.85444  22740296.8284   22740296.7194
 -13984591.30144 -10897074.22344  21662513.5184   21662514.0474
  15717616.06544                  24364322.5184
 -25255616.28144 -19679688.30644  20284929.7444   20284929.3074
 -18984192.30544 -14792870.06144  20769881.6994   20769881.7934
 -14894291.62744 -11605922.01444  21498396.8824   21498397.0764
  -1275505.81644   -993901.27744  24664869.1644   24664870.5994
 96  3 23  2  4  0.0000000  0  7G 6G16G 4G 5G20G24G 9
 -12172488.05244  -9485046.25344  22727939.8124   22727940.0174
 -14043653.27144 -10943096.50544  21651274.6574   21651274.8234
  15814008.48344  12322603.33744  24382665.7394   24382665.5194
 -25237991.23444 -19665954.50344  20288284.0424   20288283.4164
 -19027287.68744 -14826450.86744  20761681.0514   20761680.8954
 -14830648.69144 -11556330.11444  21510507.8134   21510507.7854
  -1185135.23244   -923482.64944  24682065.9264   24682070.5224
 96  3 23  2  4 30.0000000  0  8G 6G16G 4G 5G20G24G 9G17
 -12237402.16544  -9535628.64844  22715587.4184   22715586.9214
 -14102245.36344 -10988752.65744  21640124.1564   21640124.5724
  15910353.09744  12397677.06944  24400999.5584   24400998.4484
 -25219820.90044 -19651795.79944  20291741.9844   20291741.4464
 -19069892.18544 -14859649.17544  20753573.6384   20753573.5224
 -14766782.73244 -11506564.42944  21522660.8594   21522661.0624
  -1094885.39844   -853158.13944  24699239.6414   24699242.1824
        -0.20754                  25523848.2604
 96  3 23  2  5  0.0000000  0  8G 6G16G 4G 5G20G24G 9G17
 -12302345.01644  -9586233.42944  22703228.6314   22703228.6494
 -14160433.09844 -11034093.72244  21629051.9144   21629052.2854
  16006586.20844  12472663.99244  24419312.0174   24419310.0624
 -25201168.51544 -19637261.47544  20295290.9584   20295290.4894
 -19112057.61244 -14892505.34244  20745549.6804   20745549.5684
 -14702746.52544 -11456666.08344  21534846.6414   21534846.4564
  -1004792.97544   -782956.30244  24716383.4804   24716386.5194
    -98459.14244                  25505113.4894
 96  3 23  2  5 30.0000000  0  8G 6G16G 4G 5G20G24G 9G17
 -12367254.18044  -9636811.97344  22690877.3944   22690877.7034
 -14218167.54044 -11079081.56844  21618065.3504   21618065.6084
  16102742.30344  12547590.81044  24437609.1004   24437609.1324
 -25181984.01244 -19622312.50944  20298941.5814   20298941.0514
 -19153716.33444 -14924966.68244  20737622.2834   20737622.0324
 -14638493.49644 -11406598.78144  21547073.5734   21547073.6064
   -914802.62444   -712833.99344  24733508.1864   24733512.0894
   -196832.40444                  25486394.2504
 96  3 23  2  6  0.0000000  0  7G 6G16G 4G 5G20G24G 9
 -12432111.86644  -9687350.39344  22678534.9844   22678534.8224
 -14275418.58344 -11123692.74444  21607170.7344   21607171.1184
  16198853.33244  12622482.47744  24455898.8234   24455899.0854
 -25162239.43944 -19606927.12844  20302699.0984   20302698.6594
 -19194850.12544 -14957018.97844  20729795.2124   20729795.2404
 -14574017.96544 -11356358.10444  21559343.2304   21559343.6954
   -824893.42044   -642774.96044  24750617.7724   24750619.5924
 96  3 23  2  6 30.0000000  0  7G 6G16G 4G 5G20G24G 9
 -12496923.89944  -9737853.25444  22666201.7264   22666201.8084
 -14332196.28544 -11167935.08444  21596366.6114   21596367.1664
  16294946.67544  12697360.43344  24474185.4684   24474184.2554
 -25141943.29844 -19591111.95144  20306561.1794   20306560.7464
 -19235467.21844 -14988668.65544  20722065.5954   20722065.5394
 -14509337.73544 -11305957.92444  21571651.0764   21571651.3184
   -735054.03744   -572770.24744  24767712.0934   24767718.1774
 96  3 23  2  7  0.0000000  0  7G 6G16G 4G 5G20G24G 9
 -12561683.40144  -9788315.17544  22653878.3724   22653878.3674
 -14388497.89544 -11211806.43844  21585651.9074   21585652.3524
  16391042.37444  12772240.20144  24492471.5194   24492471.9974
 -25121092.93344 -19574864.91644  20310528.6804   20310528.1754
 -19275550.21144 -15019902.15044  20714437.9444   20714438.2364
 -14444455.10244 -11255400.02744  21583997.6444   21583997.9514
   -645295.17244   -502828.33944  24784793.9874   24784793.7844
 96  3 23  2  7 30.0000000  0  7G 6G16G 4G 5G20G24G 9
 -12626386.40044  -9838733.07644  22641565.2684   22641565.9734
 -14444319.65744 -11255303.88644  21575029.5464   21575030.4614
  16487166.81344  12847142.37444  24510763.5154   24510760.5804
 -25099668.45144 -19558170.51444  20314606.0324   20314605.5204
 -19315081.38544 -15050705.65344  20706915.8084   20706915.6194
 -14379367.02944 -11204682.04244  21596384.0164   21596383.9764
   -555630.64644   -432959.91544  24801855.3634
 96  3 23  2  8  0.0000000  0  7G 6G16G 4G 5G20G24G 9
 -12691054.01044  -9889123.39944  22629260.1144   22629260.5364
 -14499684.03844 -11298444.93444  21564494.1974   21564494.6354
  16583318.57544  12922065.85944  24529060.4514   24529057.5364
 -25077694.90644 -19541048.27144  20318787.2474   20318786.8904
 -19354096.79344 -15081107.26244  20699491.0924   20699490.7794
 -14314098.23244 -11153823.23244  21608804.0344   21608804.0924
   -466095.18544   -363192.05044  24818894.0794
 96  3 23  2  8 30.0000000  0  8G 6G16G 4G 5G20G24G 9G17
 -12755707.11144  -9939502.41344  22616957.0454   22616957.4474
 -14554633.22044 -11341262.45044  21554037.7284   21554037.6854
  16679460.76844  12996981.89444  24547354.5144   24547355.8574
 -25055221.22944 -19523536.31544  20323064.0384   20323063.3054
 -19392622.03744 -15111126.93044  20692160.1214   20692159.9824
 -14248661.54144 -11102833.59944  21621256.0854   21621256.1984
   -376724.19744   -293552.38944  24835901.0474
  24835901.8294         -0.53954  25374619.4604
 96  3 23  2  9  0.0000000  0  8G 6G16G 4G 5G20G24G 9G17
 -12820316.73644  -9989847.54844  22604662.0074   22604662.4194
 -14609141.22644 -11383736.19744  21543665.2714   21543665.5094
  16775584.47844  13071883.49544  24565648.0184   24565648.2334
 -25032211.87744 -19505606.95244  20327442.4894   20327441.9004
 -19430638.73444 -15140750.32144  20684925.6044   20684925.3814
 -14183013.28944 -11051679.11444  21633748.8394   21633749.1484
   -287511.76144   -224036.23444  24852878.0094   24852877.5124
    -97533.06444    -75998.94444  25356060.9484
 96  3 23  2  9 30.0000000  0  8G 6G16G 4G 5G20G24G 9G17
 -12884833.89744 -10040120.64844  22592384.8664   22592384.7474
 -14663148.06144 -11425819.41844  21533388.1494   21533388.6074
  16871711.61244  13146787.79444  24583939.3274   24583937.2964
 -25008613.22744 -19487218.39444  20331933.1044   20331932.5214
 -19468104.36944 -15169944.31544  20677796.3644   20677796.0534
 -14117105.72344 -11000322.56444  21646290.4774   21646290.3474
   -198383.07044   -154585.37644  24869838.2484   24869838.6404
                   -194925.49344  25337528.8984
 96  3 23  2 10  0.0000000  0  8G 6G16G 4G 5G20G24G 9G17
 -12949293.99444 -10090349.26044  22580118.8114   22580118.2504
 -14716679.34744 -11467532.08344  21523201.0604   21523201.6344
  16967784.85844  13221650.04944  24602221.6804   24602225.2344
 -24984466.69844 -19468402.92144  20336527.9824   20336527.5174
 -19505046.72244 -15198730.55544  20670766.0334   20670766.3544
 -14050966.95844 -10948785.86344  21658876.1264   21658875.8694
   -109361.32644    -85217.82844  24886779.9144
   -292206.85544   -227692.47344  25319016.8804   25319014.6714
 96  3 23  2 10 30.0000000  0  8G 6G16G 4G 5G20G24G 9G17
 -13013718.31744 -10140550.00944  22567858.8344   22567858.6664
 -14769737.27144 -11508875.89544  21513104.8774   21513105.3774
  17063770.43344  13296444.05444  24620486.3874   24620483.6874
 -24959780.80744 -19449167.16544  20341225.5704   20341225.0694
 -19541467.71444 -15227110.54544  20663835.8864   20663835.5494
 -13984605.84644 -10897075.90544  21671504.3064   21671504.5134
    -20451.12344    -15937.16644  24903697.6674   24903698.6284
   -389381.92344   -303413.18344  25300523.2724
 96  3 23  2 11  0.0000000  0  8G 6G16G 4G 5G20G24G 9G17
 -13078107.60144 -10190723.45444  22555606.1584   22555606.0894
 -14822306.38844 -11549838.82144  21503101.5674   21503101.8724
  17159678.18344  13371177.42144  24638738.2144   24638740.0324
 -24934539.84544 -19429498.88244  20346028.9344   20346028.4074
 -19577363.39544 -15255081.19744  20657004.8444   20657005.1284
 -13918034.68144 -10845202.26844  21684172.5414   21684172.6164
     68355.44744     53262.64144  24920597.1984   24920599.7484
   -486439.37244                  25282048.7854
 96  3 23  2 11 30.0000000  0  8G 6G16G 4G 5G20G24G 9G17
 -13142412.51244 -10240831.15344  22543368.9134   22543368.8684
 -14874336.14144 -11590381.46144  21493200.1504   21493200.6784
  17255572.33244  13445900.14544  24656985.2294   24656986.5124
 -24908713.37844 -19409374.36244  20350943.3664   20350942.9114
 -19612683.53144 -15282603.37544  20650283.8114   20650283.5284
 -13851220.35944 -10793139.16144  21696887.0744   21696886.7424
    157096.80044    122411.73844  24937484.5104   24937487.6554
   -583349.41544                  25263601.9884
 96  3 23  2 12  0.0000000  0  8G 6G16G 4G 5G20G24G 9G17
 -13206648.38244 -10290885.05344  22531145.3674   22531145.2724
 -14925864.70144 -11630533.56344  21483394.6754   21483395.3204
  17351436.01544  13520599.12944  24675227.1844   24675227.5384
 -24882346.27444 -19388828.57144  20355960.9654   20355960.4274
 -19647471.56144 -15309710.92944  20643663.7054   20643663.6574
 -13784191.82544 -10740909.13644  21709641.8014   21709641.4044
    245710.73344    191461.52044  24954347.1304   24954348.9334
   -680147.70844                  25245182.4144
 96  3 23  2 12 30.0000000  0  8G 6G16G24G 4G 5G20G 9G17
 -13270822.46244 -10340890.79644  22518933.5764   22518933.5004
 -14976893.88744 -11670296.53844  21473683.8184   21473684.4604
 -13716977.10244 -10688534.02344  21722432.8844   21722432.5154
  17447266.23444  13595272.05344  24693462.8794   24693462.0484
 -24855453.05044 -19367872.81244  20361078.5644   20361078.0874
 -19681749.02344 -15336420.63344  20637141.0964   20637141.0484
    334172.98244    260393.08444  24971179.6914
   -776846.30644                  25226785.2364
 96  3 23  2 13  0.0000000  0  8G 6G16G 4G 5G20G24G 9G17
 -13334912.88644 -10390831.36744  22506737.5964   22506736.8114
 -15027419.47044 -11709667.09944  21464069.5784   21464070.0754
  17543078.53844  13669931.02144  24711694.9744   24711692.3474
 -24828021.38344 -19346497.49144  20366298.6974   20366298.1104
 -19715499.21544 -15362719.48144  20630718.6124   20630718.3764
 -13649576.36244 -10636013.96944  21735258.1034   21735258.5414
    422489.50544    329211.11644  24987987.4954   24987987.8144
   -873424.41044   -680588.37744  25208410.9014
 96  3 23  2 13 30.0000000  0  8G 6G16G 4G 5G20G24G 9G17
 -13398940.24744 -10440722.78744  22494553.6194   22494553.4514
 -15077463.46244 -11748662.39644  21454546.3094   21454546.8434
  17638837.49644  13744548.35244  24729917.3284   24729914.5294
 -24800078.48644 -19324723.80544  20371616.0904   20371615.6644
 -19748749.30744 -15388628.63244  20624391.0244   20624391.1814
 -13582009.55444 -10583364.51144  21748116.1014   21748116.2084
    510633.68044    397894.85844  25004759.2974   25004760.2614
   -969907.70544   -755770.00344  25190053.5484   25190050.2724
 96  3 23  2 14  0.0000000  0  8G 6G16G24G 4G 5G20G 9G17
 -13462906.71244 -10490566.75844  22482381.3464   22482381.5294
 -15127012.34944 -11787271.88944  21445117.3434   21445117.7554
 -13514271.82144 -10530581.86244  21761005.8054   21761006.1604
  17734551.68744  13819130.82144  24748130.8784   24748126.8214
 -24771605.77744 -19302537.28244  20377034.1464   20377033.6734
 -19781481.17844 -15414133.97844  20618162.7134   20618162.5524
    598627.59244    466461.51244  25021505.4524   25021507.6634
  -1066263.19244   -830852.07844  25171717.2594   25171716.0844
 96  3 23  2 14 30.0000000  0  8G 6G16G24G 4G 5G20G 9G17
 -13526836.71844 -10540382.32144  22470215.8704   22470214.9604
 -15176049.16344 -11825482.36944  21435785.9074   21435786.3244
 -13446365.68844 -10477667.99344  21773927.9094   21773928.0984
  17830223.85644  13893680.61944  24766336.4254
 -24742592.51944 -19279929.55044  20382555.1674   20382554.6354
 -19813664.57144 -15439211.94644  20612038.2864   20612038.3314
    686486.44344    534922.90044  25038223.4844   25038226.0104
  -1162496.74144   -905839.14744  25153404.9454   25153400.6974
 96  3 23  2 15  0.0000000  0  8G 6G16G24G 4G 5G20G 9G17
 -13590733.80544 -10590172.22744  22458056.7624   22458055.7574
 -15224574.02344 -11863293.92244  21426551.9504   21426552.3554
 -13378274.52544 -10424609.93544  21786885.5654   21786885.7094
  17925860.79244  13968202.91144  24784536.2064   24784533.2354
 -24713029.77244 -19256893.64644  20388180.7694   20388180.1404
 -19845285.51844 -15463851.63844  20606021.0964   20606020.9274
    774216.45744    603283.90144  25054918.9204   25054921.1264
  -1258603.69044   -980727.56844  25135115.8754   25135117.1564
 96  3 23  2 15 30.0000000  0  8G 6G16G24G 4G 5G20G 9G17
 -13654592.41144 -10639932.15044  22445904.8864   22445904.2454
 -15272570.14844 -11900693.47344  21417418.8994   21417419.4304
 -13309983.31444 -10371396.00244  21799880.7694   21799881.2344
  18021476.16344  14042708.49244  24802731.7314   24802732.1724
 -24682917.16844 -19233429.28444  20393911.0344   20393910.5224
 -19876338.45544 -15488048.72844  20600111.7104   20600111.8414
    861815.00444    671542.45744  25071588.3284   25071591.1884
  -1354579.89644  -1055514.14344  25116851.8834   25116850.0354
 96  3 23  2 16  0.0000000  0  8G 6G16G24G 4G 5G20G 9G17
 -13718387.45144 -10689642.53944  22433764.8754   22433764.3094
 -15320013.11744 -11937661.99544  21408390.4704   21408390.9164
 -13241479.96144 -10318016.76744  21812916.3884   21812916.8734
  18117108.82044  14117227.43244  24820931.0164   24820930.3324
 -24652243.92344 -19209528.05544  20399747.9074   20399747.3234
 -19906801.26244 -15511785.97744  20594314.8984   20594314.8354
    949296.04944    739709.48244  25088235.6494   25088236.9964
  -1450401.95544  -1130180.59044  25098612.3914
 96  3 23  2 16 30.0000000  0  7G 6G16G24G 4G 5G20G 9
 -13782154.20544 -10739330.89044  22421629.9214   22421629.5504
 -15366955.72944 -11974240.62544  21399457.8534   21399458.4074
 -13172811.33444 -10264508.74344  21825983.7314   21825983.9194
  18212707.87544  14191720.22344  24839122.5224   24839120.3814
 -24621050.98144 -19185221.86944  20405683.9364   20405683.3004
 -19936735.14544 -15535111.07944  20588618.7594   20588618.5834
   1036599.24044    807737.89244  25104849.5074   25104853.1954
 96  3 23  2 17  0.0000000  0  8G 6G16G24G 4G 5G20G 9G17
 -13845890.62844 -10788995.60944  22409501.4014   22409501.2434
 -15413434.40644 -12010457.74744  21390612.8964   21390613.4254
 -13104015.10544 -10210901.28344  21839075.0594   21839074.9164
  18308235.89444  14266157.68544  24857301.2704   24857302.5234
 -24589355.93544 -19160524.43144  20411715.2164   20411714.6374
 -19966193.56744 -15558065.69444  20583013.2024   20583013.0484
   1123692.66544    875602.83544  25121421.2334   25121427.1284
        -0.02454                  25062195.3224
 96  3 23  2 17 30.0000000  0  8G 6G16G24G 4G 5G20G 9G17
 -13909543.64744 -10838595.34344  22397388.5874   22397388.4964
 -15459402.60944 -12046277.10144  21381865.5054   21381866.0224
 -13035062.82644 -10157172.22144  21852196.4734   21852196.6784
  18403729.44644  14340568.24444  24875473.2574   24875471.5154
 -24557112.18944 -19135399.43844  20417851.2354   20417850.6734
 -19995144.82444 -15580625.11244  20577503.7724   20577503.4024
   1210617.45344    943336.38244  25137963.3484   25137963.0554
    -95485.75544    -74403.80144  25044028.8514
 96  3 23  2 18  0.0000000  0  8G 6G16G24G 4G 5G20G 9G17
 -13973124.69144 -10888138.98844  22385289.9834   22385289.3804
 -15504858.00844 -12081696.86944  21373215.5524   21373215.9484
 -12965960.41444 -10103326.17644  21865345.8614   21865346.1174
  18499179.14044  14414944.68444  24893636.3814
 -24524310.35944 -19109839.57444  20424092.8414   20424092.3514
 -20023586.43344 -15602787.39944  20572091.2834   20572091.0934
   1297375.10644   1010939.74544  25154472.1994   25154474.3674
   -190823.36844   -148692.84944  25025887.7394   25025888.0984
 96  3 23  2 18 30.0000000  0  8G 6G16G24G 4G 5G20G 9G17
 -14036647.71444 -10937637.41844  22373201.8394   22373202.1764
 -15549810.39344 -12116724.67944  21364661.7314   21364661.9404
 -12896701.38344 -10049358.09544  21878525.8674   21878525.5684
  18594553.89244  14489262.67444  24911785.6734
 -24490942.39144 -19083838.56444  20430442.5354   20430441.9454
 -20051508.98744 -15624545.23244  20566778.0054   20566778.0034
   1383964.74844                  25170949.4714
   -286007.56144   -222862.29644  25007776.7364
 96  3 23  2 19  0.0000000  0  8G 6G16G24G 4G 5G20G 9G17
 -14100121.49744 -10987097.49244  22361123.3444   22361122.9174
 -15594269.54444 -12151368.15044  21356201.1284   21356201.3994
 -12827289.98344  -9995271.28844  21891734.6194   21891734.3774
  18689839.02444                  24929918.5424
 -24457038.56244 -19057420.00044  20436894.2414   20436893.7034
 -20078915.30844 -15645900.80944  20561562.7524   20561562.4114
   1470379.09344                  25187393.4684
   -381050.29744   -296921.53044  24989691.9174   24989692.5614
 96  3 23  2 19 30.0000000  0  8G 6G16G24G 4G 5G20G 9G17
 -14163552.47744 -11036524.20644  22349052.3964   22349052.5224
 -15638231.56744 -12185624.24544  21347835.7744   21347836.0354
 -12757706.07344  -9941050.06144  21904975.6374   21904975.3074
  18785047.83744  14637699.54444  24948034.8884
 -24422601.45044 -19030585.88844  20443447.3624   20443446.8724
 -20105776.04644 -15666831.25644  20556451.2544   20556451.2484
   1556620.11644   1212948.70144  25203805.2474
   -475967.76144   -370883.15744  24971628.9474   24971626.4454
 96  3 23  2 20  0.0000000  0  8G 6G16G24G 4G 5G20G 9G17
 -14226875.32544 -11085866.66844  22337002.9004   22337002.4994
 -15681637.97644 -12219447.39844  21339575.3274   21339575.6474
 -12687877.93844  -9886638.51744  21918263.7404   21918263.7794
  18880239.19544                  24966148.0804
 -24387581.61644 -19003297.71144  20450111.5754   20450111.0424
 -20132018.54144 -15687279.95444  20551457.3844   20551457.6334
   1642756.13344   1280067.65644  25220196.2094   25220198.1714
   -570696.37444   -444697.59344  24953601.4864   24953602.6024
 96  3 23  2 20 30.0000000  0  8G 6G16G24G 4G 5G20G 9G17
 -14290138.09744 -11135162.31244  22324964.1964   22324964.4634
 -15724554.32344 -12252888.68544  21331408.8684   21331408.9664
 -12617870.97444  -9832087.63644  21931585.2034   21931585.2734
  18975359.64044                  24984249.6724
 -24352040.27444 -18975603.16444  20456874.9434   20456874.4194
 -20157699.93044 -15707291.42244  20546570.7084   20546570.5914
   1728726.44144   1347057.46244  25236555.9764   25236558.5544
   -665299.00644   -518413.88444  24935598.0304   24935599.1964
 96  3 23  2 21  0.0000000  0  7G 6G16G24G 5G20G 9G17
 -14353370.15344 -11184434.03144  22312931.6604   22312931.6084
 -15766999.62044 -12285962.92044  21323331.5684   21323331.9374
 -12547734.67444  -9777435.97044  21944931.9104   21944931.6454
 -24316008.85644 -18947526.73644  20463731.6244   20463731.1494
 -20182850.40044 -15726889.18644  20541784.6674   20541784.4224
   1814496.54344   1413891.24644  25252877.9254   25252882.6064
   -759815.22444   -592062.81244  24917607.7324
 96  3 23  2 21 30.0000000  0  8G 6G16G24G25G 5G20G 9G17
 -14416553.13444 -11233667.50044  22300907.9314   22300907.6074
 -15808919.49044 -12318627.73344  21315354.3414   21315354.6254
 -12477451.62044  -9722669.95144  21958306.7874   21958306.4314
        -0.72654                  25129806.3204
 -24279447.51944 -18919037.38644  20470688.9184   20470688.3094
 -20207414.44044 -15746030.00244  20537110.0584   20537110.0284
   1900098.87344   1480594.32044  25269167.7114   25269168.0114
   -854203.79144                  24899644.9514
 96  3 23  2 22  0.0000000  0  8G 6G16G24G25G 5G20G 9G17
 -14479682.49644 -11282859.19244  22288895.1484   22288894.6704
 -15850287.45244 -12350862.48944  21307482.4504   21307482.7834
 -12407030.35544  -9667796.24244  21971707.1954   21971707.0824
    -28415.91244                  25124398.8224
 -24242351.00544 -18890131.01544  20477747.8954   20477747.4594
 -20231386.17644 -15764709.27944  20532548.4774   20532548.4194
   1985541.14544   1547172.65544  25285426.3564   25285428.3554
   -948442.43344                  24881713.1334
 96  3 23  2 22 30.0000000  0  8G 6G16G24G25G 5G20G 9G17
 -14542795.24444 -11332037.94144  22276885.0854   22276884.6304
 -15891127.21344 -12382685.65644  21299710.6774   21299711.1874
 -12336524.24844  -9612856.42244  21985123.9274   21985123.5974
    -56418.69644                  25119070.8324
 -24204753.24444 -18860834.06344  20484902.7414   20484902.2594
 -20254798.93644 -15782952.99144  20528093.2814   20528093.1674
   2070769.91544   1613584.64244  25301645.1614
  -1042567.77044   -812389.20744  24863804.4054   24863810.4524
 96  3 23  2 23  0.0000000  0  8G 6G16G24G25G 5G20G 9G17
 -14605858.96244 -11381178.49144  22264884.3274   22264883.8564
 -15931409.09144 -12414074.11244  21292045.5964   21292045.8994
 -12265908.54044  -9557831.19344  21998561.4684   21998561.1114
    -83980.94144                  25113826.0434
 -24166637.04244 -18831133.13244  20492155.9294   20492155.4644
 -20277636.45344 -15800748.45444  20523747.5654   20523747.3184
   2155810.40044                  25317828.0014
  -1136547.45844   -885620.09044  24845922.3144   24845924.8054
 96  3 23  2 23 30.0000000  0  8G 6G16G24G25G 5G20G 9G17
 -14668794.58644 -11430219.21244  22252907.7714   22252907.2754
 -15971075.36344 -12444982.87744  21284497.4174   21284497.2244
 -12195113.97044  -9502666.59844  22012033.2114   22012033.7324
   -111026.65244                  25108680.3444
 -24127947.33544 -18800985.31144  20499518.0934   20499517.5964
 -20299840.41344 -15818050.24544  20519522.0864   20519521.8444
   2240713.85644                  25333985.0574
  -1230303.61444   -958676.81144  24828081.3704   24828074.8404
 96  3 23  2 24  0.0000000  0  8G 6G16G24G25G 5G20G 9G17
 -14731627.53844 -11479179.93644  22240951.6494   22240951.4484
 -16010179.17744 -12475453.36044  21277056.1754   21277056.4374
 -12124167.04244  -9447383.27544  22025533.5734   22025533.6904
   -137567.05144                  25103636.9524
 -24088712.16244 -18770412.45344  20506984.7144   20506984.1564
 -20321472.29244 -15834906.25144  20515405.7784   20515405.8744
   2325424.40944                  25350104.5224
  -1323878.18544  -1031591.94544  24810274.2244   24810272.6824
 96  3 23  2 24 30.0000000  0  8G 6G16G24G25G 5G20G 9G17
 -14794372.36044 -11528071.98844  22229011.4084   22229011.0324
 -16048743.87744 -12505503.75644  21269717.2264   21269717.5404
 -12053070.27544  -9391983.20244  22039063.3164   22039062.8704
   -163593.33144                  25098680.4224
 -24048938.29244 -18739419.82944  20514553.2004   20514552.8294
 -20342558.59144 -15851337.13544  20511392.9294   20511392.8494
   2409924.25644                  25366184.7464
  -1417295.38144  -1104384.50344  24792498.6814   24792498.2014
 96  3 23  2 25  0.0000000  0  8G 6G16G24G25G 5G20G 9G17
 -14857047.71644 -11576909.91144  22217084.5314   22217083.9194
 -16086793.01444 -12535152.41644  21262477.0584   21262477.4484
 -11981813.44144  -9336458.38144  22052623.5604   22052622.9214
   -189109.04944                  25093829.3734
 -24008628.31144 -18708009.46044  20522223.8744   20522223.3944
 -20363106.70744 -15867348.65244  20507482.7914   20507482.6694
   2494206.72544                  25382223.3414
  -1510573.40644  -1177068.58444  24774748.4514
 96  3 23  2 25 30.0000000  0  8G 6G16G24G25G 5G20G 9G17
 -14919666.37144 -11625703.65644  22205168.7474   22205168.5244
 -16124305.59444 -12564382.97744  21255338.4564   21255338.6134
 -11910386.30444  -9280800.85144  22066215.3284   22066215.5844
   -214112.06044                  25089068.2504
 -23967773.60144 -18676174.62744  20529998.4174   20529997.9234
 -20383101.65444 -15882929.12944  20503678.0764   20503677.7224
   2578271.87044                  25398220.0744
  -1603712.51944  -1249644.45544  24757023.6744   24757024.6844
 96  3 23  2 26  0.0000000  0  8G 6G16G24G25G 5G20G 9G17
 -14982236.85044 -11674459.85844  22193261.7994   22193261.6774
 -16161269.95344 -12593186.35444  21248304.3324   21248304.6594
 -11838791.14744  -9225012.41544  22079839.1494   22079839.5494
   -238613.59744                  25084406.8984
 -23926363.21944 -18643906.79944  20537878.5224   20537877.9114
 -20402543.00244 -15898078.22744  20499978.6404   20499978.5354
   2662143.28244                  25414180.6104
  -1696722.63344  -1322119.72344  24739323.6274   24739327.5454
 96  3 23  2 26 30.0000000  0  8G 6G16G24G25G 5G20G 9G17
 -15044760.04944 -11723179.21244  22181364.2314   22181364.1044
 -16197695.47744 -12621569.85644  21241372.9174   21241372.9964
 -11767047.69644  -9169108.42544  22093491.7474   22093491.4634
   -262643.25244                  25079832.3554
 -23884421.67344 -18611225.08344  20545859.7254   20545859.1704
 -20421428.22544 -15912793.98444  20496384.6524   20496384.3924
   2745834.16144                  25430105.1414
  -1789608.37944  -1394498.17444  24721647.0254   24721650.7684
 96  3 23  2 27  0.0000000  0  8G 6G16G24G25G 5G20G 9G17
 -15107223.32644 -11771851.87344  22169477.6454   22169477.2644
 -16233572.28844 -12649525.79444  21234545.5414   21234545.8064
 -11695156.17044  -9113089.03844  22107172.3464   22107172.2884
   -286208.21844                  25075348.6384
 -23841958.92444 -18578137.23044  20553940.0684   20553939.6364
 -20439737.58044 -15927061.01344  20492900.5164   20492900.3494
   2829342.57044                  25445997.8294
  -1882357.84444  -1466770.35044  24703995.6514   24704001.6194
 96  3 23  2 27 30.0000000  0  8G 6G16G24G25G 5G20G 9G17
 -15169620.96344 -11820473.38244  22157604.1504   22157603.8214
 -16268890.86644 -12677046.74444  21227824.9594   21227825.2014
 -11623148.53844  -9056979.18144  22120874.7634   22120874.8254
   -309311.59444                  25070953.2194
 -23798987.92244 -18544653.33944  20562117.2934   20562116.8954
 -20457476.30544 -15940883.39244  20489525.0344   20489524.8114
   2912665.02544                  25461852.9344
  -1974971.86544  -1538937.05344  24686372.3844   24686378.7554
 96  3 23  2 28  0.0000000  0  8G 6G16G24G25G 5G20G 9G17
 -15231920.31144 -11869018.30044  22145749.0164   22145748.5074
 -16303654.41344 -12704135.20144  21221209.4204   21221209.4354
 -11551005.35744  -9000763.70544  22134603.1654   22134603.5774
   -331926.96744                  25066653.6744
 -23755511.03444 -18510775.24744  20570390.4774   20570389.9404
 -20474621.82844 -15954243.53744  20486262.3204   20486262.6404
   2995813.61844                  25477676.2244
  -2067441.12844  -1610990.98144  24668776.7544   24668780.3604
 96  3 23  2 28 30.0000000  0  7G 6G16G24G25G 5G20G17
 -15294124.67444 -11917489.20944  22133911.5294   22133911.5834
 -16337872.21944 -12730798.41144  21214697.9954   21214698.2274
 -11478718.18444  -8944436.03344  22148359.0294   22148359.1284
   -354054.88744                  25062447.3114
 -23711545.57844 -18476516.45744  20578756.8294   20578756.2834
 -20491173.29644 -15967140.78244  20483112.6064   20483112.6394
  -2159768.49344  -1682934.28544  24651206.7444   24651207.1974
 96  3 23  2 29  0.0000000  0  7G 6G16G24G25G 5G20G17
 -15356269.86944 -11965914.01244  22122085.6384   22122085.3004
 -16371557.11344 -12757046.35944  21208287.8334   21208287.8904
 -11406310.26944  -8888014.27144  22162137.9084   22162137.5534
   -375709.42044                  25058316.3544
 -23667107.30644 -18441889.23444  20587213.3414   20587212.9094
 -20507148.33044 -15979588.85544  20480072.8144   20480072.4044
  -2251974.89444  -1754783.36244  24633660.3624   24633662.9164
 96  3 23  2 29 30.0000000  0  7G 6G16G24G 4G 5G20G17
 -15418335.87344 -12014277.10644  22110274.8224   22110274.8164
 -16404697.36544 -12782869.91444  21201981.2734   21201981.6884
 -11333771.39244  -8831490.45744  22175941.2654   22175941.0744
         0.06054                  25308040.3334
 -23622162.40844 -18406867.24144  20595766.1554   20595765.7224
 -20522534.68044 -15991578.21544  20477144.9074   20477144.5494
  -2344035.88644  -1826519.13844  24616141.9354   24616146.5484
 96  3 23  2 30  0.0000000  0  7G 6G16G24G 5G20G 4G17
 -15480293.83444 -12062556.00844  22098484.3504   22098483.9394
 -16437272.58344 -12808253.18344  21195782.5124   21195783.0744
 -11261059.11544  -8774831.53844  22189777.8104   22189778.0084
 -23576672.27344 -18371420.38744  20604422.4284   20604421.9704
 -20537307.22344 -16003089.28244  20474333.8954   20474333.5854
     93883.64844                  25325906.7044
  -2435905.25644  -1898105.61544  24598660.6924   24598663.5294
 96  3 23  2 30 30.0000000  0  7G 6G16G24G 5G20G 4G17
 -15542166.37644 -12110768.35344  22086710.3294   22086709.9584
 -16469296.08944 -12833206.54344  21189688.9864   21189689.0384
 -11188213.09944  -8718068.40544  22203639.5614   22203639.9394
 -23530622.66144 -18335537.57644  20613185.6254   20613185.0424
 -20551501.44744 -16014149.71144  20471632.4604   20471632.3964
    187707.32544                  25343759.1414
  -2527581.79244  -1969541.79844  24581215.6464   24581214.4724
 96  3 23  2 31  0.0000000  0  7G 6G16G24G25G 5G20G17
 -15603967.86744 -12158925.33144  22074950.1964   22074950.1754
 -16500790.28844 -12857747.45644  21183695.6994   21183695.7374
 -11115268.26744  -8661228.26344  22217520.8934   22217520.5494
         0.15754         0.65854  25042769.0464   25042772.5314
 -23484018.87944 -18299222.94644  20622053.9114   20622053.5764
 -20565143.52744 -16024779.89644  20469036.6094   20469036.5234
  -2619081.21044  -2040839.97044  24563805.4854   24563802.9134
 96  3 23  2 31 30.0000000  0  7G 6G16G24G25G 5G20G17
 -15665667.41744 -12207002.87944  22063209.1244   22063209.1274
 -16531731.49044 -12881857.46444  21177807.7544   21177807.7984
 -11042205.10644  -8604295.92944  22231424.0744   22231424.1304
    -19195.41844    -14956.90444  25039118.5514
 -23436848.59944 -18262466.89044  20631030.0844   20631029.6584
 -20578228.72644 -16034976.15144  20466546.4994   20466546.4534
  -2710389.75844  -2111989.43644  24546429.9204   24546428.9944
 96  3 23  2 32  0.0000000  0  7G 6G16G24G25G 5G20G17
 -15727291.12244 -12255021.32544  22051482.4154   22051482.3164
 -16562123.22344 -12905539.31244  21172024.0604   21172024.4964
 -10969039.61944  -8547283.86344  22245347.4684   22245347.2164
    -37915.74144    -29544.19144  25035559.7794   25035558.8894
 -23389153.31244 -18225301.73644  20640106.1484   20640105.6764
 -20590777.82044 -16044754.66344  20464158.6184   20464158.4954
  -2801538.06544  -2183014.02244  24529083.9084   24529082.5984
 96  3 23  2 32 30.0000000  0  7G 6G16G24G25G 5G20G17
 -15788857.89644 -12302995.40444  22039766.8604   22039766.4294
 -16591959.80944 -12928788.58144  21166346.6134   21166346.5004
 -10895784.49644  -8490201.93844  22259287.7194   22259287.2784
    -56163.68544    -43763.38844  25032090.3874   25032089.1034
 -23340967.81544 -18187754.60344  20649275.6644   20649275.0904
 -20602796.08644 -16054119.54544  20461871.4154   20461871.4994
  -2892564.41844  -2253943.51944  24511761.5244   24511763.8384
 96  3 23  2 33  0.0000000  0  7G 6G16G25G 5G20G24G17
 -15850335.79244 -12350900.23344  22028068.0264   22028067.4444
 -16621187.99144 -12951563.76844  21160784.3994   21160784.7394
    -73915.06644    -57595.61844  25028713.5774   25028706.8684
 -23292289.36244 -18149823.34344  20658538.7814   20658538.3854
 -20614234.49944 -16063032.59444  20459694.9734   20459694.9624
 -10822394.94944  -8433015.26744  22273252.6414   22273252.4094
  -2983445.49044  -2324759.83444  24494466.6854   24494467.9104
 96  3 23  2 33 30.0000000  0  7G 6G16G24G25G 5G20G17
 -15911756.60844 -12398760.58944  22016379.4894   22016379.1714
 -16649816.18744 -12973871.43644  21155336.8124   21155337.0654
 -10748897.28444  -8375744.35744  22287238.8974   22287239.1674
    -91186.85244    -71054.21544  25025427.7484   25025422.9524
 -23243159.74244 -18111540.52644  20667887.8044   20667887.3274
 -20625102.57144 -16071501.22344  20457626.8114   20457626.6754
  -3074199.28644  -2395476.98144  24477196.1414   24477196.9194
 96  3 23  2 34  0.0000000  0  7G 6G16G24G25G 5G20G17
 -15973127.76044 -12446582.24244  22004701.0854   22004700.6104
 -16677853.80644 -12995718.90744  21150001.4124   21150001.8774
 -10675292.12344  -8318389.68444  22301245.4054   22301245.4574
   -107982.09544    -84141.41044  25022231.1504   25022227.9694
 -23193566.33444 -18072896.31844  20677324.8834   20677324.5654
 -20635386.34644 -16079514.55344  20455669.7814   20455669.5164
  -3164808.56144  -2466081.56944  24459953.6624   24459955.3024
 96  3 23  2 34 30.0000000  0  7G 6G16G24G25G 5G20G17
 -16034426.45344 -12494347.43444  21993036.6274   21993035.7554
 -16705303.48544 -13017108.24544  21144777.8594   21144778.1594
 -10601574.17844  -8260947.12444  22315273.7434   22315273.5894
   -124303.24644    -96859.13744  25019124.3564   25019123.4774
 -23143478.91844 -18033867.16944  20686856.6464   20686856.1724
 -20645069.22844 -16087059.65144  20453827.3694   20453827.2114
  -3255242.97044  -2536549.84644  24442744.1264   24442748.5494
 96  3 23  2 35  0.0000000  0  7G 6G16G25G24G 5G20G17
 -16095642.35444 -12542048.11244  21981387.8644   21981386.9574
 -16732176.01144 -13038047.85744  21139664.3854   21139664.4584
   -140138.88744   -109198.61444  25016109.0364   25016105.4474
 -10527751.48844  -8203422.94844  22329322.0724   22329321.7054
 -23092870.08844 -17994431.72344  20696487.1094   20696486.6864
 -20654137.02144 -16094125.46844  20452101.6464   20452101.6464
  -3345476.90044  -2606861.88044  24425573.1924   24425577.0574
 96  3 23  2 35 30.0000000  0  7G 6G16G25G24G 5G20G17
 -16156775.78644 -12589684.53144  21969754.5454   21969753.7594
 -16758500.12444 -13058560.13244  21134654.9574   21134654.9694
   -155496.05144   -121165.22144  25013185.6964   25013186.8454
 -10453837.98744  -8145828.00544  22343386.8044   22343386.9374
 -23041734.95944 -17954586.16944  20706217.9474   20706217.3304
 -20662593.17344 -16100714.67544  20450492.3254   20450492.2564
  -3435524.65544  -2677028.91944  24408438.5624   24408441.7884
 96  3 23  2 36  0.0000000  0  7G 6G16G25G24G 5G20G17
 -16217832.35444 -12637261.05444  21958135.5914   21958135.2144
 -16784308.09844 -13078670.22144  21129743.8044   21129743.8604
   -170400.69744   -132779.17644  25010348.4444   25010346.2584
 -10379846.78244  -8088172.51944  22357466.6924   22357466.3754
 -22990089.88544 -17914343.25944  20716045.6314   20716045.1134
 -20670472.33444 -16106854.28044  20448993.3074   20448993.1114
  -3525422.15044  -2747078.83244  24391331.1604   24391337.7964
 96  3 23  2 36 30.0000000  0  7G 6G16G25G24G 5G20G17
 -16278795.94544 -12684765.13644  21946534.5354   21946533.9774
 -16809571.62744 -13098356.07144  21124936.3674   21124936.2534
   -184822.15544   -144016.64044  25007605.8474   25007607.3624
 -10305758.63644  -8030441.49144  22371565.6234   22371565.3714
 -22937929.42344 -17873698.75044  20725971.2174   20725970.6554
 -20677758.28944 -16112531.64444  20447606.7584   20447606.5684
  -3615172.46244  -2817014.03744  24374251.9864   24374253.9874
 96  3 23  2 37  0.0000000  0  7G 6G16G25G24G 5G20G17
 -16339682.26944 -12732209.00644  21934948.1024   21934947.7014
 -16834285.61244 -13117613.70244  21120233.2414   21120233.2504
   -198760.70344   -154877.86544  25004955.8604   25004953.6544
 -10231574.35844  -7972635.54944  22385681.9604   22385681.8194
 -22885278.88244 -17832672.36144  20735990.3314   20735989.8794
 -20684463.20944 -16117756.25644  20446330.7244   20446330.7024
  -3704795.77844  -2886850.31244  24357196.9504   24357203.4664
 96  3 23  2 37 30.0000000  0  7G 6G16G25G24G 5G20G17
 -16400458.69444 -12779567.23144  21923382.5914   21923382.0874
 -16858404.49744 -13136407.61744  21115643.7174   21115643.8284
   -212191.70944                  25002401.9254
 -10157252.36944  -7914722.30344  22399825.5774   22399825.8054
 -22832120.84044 -17791250.51844  20746106.1094   20746105.7344
 -20690581.41544 -16122523.68744  20445166.2344   20445166.1054
  -3794261.37544  -2956563.72944  24340172.7674   24340174.7714
 96  3 23  2 38  0.0000000  0  7G 6G16G25G24G 5G20G17
 -16461139.31544 -12826850.80344  21911835.6534   21911835.1764
 -16881914.50644 -13154727.08844  21111169.9974   21111170.0254
   -225104.74744                  24999946.9254
 -10082792.33944  -7856701.49344  22413994.9634   22413994.3604
 -22778446.27844 -17749426.18744  20756319.8124   20756319.4164
 -20696116.73944 -16126836.92544  20444113.1154   20444112.9534
  -3883547.72044  -3026137.47244  24323182.9954   24323185.4104
 96  3 23  2 38 30.0000000  0  7G 6G16G25G24G 5G20G17
 -16521742.54344 -12874074.07044  21900303.0244   21900302.4514
 -16904811.36544 -13172568.77644  21106812.8204   21106812.9764
   -237512.07844                  24997586.6974
 -10008214.12544  -7798588.58844  22428186.6474   22428186.2114
 -22724262.12144 -17707204.77244  20766630.7844   20766630.3764
 -20701057.05544 -16130686.51744  20443173.0404   20443173.3774
  -3972644.41044  -3095563.37144  24306228.5244   24306229.0464
 96  3 23  2 39  0.0000000  0  7G 6G16G25G24G 5G20G17
 -16582265.44544 -12921234.74544  21888785.6424   21888785.1774
 -16927113.26544 -13189946.86444  21102568.7164   21102569.0134
   -249431.36844                  24995317.7304
  -9933536.83744  -7740398.48844  22442397.4014   22442396.8054
 -22669578.35344 -17664594.04644  20777037.0714   20777036.5824
 -20705409.95744 -16134078.38744  20442344.7314   20442344.8314
  -4061543.47844  -3164835.28144  24289312.4424   24289312.6714
 96  3 23  2 39 30.0000000  0  7G 6G16G25G24G 5G20G17
 -16642717.08944 -12968339.89644  21877282.3674   21877281.7724
 -16948842.91244 -13206879.03744  21098433.8124   21098434.1114
   -260879.19144                  24993134.7454
  -9858792.03844  -7682155.78444  22456620.4694   22456620.7294
 -22614400.93844 -17621598.66344  20787536.8104   20787536.2614
 -20709180.38144 -16137016.37944  20441627.4164   20441627.2774
  -4150262.62744  -3233967.04844  24272429.1474   24272427.2644
 96  3 23  2 40  0.0000000  0  7G 6G16G25G24G 5G20G17
 -16703095.36444 -13015387.88044  21865792.8694   21865792.2754
 -16970006.94444 -13223370.47644  21094406.2194   21094406.5724
   -271866.11944                  24991044.8994
  -9783990.31144  -7623868.72744  22470854.8324   22470855.0624
 -22558737.83844 -17578224.82444  20798129.0484   20798128.5794
 -20712357.02944 -16139491.68544  20441022.8994   20441022.6784
  -4238807.39544  -3302962.92144  24255578.9244   24255578.2964
 96  3 23  2 40 30.0000000  0  7G 6G16G25G24G 5G20G17
 -16763380.91444 -13062363.61144  21854320.9664   21854320.8204
 -16990614.07044 -13239427.95744  21090484.9864   21090484.9214
   -282399.45744                  24989036.3114
  -9709133.80044  -7565538.97644  22485099.2644   22485099.0644
 -22502611.96444 -17534490.37844  20808809.6744   20808809.2874
 -20714943.38844 -16141507.02644  20440530.4594   20440530.5214
  -4327183.80144  -3371827.60144  24238761.6794   24238763.6674
 96  3 23  2 41  0.0000000  0  7G 6G16G25G24G 5G20G17
 -16823548.56344 -13109247.46544  21842871.6194   21842871.4034
 -17010655.43344 -13255044.58944  21086671.0454   21086671.1374
   -292459.40744                  24987127.4474
  -9634199.53244  -7507148.63044  22499358.8384   22499358.5084
 -22446003.82544 -17490380.14644  20819581.7664   20819580.9094
 -20716937.11844 -16143060.57844  20440151.2914   20440151.1974
  -4415384.14044  -3440555.09544  24221977.7614   24221978.8654
 96  3 23  2 41 30.0000000  0  7G 6G16G25G24G 5G20G17
 -16883595.15244 -13156036.99244  21831445.1654   21831444.7114
 -17030110.68144 -13270204.50344  21082969.0464   21082969.1644
   -302038.77644                  24985301.5144
  -9559162.09544  -7448677.90744  22513637.5324   22513637.4214
 -22388894.29744 -17445879.21944  20830449.1784   20830448.6794
 -20718329.49644 -16144145.54944  20439886.3854   20439886.1394
  -4503404.00744  -3509141.89544  24205225.6444   24205228.0284
 96  3 23  2 42  0.0000000  0  7G 6G16G25G24G 5G20G17
 -16943536.21344 -13202744.29644  21820038.6724   21820038.1494
 -17048993.14744 -13284918.09944  21079375.5784   21079375.6824
   -311148.57844                  24983563.6364
  -9484024.60444  -7390129.21744  22527936.5154   22527936.3114
 -22331300.78844 -17401001.16644  20841408.7374   20841408.5344
 -20719136.34644 -16144774.25944  20439732.6174   20439732.5484
  -4591248.49044  -3577592.06044  24188510.3554   24188511.9594
 96  3 23  2 42 30.0000000  0  7G 6G16G25G24G17G 5G20
 -17003357.46544 -13249358.24144  21808654.5034   21808654.0444
 -17067283.00444 -13299169.91944  21075895.3284   21075895.6674
   -319761.20444                  24981924.2424
  -9408763.85144  -7331484.46944  22542258.1324   22542257.7934
  -4678904.50144  -3645895.41044  24171831.0414   24171833.3284
 -22273198.93344 -17355727.00044  20852465.0884   20852464.6824
 -20719329.26844 -16144924.58444  20439695.8334   20439695.9804
 96  3 23  2 43  0.0000000  0  7G 6G16G25G24G17G 5G20
 -17063076.32944 -13295892.39444  21797290.4094   21797289.8554
 -17084980.33844 -13312960.03744  21072527.7794   21072527.8904
   -327884.94544   -255494.08444  24980377.0824
  -9333390.77144  -7272752.19844  22556601.1824   22556601.2374
  -4766394.54544  -3714069.39944  24155181.6364   24155184.7444
 -22214592.61744 -17310059.74544  20863617.5764   20863617.2964
 -20718923.82744 -16144608.64844  20439773.2444   20439773.0794
 96  3 23  2 43 30.0000000  0  7G 6G16G25G24G17G 5G20
 -17122695.99844 -13342349.25544  21785945.4354   21785944.4814
 -17102082.34644 -13326286.26344  21069273.2494   21069273.5514
   -335530.38944   -261451.53644  24978922.8274
  -9257926.84344  -7213949.14144  22570961.1914   22570961.0804
  -4853727.16344  -3782120.72844  24138562.3414   24138564.5664
 -22155506.16144 -17264018.35644  20874861.4154   20874860.9344
 -20717931.67544 -16143835.54044  20439961.9884   20439961.7384
 96  3 23  2 44  0.0000000  0  7G 6G16G25G24G 5G20G17
 -17182216.50244 -13388728.85144  21774619.0234   21774618.1234
 -17118595.18544 -13339153.39244  21066130.7594   21066130.8124
   -342694.09844                  24977561.0644
  -9182394.81344  -7155093.01244  22585334.6804   22585334.7004
 -22095947.78144 -17217609.23344  20886195.4904   20886194.8434
 -20716359.61044 -16142610.55144  20440261.0314   20440260.8294
  -4940904.66644  -3850051.19944  24121973.8924   24121974.4054
 96  3 23  2 44 30.0000000  0  7G 6G16G25G24G 5G20G17
 -17241622.91544 -13435019.54444  21763314.4874   21763313.9464
 -17134504.54144 -13351550.27344  21063103.1584   21063103.1704
   -349371.62944                  24976291.3004
  -9106781.94744  -7096173.89544  22599723.2174   22599722.7124
 -22035901.74944 -17170820.11644  20897621.7594   20897621.0544
 -20714195.27144 -16140924.05344  20440672.8704   20440672.8354
  -5027911.83944  -3917848.98744  24105416.8264   24105417.8114
 96  3 23  2 45  0.0000000  0  7G 6G16G25G24G 5G20G17
 -17300915.96244 -13481221.89744  21752031.2294   21752030.5824
 -17149810.07644 -13363476.64644  21060190.9304   21060191.1324
   -355561.54244                  24975117.6504
  -9031108.96244  -7037207.93444  22614122.9514   22614122.5594
 -21975373.73644 -17123655.43644  20909139.6174   20909139.0954
 -20711451.73744 -16138786.23444  20441195.1154   20441194.9524
  -5114747.36144  -3985512.96844  24088893.1804   24088894.8454
 96  3 23  2 45 30.0000000  0  7G 6G16G25G24G17G 5G20
 -17360099.56144 -13527338.96544  21740768.9604   21740768.5284
 -17164519.50744 -13374938.52744  21057391.9714   21057391.7654
   -361262.57444                  24974029.9344
  -8955378.16644  -6978196.92844  22628533.8214   22628534.2684
  -5201392.36544  -4053028.49144  24072404.6254   24072406.9684
 -21914362.31844 -17076114.07144  20920749.6544   20920749.2644
 -20708109.50044 -16136181.89244  20441831.0674   20441830.8734
 96  3 23  2 46  0.0000000  0  7G 6G16G25G24G17G 5G20
 -17419176.54044 -13573372.96344  21729526.8584   21729526.2004
 -17178634.50144 -13385937.20744  21054705.6894   21054705.5974
   -366458.33544                  24973043.0424
  -8879564.72144  -6919121.51444  22642961.2804   22642961.5884
  -5287820.05144  -4120374.72844  24055957.1604   24055957.3464
 -21852845.59944 -17028178.97344  20932455.8014   20932455.4184
 -20704142.17844 -16133090.47344  20442585.9544   20442585.7204
 96  3 23  2 46 30.0000000  0  7G 6G16G25G24G17G 5G20
 -17478160.60444 -13619334.55444  21718302.4554   21718302.0174
 -17192164.78344 -13396480.26844  21052131.1254   21052131.1134
   -371168.69744   -289221.57744  24972146.5534
  -8803677.22044  -6859988.39844  22657402.5554   22657401.6894
  -5374045.01244  -4187562.95644  24039549.7374   24039549.7084
 -21790849.12344 -16979870.03744  20944253.3274   20944252.8734
 -20699556.24444 -16129517.01644  20443458.6214   20443458.5374
 96  3 23  2 47  0.0000000  0  7G 6G16G25G24G17G 5G20
 -17537059.85644 -13665230.05444  21707094.3194   21707093.8314
 -17205114.08444 -13406570.61444  21049666.6484   21049666.8544
   -375396.57844   -292516.02544  24971342.6754
  -8727722.92844  -6800803.22744  22671856.2604   22671855.1974
  -5460073.44144  -4254598.05044  24023180.0034   24023179.6854
 -21728384.14544 -16931196.03544  20956140.1164   20956139.6934
 -20694364.65644 -16125471.62444  20444446.4234   20444446.5874
 96  3 23  2 47 30.0000000  0  7G 6G16G25G24G 5G20G17
 -17595864.54344 -13711051.87944  21695904.3004   21695903.6294
 -17217489.79244 -13416214.01044  21047311.6294   21047311.4584
   -379145.20844   -295436.98744  24970629.5504
  -8651668.27144  -6741539.84244  22686328.5144   22686328.4304
 -21665437.38544 -16882146.62244  20968118.5064   20968118.2804
 -20688555.14644 -16120944.73644  20445552.0944   20445551.8934
  -5545885.41244  -4321464.52744  24006849.8894   24006851.0744
 96  3 23  2 48  0.0000000  0  7G 6G16G25G 5G20G24G17
 -17654563.72444 -13756791.49244  21684734.4114   21684733.8234
 -17229280.42944 -13425401.50044  21045068.2504   21045068.5334
   -382420.94644   -297989.49444  24970002.2774
 -21602008.63044 -16832721.62644  20980188.7564   20980188.2784
 -20682135.71844 -16115942.58444  20446773.6844   20446773.5024
  -8575504.15944  -6682191.19144  22700822.1044   22700821.6274
  -5631491.41344  -4388170.45544  23990559.7374   23990559.1494
 96  3 23  2 48 30.0000000  0  7G 6G16G25G 5G20G24G17
 -17713178.65944 -13802465.45944  21673580.2274   21673579.9024
 -17240495.41344 -13434140.43944  21042934.1224   21042933.9114
   -385250.51244                  24969465.0794
 -21538135.03044 -16782949.99644  20992343.4584   20992343.1544
 -20675139.52244 -16110491.00244  20448104.9704   20448104.9064
  -8499260.10044  -6622780.22744  22715331.1354   22715330.7264
  -5716926.08644  -4454742.91844  23974301.6684   23974302.6034
 96  3 23  2 49  0.0000000  0  7G 6G16G25G 5G20G24G17
 -17771701.08944 -13848067.34044  21662443.3924   21662443.3324
 -17251135.89944 -13442431.71144  21040909.2534   21040909.0854
   -387624.77444                  24969014.8214
 -21473819.88744 -16732834.30344  21004582.3844   21004581.9004
 -20667566.47244 -16104589.92744  20449545.9544   20449545.8904
  -8422937.10244  -6563307.77044  22729854.4214   22729853.7264
  -5802190.80344  -4521182.93544  23958076.2704   23958075.2174
 96  3 23  2 49 30.0000000  0  7G 6G16G25G 5G20G24G17
 -17830125.06744 -13893592.50144  21651325.7404   21651325.3314
 -17261186.26344 -13450263.14944  21038996.4804   21038996.4754
   -389536.11344                  24968649.7374
 -21409078.75444 -16682386.67244  21016901.9814   21016901.3484
 -20659409.49144 -16098233.84144  20451098.3244   20451098.1714
  -8346535.68844  -6503774.18444  22744393.7374   22744392.9184
  -5887289.15644  -4587493.31844  23941882.4514   23941883.3594
 96  3 23  2 50  0.0000000  0  7G 6G16G25G 5G20G24G17
 -17888465.26944 -13939052.38544  21640224.3894   21640223.6494
 -17270638.32444 -13457628.37744  21037197.9604   21037197.6954
   -390993.61644   -304669.55544  24968370.5454
 -21343946.25844 -16631634.08444  21029296.3284   21029295.7884
 -20650689.17644 -16091438.79544  20452757.7734   20452757.5094
  -8270097.09044  -6444211.64044  22758938.9654   22758938.1914
  -5972245.89144  -4653693.35444  23925714.7904   23925715.4474
 96  3 23  2 50 30.0000000  0  7G 6G16G25G 5G20G24G17
 -17946704.59744 -13984433.67344  21629141.6374   21629140.7664
 -17279489.17044 -13464525.13044  21035513.4714   21035513.1724
   -391981.25744   -305439.13644  24968181.3364   24968184.4164
 -21278410.19644 -16580567.02344  21041767.4114   21041767.0294
 -20641405.05844 -16084204.41944  20454524.5414   20454524.3784
  -8193625.33544  -6384623.25644  22773491.0904   22773491.3544
  -6057047.41644  -4719772.43144  23909578.0604   23909580.2954
 96  3 23  2 51  0.0000000  0  7G 6G16G25G 5G20G24G17
 -18004793.04444 -14029697.38644  21618087.7814   21618087.1334
 -17287730.72544 -13470947.10944  21033945.3594   21033945.1584
   -392474.48744   -305823.50244  24968087.4314   24968091.2024
 -21212424.40944 -16529149.53344  21054324.1154   21054323.7694
 -20631525.73244 -16076506.24444  20456404.3464   20456404.3104
  -8117101.32344  -6324994.15444  22788053.0404   22788053.4884
  -6141658.83644  -4785703.40744  23893476.6354   23893479.4674
 96  3 23  2 51 30.0000000  0  7G 6G16G25G 5G20G24G17
 -18062737.50844 -14074848.89644  21607061.1834   21607060.4484
 -17295370.11944 -13476899.86944  21032491.4784   21032491.2634
   -392491.52344   -305836.78644  24968085.3264   24968087.4214
 -21145980.16344 -16477374.80644  21066967.6934   21066967.4174
 -20621054.12144 -16068346.54944  20458397.0754   20458396.9124
  -8040531.24944  -6265329.16144  22802623.4024   22802622.8704
  -6226075.50344  -4851482.60544  23877412.5584   23877413.6704
 96  3 23  2 52  0.0000000  0  7G 6G16G25G 5G20G24G17
 -18120548.14244 -14119896.13644  21596060.0224   21596059.7474
 -17302427.86544 -13482399.40244  21031148.5874   21031148.4374
   -392058.56444   -305499.41944  24968168.6184   24968167.5824
 -21079063.32044 -16425231.81944  21079701.8014   21079701.7754
 -20609991.16644 -16059726.06444  20460502.3074   20460502.1964
  -7963937.45344  -6205645.67444  22817199.2114   22817199.3754
  -6310306.15744  -4917116.82044  23861384.0174   23861386.0414
 96  3 23  2 52 30.0000000  0  7G 6G16G25G 5G20G24G17
 -18178210.16344 -14164827.56144  21585087.2394   21585086.8944
 -17308902.66544 -13487444.68644  21029916.6064   21029916.4294
   -391166.55544   -304804.31444  24968336.6994   24968339.9184
 -21011644.54444 -16372697.71544  21092531.3614   21092531.0614
 -20598316.25744 -16050628.73344  20462723.9064   20462723.6754
  -7887292.63744  -6145922.45044  22831784.3134   22831783.9014
  -6394333.79544  -4982592.89244  23845394.5844   23845397.2174
 96  3 23  2 53  0.0000000  0  7G 6G16G25G 5G20G24G17
 -18235750.73044 -14209664.34444  21574138.0424   21574137.4194
 -17314785.04644 -13492028.34844  21028797.2484   21028797.2374
   -389827.22944   -303760.72044  24968590.6314   24968590.5764
 -20943739.27644 -16319784.52744  21105453.1394   21105452.5254
 -20586021.39044 -16041048.32044  20465063.7204   20465063.8784
  -7810595.03644  -6086158.08344  22846379.3744   22846379.8054
  -6478154.53944  -5047907.69244  23829444.2234   23829445.3084
 96  3 23  2 53 30.0000000  0  7G 6G16G25G 5G20G24G17
 -18293198.64444 -14254428.94344  21563206.0114   21563205.1574
 -17320045.41444 -13496127.32444  21027795.9704   21027795.9984
   -388036.36344   -302365.23344  24968931.2174   24968932.6964
 -20875363.90744 -16266505.02544  21118464.5894   21118464.0894
 -20573119.08144 -16030994.57544  20467518.8684   20467518.5574
  -7733842.22244  -6026350.70244  22860984.2514   22860984.5804
  -6561775.30444  -5113066.69644  23813532.8164   23813533.3034
 96  3 23  2 54  0.0000000  0  7G 6G16G25G 5G20G24G17
 -18350549.25644 -14299117.70744  21552292.3734   21552291.7344
 -17324674.26644 -13499734.20944  21026915.2114   21026915.5384
   -385776.18144   -300604.08944  24969362.2624   24969362.8644
 -20806516.11544 -16212857.39944  21131566.0034   21131565.2714
 -20559611.41044 -16020469.11744  20470089.2024   20470089.3164
  -7657039.83644  -5966504.68944  22875599.7604   22875600.0034
  -6645197.65544  -5178071.10244  23797657.8454   23797658.5344
 96  3 23  2 54 30.0000000  0  7G 6G16G25G 5G20G24G17
 -18407793.53744 -14343723.61844  21541399.4014   21541398.8094
 -17328666.32044 -13502844.88844  21026155.5124   21026155.5844
   -383019.53344   -298456.03344  24969887.7864   24969891.6984
 -20737200.78644 -16158845.45944  21144756.3634   21144756.0064
 -20545510.89844 -16009481.70544  20472772.6164   20472772.4814
  -7580170.89544  -5906606.80644  22890227.5984   22890226.7034
  -6728418.67544  -5242918.60544  23781821.1834   23781822.2794
 96  3 23  2 55  0.0000000  0  7G 6G16G25G 5G20G24G17
 -18464930.61444 -14388246.00044  21530526.3994   21530525.6664
 -17332025.46444 -13505462.39144  21025516.1514   21025516.3044
   -379763.49344   -295918.86144  24970507.8134   24970511.3304
 -20667432.57144 -16104480.61944  21158032.7624   21158032.1724
 -20530827.73244 -15998040.27544  20475566.6144   20475566.6534
  -7503245.51044  -5846664.92444  22904866.4494   22904865.3214
  -6811448.87144  -5307617.42244  23766020.4074   23766019.5234
 96  3 23  2 55 30.0000000  0  7G 6G16G25G 5G20G24G17
 -18521949.30444 -14432676.12844  21519675.9274   21519675.3154
 -17334796.66444 -13507621.75744  21024988.6734   21024988.9724
   -376026.45844   -293006.90044  24971218.2574   24971216.6774
 -20597224.20244 -16049772.80544  21171392.7114   21171392.3374
 -20515576.13944 -15986155.91644  20478468.7304   20478468.7944
  -7426289.25744  -5786699.00044  22919510.5484   22919510.8914
  -6894313.92444  -5372187.55444  23750251.9044   23750253.1414
 96  3 23  2 56  0.0000000  0  7G 6G16G25G 5G20G24G17
 -18578837.01044 -14477004.19044  21508850.5594   21508849.9214
 -17337012.10844 -13509348.06544  21024567.4664   21024567.3534
   -371831.86544   -289738.37044  24972017.8034
 -20526584.95744 -15994729.24644  21184834.9794   21184834.5294
 -20499746.97244 -15973821.50244  20481480.9964   20481480.8524
  -7349300.07644  -5726707.44444  22934161.0724   22934160.9004
  -6977013.06744  -5436628.40244  23734514.4754   23734516.4664
 96  3 23  2 56 30.0000000  0  7G 6G16G25G 5G20G24G17
 -18635585.25044 -14521223.58244  21498051.6004   21498051.1394
 -17338677.30644 -13510645.61144  21024250.3734   21024250.1664
   -367194.99744   -286125.21444  24972899.7354
 -20455532.34044 -15939363.57944  21198355.8574   21198355.2894
 -20483328.58844 -15961027.95744  20484605.4774   20484605.5764
  -7272257.33644  -5666674.14644  22948821.5624   22948820.7764
  -7059528.24544  -5500925.87344  23718812.0174   23718813.5124
 96  3 23  2 57  0.0000000  0  7G 6G16G25G 5G20G24G17
 -18692166.68744 -14565312.99544  21487284.4844   21487283.8354
 -17339767.76344 -13511495.30244  21024043.0594   21024042.9104
   -362115.97944   -282167.52544  24973867.0054
 -20384054.45744 -15883666.52644  21211957.7604   21211957.1734
 -20466276.20344 -15947740.38444  20487850.2784   20487850.2374
  -7195141.26144  -5606583.69244  22963496.3824   22963495.8624
  -7141810.36544  -5565041.77844  23703154.2944   23703154.8874
 96  3 23  2 57 30.0000000  0  7G 6G16G25G 5G20G24G17
 -18748582.84044 -14609273.61144  21476549.3414   21476548.7184
 -17340273.32544 -13511889.24144  21023946.4014   21023946.5064
   -356605.56744   -277873.68744  24974915.5704   24974915.0034
 -20312158.94544 -15827644.05344  21225639.0434   21225638.5084
 -20448581.97144 -15933952.67144  20491217.3844   20491217.3294
  -7117951.26044  -5546435.62044  22978185.3634   22978184.8634
  -7223853.97544  -5628971.81644  23687542.3154   23687544.7384
 96  3 23  2 58  0.0000000  0  7G 6G16G25G 5G20G24G17
 -18804869.99244 -14653133.71744  21465837.8354   21465837.0704
 -17340199.42244 -13511831.64344  21023960.5124   21023960.6834
   -350685.06244   -273260.35744  24976043.3214   24976042.9124
 -20239877.05844 -15771320.51144  21239393.8894   21239393.4024
 -20430286.82944 -15919696.72044  20494698.7674   20494698.7664
  -7040709.05244  -5486246.88844  22992883.8494   22992883.7514
  -7305682.57644  -5692734.29844  23671970.7504   23671972.5474
 96  3 23  2 58 30.0000000  0  7G 6G16G25G 5G20G24G17
 -18861034.55444 -14696898.29344  21455150.1214   21455149.7794
 -17339541.38544 -13511318.87344  21024085.8954   21024085.6414
   -344340.40944                  24977251.9464
 -20167207.79944 -15714695.12144  21253222.1774   21253222.0804
 -20411406.69244 -15904984.92244  20498291.7614   20498291.4814
  -6963432.47144  -5426031.37444  23007588.5134   23007588.9694
  -7387304.60744  -5756335.84244  23656438.0944   23656440.0784
 96  3 23  2 59  0.0000000  0  7G 6G16G25G 5G20G24G17
 -18917037.87844 -14740537.23144  21444492.7854   21444492.2304
 -17338251.68244 -13510313.90144  21024331.3764   21024331.3134
   -337515.42044   -262998.32744  24978549.2934   24978552.1284
 -20094093.73944 -15657723.12744  21267135.0334   21267134.9524
 -20391916.17244 -15889797.50644  20502000.6864   20502000.7674
  -6886098.57344  -5365771.20044  23022304.8364   23022304.2844
  -7468700.85244  -5819761.45144  23640949.2494   23640950.8864
 96  3 23  2 59 30.0000000  0  7G 6G16G25G 5G20G24G17
 -18972893.31444 -14784060.93644  21433863.9714   21433863.4174
 -17336336.37344 -13508821.43844  21024695.7284   21024695.6204
   -330204.19844   -257301.24344  24979938.5654
 -20020530.25744 -15600400.94544  21281134.1664   21281133.7884
 -20371856.44244 -15874166.54944  20505817.8214   20505817.4604
  -6808719.95944  -5305476.16144  23037029.8524   23037029.8634
  -7549902.46344  -5883035.39444  23625497.4154   23625499.0844
 96  3 23  3  0  0.0000000  0  7G 6G16G25G 5G20G24G17
 -19028610.02944 -14827476.54344  21423261.6334   21423260.9324
 -17333812.86244 -13506855.05644  21025176.0754   21025175.6394
   -322411.06144   -251228.65744  24981423.4424   24981424.8004
 -19946521.17744 -15542731.53644  21295217.4944   21295217.1684
 -20351256.16144 -15858114.38444  20509737.8154   20509737.8554
  -6731306.09544  -5245153.67844  23051761.3574   23051761.3244
  -7630918.58544  -5946164.81344  23610079.4244   23610081.9824
 96  3 23  3  0 30.0000000  0  7G 6G16G25G 5G20G24G17
 -19084222.95944 -14870811.27444  21412678.8434   21412678.1594
 -17330710.90344 -13504437.93044  21025765.8624   21025766.0084
   -314180.61744   -244815.28844  24982991.3244   24982991.3844
 -19872106.10644 -15484745.77844  21309378.3744   21309377.8544
 -20330150.51444 -15841668.42744  20513754.0074   20513753.9054
  -6653897.86944  -5184835.58844  23066491.0154   23066490.8474
  -7711794.06744  -6009184.58044  23594688.9444   23594692.2334
 96  3 23  3  1  0.0000000  0  7G 6G16G25G 5G20G24G17
 -19139710.59944 -14914048.38044  21402120.0334   21402119.0884
 -17326996.02644 -13501543.20944  21026473.1874   21026473.2924
   -305484.89444   -238039.45344  24984645.9504   24984645.6444
 -19797266.78144 -15426429.42544  21323619.7194   21323619.3974
 -20308502.38744 -15824799.75644  20517873.6874   20517873.6504
  -6576459.67744  -5124494.15144  23081227.8584   23081227.3274
  -7792502.11244  -6072073.93844  23579331.4414   23579331.3634
 96  3 23  3  1 30.0000000  0  7G 6G16G25G 5G20G24G17
 -19195050.36544 -14957170.26044  21391589.0514   21391588.4954
 -17322647.15844 -13498154.46644  21027300.8314   21027300.3464
   -296309.96144   -230890.16244  24986391.1814   24986388.1844
 -19721994.31944 -15367775.56944  21337943.4114   21337943.0584
 -20286269.43044 -15807475.37944  20522104.5614   20522104.4674
  -6498964.32044  -5064108.15244  23095973.9384   23095974.4194
  -7873006.54644  -6134804.65344  23564011.8024   23564014.1464
 96  3 23  3  2  0.0000000  0  7G 6G16G25G 5G20G24G17
 -19250249.22144 -15000182.34044  21381084.9174   21381083.9184
 -17317679.52344 -13494283.56944  21028246.0734   21028246.1864
   -286681.84244   -223387.70944  24988223.3394   24988222.6324
 -19646309.37044 -15308800.29044  21352345.8774   21352345.5094
 -20263420.68944 -15789671.16644  20526452.5584   20526452.2624
  -6421423.49044  -5003686.71244  23110729.1214   23110729.6824
  -7953311.42944  -6197379.83944  23548730.5194   23548732.0494
 96  3 23  3  2 30.0000000  0  7G 6G16G25G 5G20G24G17
 -19305339.71144 -15043109.98344  21370601.4584   21370600.6404
 -17312127.40744 -13489957.23244  21029302.4904   21029302.4544
   -276629.47044   -215554.60344  24990134.7294   24990132.5904
 -19570246.00344 -15249530.14444  21366820.4414   21366820.2264
 -20239961.69844 -15771391.43944  20530916.5304   20530916.5454
  -6343878.82644  -4943262.30344  23125485.5354   23125486.2534
  -8033439.00044  -6259816.86644  23533482.6644   23533485.1114
 96  3 23  3  3  0.0000000  0  7G 6G16G25G 5G20G24G17
 -19360301.47944 -15085937.32144  21360142.7294   21360141.8494
 -17305987.98044 -13485173.25344  21030470.9764   21030470.5884
   -266130.91544   -207374.08044  24992132.4184   24992133.4114
 -19493780.60744 -15189946.72244  21381371.0064   21381371.0054
 -20215862.65944 -15752612.97144  20535502.4264   20535502.3394
  -6266302.15944  -4882812.95144  23140248.5694   23140248.4284
  -8113348.90244  -6322084.27544  23518276.7124   23518277.4324
 96  3 23  3  3 30.0000000  0  7G 6G16G25G 5G20G24G17
 -19415117.19544 -15128650.84844  21349711.9404   21349710.9554
 -17299260.15344 -13479930.77444  21031751.0604   21031750.7564
   -255199.34644   -198855.89544  24994212.1354   24994208.4804
 -19416895.88244 -15130036.56044  21396001.9894   21396001.5304
 -20191125.22544 -15733337.05144  20540209.9634   20540210.0104
  -6188698.18244  -4822342.31244  23155015.9984   23155015.8724
  -8193032.95344  -6384175.70144  23503113.4524   23503114.0484
 96  3 23  3  4  0.0000000  0  7G 6G16G25G 5G20G24G17
 -19469804.78844 -15171264.53944  21339305.1994   21339304.4534
 -17291961.25944 -13474243.31144  21033140.2844   21033139.9874
   -243847.68144   -190010.42344  24996372.8024   24996372.9904
 -19339605.98644 -15069810.66644  21410709.7324   21410709.3784
 -20165786.27244 -15713592.41244  20545031.6384   20545031.6264
  -6111074.59544  -4761856.19344  23169787.4144   23169786.8524
  -8272511.92744  -6446107.34344  23487989.0624   23487988.5394
 96  3 23  3  4 30.0000000  0  7G 6G16G25G 5G20G24G17
 -19524354.12444 -15213770.49744  21328924.4544   21328923.8794
 -17284088.37144 -13468108.58244  21034638.2444   21034637.9754
   -232065.72744   -180829.62544  24998614.8924   24998611.9914
 -19261907.70244 -15009266.56144  21425495.1374   21425494.5614
 -20139880.38544 -15693406.00844  20549961.6134   20549961.6174
  -6033422.16144  -4701348.08244  23184564.0264   23184564.0474
  -8351781.62244  -6507875.91644  23472904.3964   23472905.7494
 96  3 23  3  5  0.0000000  0  7G 6G16G25G 5G20G24G17
 -19578751.74244 -15256158.23144  21318572.8624   21318572.1094
 -17275622.32644 -13461511.65344  21036249.3484   21036249.3304
   -219852.50044   -171312.88744  25000938.7904   25000939.0024
 -19183794.61144 -14948399.22244  21440359.6864   21440359.2344
 -20113410.75244 -15672780.32344  20554998.3804   20554998.1254
  -5955724.18744  -4640804.14944  23199349.8324   23199350.1574
  -8430842.90444  -6569482.05144  23457860.1154   23457860.4964
 96  3 23  3  5 30.0000000  0  7G 6G16G25G 5G20G24G17
 -19633008.88144 -15298436.50444  21308248.0914   21308247.5404
 -17266574.34144 -13454461.26744  21037970.7324   21037970.5574
   -207224.17644   -161472.58444  25003340.8614   25003342.6114
 -19105295.08344 -14887230.76944  21455297.6514   21455297.1944
 -20086389.94344 -15651725.15144  20560140.3204   20560140.0864
  -5878010.36844  -4580247.92144  23214138.1454   23214138.4384
  -8509723.37844  -6630947.31644  23442849.3024   23442849.6314
 96  3 23  3  6  0.0000000  0  7G 6G16G25G 5G20G24G17
 -19687114.18844 -15340596.46344  21297952.1224   21297951.2364
 -17256934.75044 -13446949.88644  21039805.5834   21039805.2584
   -194156.64444   -151290.13544  25005826.5904   25005824.7164
 -19026418.32444 -14825768.36344  21470307.5294   21470307.0924
 -20058809.35244 -15630233.78444  20565388.7144   20565388.7244
  -5800264.26644  -4519666.54144  23228932.4194   23228932.8484
  -8588405.73244  -6692258.21044  23427876.1534   23427878.1124
 96  3 23  3  6 30.0000000  0  7G 6G16G25G 5G20G24G17
 -19741056.55244 -15382629.46044  21287687.4774   21287686.3834
 -17246691.89344 -13438968.42944  21041754.6124   21041754.4534
   -180648.99744   -140764.71144  25008395.4524   25008391.9854
 -18947153.58944 -14764003.64544  21485390.9194   21485390.4074
 -20030651.83344 -15608292.86344  20570746.8934   20570746.8914
  -5722499.33244  -4459070.48144  23243730.1294   23243729.5414
  -8666881.06344  -6753407.77444  23412942.1564   23412943.9674
 96  3 23  3  7  0.0000000  0  7G 6G16G25G 5G20G24G17
 -19794849.11844 -15424545.72444  21277450.8074   21277449.8424
 -17235850.12044 -13430520.28244  21043817.7724   21043817.5004
   -166705.62344   -129899.70244  25011049.5654   25011048.0424
 -18867511.46244 -14701944.85544  21500546.2544   21500546.4734
 -20001903.56044 -15585891.61544  20576217.2944   20576217.2494
  -5644734.44844  -4398474.46044  23258528.6984   23258527.7744
  -8745160.16244  -6814404.43844  23398046.0864   23398047.2834
 96  3 23  3  7 30.0000000  0  7G 6G16G25G 5G20G24G17
 -19848475.06744 -15466332.15844  21267246.2044   21267245.6264
 -17224406.36544 -13421603.06544  21045995.2894   21045995.0444
   -152305.66444   -118679.02644  25013790.9074   25013784.7454
 -18787476.74644 -14639580.14644  21515776.2864   21515775.9824
 -19972559.56444 -15563026.16644  20581801.5634   20581801.1904
  -5566955.32244  -4337867.31544  23273330.0714   23273328.6864
  -8823229.21544  -6875237.43744  23383190.3264   23383191.3034
 96  3 23  3  8  0.0000000  0  7G 6G16G25G 5G20G24G17
 -19901935.43644 -15507989.57344  21257073.2544   21257072.3184
 -17212360.74044 -13412216.85144  21048287.5624   21048287.3704
   -137457.27344   -107108.97644  25016615.6534   25016613.8724
 -18707034.40244 -14576897.80944  21531083.8474   21531083.9954
 -19942638.11744 -15539710.75344  20587495.5364   20587495.4744
  -5489157.40744  -4277245.54844  23288134.5344   23288135.2084
  -8901095.02744  -6935912.06844  23368372.3934   23368375.5574
 96  3 23  3  8 30.0000000  0  7G 6G16G25G 5G20G24G17
 -19955232.24644 -15549519.54244  21246931.1694   21246930.4584
 -17199723.35244 -13402369.52444  21050692.3554   21050692.4764
   -122168.54544                  25019523.0154
 -18626181.16144 -14513895.28444  21546470.0604   21546469.8654
 -19912122.05944 -15515932.01044  20593302.3564   20593302.5474
  -5411338.96944  -4216607.80644  23302941.8864   23302942.9294
  -8978769.72744  -6996437.74444  23353591.2614   23353593.4134
 96  3 23  3  9  0.0000000  0  7G 6G16G25G 5G20G24G17
 -20008367.24244 -15590923.42444  21236819.9004   21236819.1844
 -17186512.01744 -13392074.97144  21053206.1684   21053206.3824
   -106444.19344    -82943.86344  25022517.1884
 -18544934.15044 -14450585.93744  21561930.7764   21561930.5024
 -19881016.65744 -15491694.04444  20599221.6144   20599221.7394
  -5333497.55444  -4155952.16744  23317755.3744   23317755.5384
  -9056256.19544  -7056816.77944  23338847.3384   23338847.4384
 96  3 23  3  9 30.0000000  0  7G 6G16G25G 5G20G24G17
 -20061344.78644 -15632204.61244  21226738.5544   21226738.0744
 -17172737.92544 -13381341.90344  21055827.4284   21055827.2734
    -90299.63944                  25025589.2884
 -18463301.34044 -14386975.95544  21577465.1884   21577464.6814
 -19849342.58744 -15467012.95344  20605248.9154   20605248.8634
  -5255636.23444  -4095280.99944  23332572.4074   23332571.9924
  -9133556.93944  -7117051.11044  23324137.7084   23324136.0374
 96  3 23  3 10  0.0000000  0  7G 6G16G25G 5G20G24G17
 -20114152.29844 -15673353.30744  21216689.6404   21216689.0584
 -17158387.72644 -13370159.92144  21058558.2594   21058557.9134
    -73730.93344                  25028740.6374
 -18381288.62644 -14323069.95444  21593072.0824   21593071.6424
 -19817076.18144 -15441870.30444  20611389.0944   20611389.1974
  -5177749.91744  -4034590.36444  23347393.0984   23347393.1334
  -9210646.53244  -7177120.90144  23309467.8154   23309467.4934
 96  3 23  3 10 30.0000000  0  7G 6G16G25G 5G20G24G17
 -20166784.18844 -15714365.16244  21206674.0994   21206673.0774
 -17143452.79544 -13358522.30644  21061400.0384   21061399.7834
    -56732.17544                  25031978.4764
 -18298914.93544 -14258882.66844  21608747.1214   21608746.1624
 -19784215.05044 -15416264.23044  20617642.3534   20617642.3884
  -5099844.95644  -3973885.20944  23362218.2534   23362218.3084
  -9287513.00144  -7237016.82244  23294839.7584   23294841.9674
 96  3 23  3 11  0.0000000  0  7G 6G16G25G 5G20G24G17
 -20219244.05644 -15755242.97344  21196691.0794   21196690.3424
 -17127917.43044 -13346416.81644  21064356.6014   21064356.1524
    -39314.77044                  25035293.0744
 -18216188.68844 -14194420.66944  21624489.0614   21624488.8454
 -19750797.99744 -15390224.97344  20624001.4084   20624001.6864
  -5021935.52244  -3913176.56444  23377043.4934   23377043.6304
  -9364153.46044  -7296736.61344  23280255.0964   23280257.0424
 96  3 23  3 11 30.0000000  0  7G 6G16G25G 5G20G24G17
 -20271507.78444 -15795967.94644  21186745.8314   21186744.7784
 -17111746.23444 -13333815.87144  21067433.6124   21067433.5504
    -21465.93144    -16728.79044  25038688.4024
 -18133085.70944 -14129665.10344  21640302.8964   21640302.4134
 -19716807.32544 -15363738.73544  20630469.7374   20630469.6354
  -4943989.27044  -3852439.21744  23391876.4794   23391875.0564
  -9440547.02944  -7356264.03244  23265718.7174   23265719.8524
 96  3 23  3 12  0.0000000  0  7G 6G16G25G 5G20G24G17
 -20323592.88744 -15836553.73044  21176834.1964   21176833.2244
 -17094960.15744 -13320735.80244  21070627.9494   21070627.6194
     -3217.36944                  25042160.6474
 -18049636.20344 -14064639.52644  21656183.1614   21656182.7634
 -19682265.33944 -15336822.90444  20637042.7714   20637042.8094
  -4866023.85744  -3791686.91044  23406712.2074   23406711.3884
  -9516722.32444  -7415621.37044  23251222.8664   23251223.3444
 96  3 23  3 12 30.0000000  0  7G 6G16G25G 5G20G24G17
 -20375505.88744 -15877005.40744  21166955.4294   21166954.8094
 -17077559.32444 -13307176.70044  21073939.3774   21073939.0564
     15421.73044     12015.08844  25045707.5074   25045708.7844
 -17965831.65044 -13999337.28244  21672130.1434   21672129.7864
 -19647192.66244 -15309493.55144  20643717.0944   20643716.7694
  -4788039.00644  -3730919.46244  23421552.1824   23421552.1914
  -9592694.21844  -7474820.21644  23236766.4164   23236766.1874
 96  3 23  3 13  0.0000000  0  7G 6G16G25G 5G20G24G17
 -20427263.31744 -15917335.85644  21157106.5194   21157105.3174
 -17059559.84044 -13293151.11544  21077364.3354   21077364.4404
     34447.44644     26840.51244  25049328.8714   25049328.7864
 -17881665.54844 -13933753.30944  21688146.6494   21688146.1644
 -19611582.52344 -15281745.39144  20650493.4284   20650493.0814
  -4710026.85144  -3670130.77444  23436397.9074   23436398.1134
  -9668466.46544  -7533863.47644  23222346.9254   23222347.4864
 96  3 23  3 13 30.0000000  0  7G 6G16G25G 5G20G24G17
 -20478868.68644 -15957547.81844  21147286.4104   21147285.4634
 -17040984.10944 -13278676.51044  21080899.2594   21080898.7254
     53864.96944     41971.46044  25053025.3624   25053025.7714
 -17797144.99444 -13867893.14544  21704230.2754   21704230.2044
 -19575416.74744 -15253564.27044  20657375.5464   20657375.4024
  -4631989.44444  -3609322.41144  23451247.8154   23451247.9254
  -9744042.03044  -7592753.49144  23207965.3944   23207965.5104
 96  3 23  3 14  0.0000000  0  7G 6G16G25G 5G20G24G17
 -20530285.68344 -15997612.99444  21137501.9014   21137501.4484
 -17021810.93044 -13263736.35644  21084547.8684   21084547.6724
     73723.95544     57448.75544  25056803.8474   25056803.4384
 -17712239.34644 -13801732.90244  21720387.1614   21720386.7804
 -19538659.17944 -15224922.01544  20664369.8954   20664370.0114
  -4553909.25444  -3548480.71844  23466106.0074   23466106.2234
  -9819375.21344  -7651454.61944  23193629.6704   23193629.9954
 96  3 23  3 14 30.0000000  0  7G 6G16G25G 5G20G24G17
 -20581548.90244 -16037558.34644  21127746.9114   21127745.7244
 -17002063.69444 -13248348.89144  21088305.7184   21088305.2704
     93999.83144     73253.68244  25060663.0214   25060662.8944
 -17626973.45044 -13735291.95444  21736612.8594   21736613.0124
 -19501328.69144 -15195833.32644  20671473.9024   20671474.1154
  -4475835.98544  -3487644.40744  23480962.8644   23480962.3554
  -9894495.48944  -7709989.84144  23179335.1304   23179334.6854
 96  3 23  3 15  0.0000000  0  7G 6G16G25G 5G20G24G17
 -20632675.16944 -16077396.98544  21118017.6654   21118016.6134
 -16981788.30744 -13232549.87744  21092163.6954   21092163.5234
    114666.46144     89365.53344  25064596.0374   25064596.1654
 -17541388.78844 -13668602.61444  21752899.1134   21752898.6424
 -19463451.07944 -15166318.31344  20678681.5024   20678681.3034
  -4397820.68744  -3426853.24944  23495808.6344   23495805.6654
  -9969440.60544  -7768388.59544  23165072.9104   23165073.2734
 96  3 23  3 15 30.0000000  0  7G 6G16G25G 5G20G24G17
 -20683629.13244 -16117101.36044  21108321.9054   21108320.5084
 -16960969.05144 -13216327.06944  21096125.9334   21096125.5904
    135727.98544    105793.92844  25068603.8954   25068603.6444
 -17455484.57844 -13601664.27444  21769246.2964   21769245.7034
 -19425027.83444 -15136378.12444  20685993.4824   20685993.1274
  -4319867.35244  -3366110.39644  23510642.3064   23510642.5484
 -10044201.07844  -7826643.45544  23150847.0934   23150848.1044
 96  3 23  3 16  0.0000000  0  7G 6G16G25G 5G20G24G17
 -20734391.41844 -16156656.38044  21098662.0994   21098660.8194
 -16939600.23744 -13199676.03444  21100191.8724   21100191.5694
    157176.18444    122522.63144  25072685.3064   25072685.1264
 -17369240.28644 -13534460.93944  21785657.9594   21785657.3834
 -19386057.31744 -15106011.49444  20693409.3624   20693409.2634
  -4241964.09544  -3305406.54144  23525467.6444   23525467.3404
 -10118777.09744  -7884754.58844  23136655.0224   23136655.6254
 96  3 23  3 16 30.0000000  0  7G 6G16G25G 5G20G24G17
 -20784923.84144 -16196032.28544  21089045.8524   21089044.8424
 -16917636.66944 -13182561.55644  21104371.5294   21104371.1864
    179035.95644    139542.26944  25076844.6714   25076844.3344
 -17282621.23444 -13466965.57744  21802141.0304   21802140.7854
 -19346505.87544 -15075192.19444  20700935.5954   20700935.7204
  -4164060.98144  -3244702.82544  23540291.9384   23540292.3494
 -10193141.67844  -7942700.97444  23122504.1954   23122504.5804
 96  3 23  3 17  0.0000000  0  7G 6G16G25G 5G20G24G17
 -20835231.91044 -16235233.36244  21079472.3854   21079471.5954
 -16895093.29944 -13164995.28744  21108661.2484   21108660.8664
    201301.37844    156878.11444  25081081.4904   25081081.1264
 -17195641.18144 -13399188.91444  21818692.7094   21818692.1694
 -19306392.09744 -15043934.71044  20708569.2334   20708569.0054
  -4086140.69844  -3183985.72544  23555119.3704   23555117.9804
 -10267279.28544  -8000470.46844  23108395.7044   23108396.3364
 96  3 23  3 17 30.0000000  0  7G 6G16G25G 5G20G24G17
 -20885333.24944 -16274273.34944  21069938.4904   21069937.5404
 -16871957.57344 -13146967.43844  21113063.8364   21113063.7474
    223963.81044    174530.77344  25085394.6864   25085395.1594
 -17108295.08644 -13331127.03344  21835314.1814   21835313.1794
 -19265704.58544 -15012230.16044  20716311.4964   20716311.4144
  -4008173.45044  -3123232.01644  23569955.5744   23569956.0844
 -10341174.70444  -8058051.26044  23094333.9734   23094334.4454
 96  3 23  3 18  0.0000000  0  6G 6G16G 5G20G24G17
 -20935254.52244 -16313173.02944  21060438.7774   21060437.8534
 -16848229.98244 -13128478.40044  21117578.8864   21117578.6414
 -17020589.38144 -13262784.91744  21852003.9244   21852003.5044
 -19224436.41944 -14980073.15144  20724164.4354   20724164.2234
  -3930158.25144  -3062440.94844  23584801.6974   23584801.1394
 -10414829.72744  -8115444.75144  23080318.3674   23080318.7534
 96  3 23  3 18 30.0000000  0  7G 6G16G23G 5G20G24G17
 -20984981.98244 -16351921.68744  21050975.8504   21050975.0204
 -16823872.47244 -13109498.50644  21122214.0074   21122214.0564
        -0.51654         0.24854  25275412.4704
 -16932523.16544 -13194161.90644  21868762.5974   21868762.3014
 -19182566.57444 -14947447.30344  20732132.4074   20732132.3124
  -3852084.81844  -3001604.52144  23599658.7674   23599658.1314
 -10488211.43644  -8172625.25144  23066354.5014   23066355.6294
 96  3 23  3 19  0.0000000  0  7G 6G16G23G 5G20G24G17
 -21034535.43044 -16390534.75244  21041546.3174   21041544.7564
 -16798904.26544 -13090042.75444  21126965.5934   21126965.2194
   -107161.73644                  25255020.2464
 -16844119.65844 -13125276.05844  21885585.2574   21885584.6204
 -19140114.78044 -14914367.98644  20740210.4464   20740210.3684
  -3773976.24644  -2940740.69644  23614522.5894   23614523.2344
 -10561345.75744  -8229612.99044  23052437.4644   23052438.6844
 96  3 23  3 19 30.0000000  0  7G 6G16G23G 5G20G24G17
 -21083952.17544 -16429041.30044  21032142.8124   21032141.4944
 -16773368.51244 -13070144.75944  21131824.8054   21131824.3314
   -214377.08644   -167046.31344  25234616.0174
 -16755438.31444 -13056173.71944  21902460.7024   21902460.7164
 -19097134.59744 -14880876.93944  20748389.5004   20748389.3524
  -3695899.84744  -2879901.91144  23629379.4154   23629377.0604
 -10634309.30144  -8286467.67044  23038552.6594   23038554.4364
 96  3 23  3 20  0.0000000  0  7G 6G16G23G 5G20G24G17
 -21133190.36144 -16467408.70344  21022772.9904   21022772.4234
 -16747256.20344 -13049797.49344  21136793.5294   21136793.2224
   -321627.50044   -250617.97544  25214207.7094
 -16666468.71344 -12986846.76444  21919390.7714   21919390.3744
 -19053630.31544 -14846977.50244  20756668.3184   20756667.9394
  -3617859.07744  -2819090.91744  23644230.6664   23644228.5164
 -10707084.80844  -8343175.81744  23024704.2064   23024705.3284
 96  3 23  3 20 30.0000000  0  7G 6G16G23G 5G20G24G17
 -21182235.33044 -16505625.55144  21013439.9104   21013439.0034
 -16720587.24244 -13029016.47744  21141868.7204   21141868.4664
   -428909.88044                  25193793.1984
 -16577214.04244 -12917297.67544  21936375.5244   21936374.8574
 -19009624.22044 -14812687.04244  20765042.2264   20765042.0244
  -3539860.05744  -2758312.46444  23659072.8324   23659072.1774
 -10779683.89944  -8399746.51044  23010889.4914   23010889.8784
 96  3 23  3 21  0.0000000  0  7G 6G16G23G 5G20G24G17
 -21231051.58144 -16543664.17444  21004150.7294   21004149.6614
 -16693350.55844 -13007793.07444  21147051.7714   21147051.4644
   -536208.79844   -417823.99544  25173374.4554
 -16487639.46144 -12847499.30244  21953420.9914   21953420.8694
 -18965088.21444 -14777983.66544  20773516.9784   20773517.0764
  -3461858.61844  -2697532.11044  23673916.4094   23673916.6014
 -10852073.88544  -8456154.25644  22997113.5564   22997113.8694
 96  3 23  3 21 30.0000000  0  6G 6G16G 5G24G17G20
 -21279632.67544 -16581519.55944  20994905.9754   20994904.8144
 -16665567.20344 -12986143.69844  21152338.5124   21152338.2964
 -16397733.66744 -12777442.84844  21970529.4244   21970528.9284
  -3383856.83444  -2636751.49144  23688759.4664   23688759.8054
 -10924243.61644  -8512390.39344  22983379.9894   22983380.5944
 -18920025.29944 -14742869.71144  20782092.0784   20782092.2934
 96  3 23  3 22  0.0000000  0  6G16G 5G24G17G 6G20
 -16637260.17044 -12964086.25744  21157725.2254   21157725.1284
 -16307497.08244 -12707128.63144  21987701.3974   21987700.5104
  -3305858.03744  -2575973.22144  23703601.2124   23703602.0264
 -10996193.98444  -8568455.57844  22969687.6514   22969688.8844
 -21327999.10044 -16619207.67144  20985702.0324   20985701.2424
 -18874437.00144 -14707346.36844  20790767.1444   20790767.4294
 96  3 23  3 22 30.0000000  0  7G16G23G 5G24G17G 6G20
 -16608401.11344 -12941598.67244  21163216.8014   21163216.8244
        -0.39054                  25112103.5464
 -16216907.72044 -12636539.52044  22004939.6604   22004939.2374
  -3227825.52244  -2515168.65044  23718451.4014   23718451.4004
 -11067903.28644  -8624332.92044  22956041.7624   22956043.1364
 -21376146.19844 -16656724.87344  20976539.9714   20976539.0404
 -18828279.69944 -14671379.64544  20799550.8414   20799550.9044
 96  3 23  3 23  0.0000000  0  7G16G23G 5G24G17G 6G20
 -16578991.12644 -12918681.79244  21168813.6684   21168813.1514
   -107320.37644                  25091680.9654
 -16125990.38344 -12565694.84644  22022240.8234   22022240.4214
  -3149788.47244  -2454360.54544  23733301.5854   23733301.0914
 -11139388.67044  -8680035.77744  22942438.8484   22942440.1074
 -21424104.99344 -16694095.35444  20967413.4554   20967412.4904
 -18781554.84244 -14634970.67044  20808442.4754   20808442.2364
 96  3 23  3 23 30.0000000  0  7G16G23G 5G24G17G 6G20
 -16549028.47744 -12895334.26144  21174515.1424   21174515.0634
   -214630.71644   -167245.33844  25071259.8754
 -16034755.60744 -12494602.81244  22039601.8044   22039601.7904
  -3071778.84544  -2393573.82444  23748146.1314   23748145.9774
 -11210667.22144  -8735577.46044  22928875.3124   22928874.9504
 -21471902.47944 -16731340.13644  20958318.1124   20958317.1074
 -18734268.38144 -14598124.08044  20817440.6624   20817440.3844
 96  3 23  3 24  0.0000000  0  7G16G23G 5G24G17G 6G20
 -16518496.08244 -12871542.78044  21180325.4694   21180325.1034
   -321917.72044   -250845.52044  25050844.2564
 -15943229.09644 -12423283.46944  22057019.3254   22057019.6014
  -2993804.23144  -2332814.38844  23762983.5734   23762983.2464
 -11281749.96944  -8790966.59644  22915348.9304   22915347.9344
 -21519545.39044 -16768464.46844  20949251.9694   20949250.8194
 -18686420.11444 -14560839.72344  20826545.7664   20826545.9894
 96  3 23  3 24 30.0000000  0  7G16G23G 5G24G17G 6G20
 -16487389.12544 -12847303.57744  21186244.9414   21186244.4764
   -429192.41744   -334436.13544  25030429.3334
 -15851418.81044 -12351742.99844  22074489.5164   22074489.5654
  -2915870.65544  -2272086.94744  23777815.3614   23777815.3094
 -11352638.46444  -8846204.35044  22901858.6674   22901859.1294
 -21567029.17444 -16805464.80544  20940216.2054   20940215.2374
 -18638033.15044 -14523135.60144  20835753.4474   20835753.3324
 96  3 23  3 25  0.0000000  0  7G16G23G 5G24G17G 6G20
 -16455703.60844 -12822613.55744  21192274.0654   21192274.0984
   -536454.14944                  25010018.2084
 -15759325.15244 -12279981.71144  22092014.8144   22092014.8244
  -2837985.04244  -2211396.84144  23792634.2924   23792634.7394
 -11423334.87244  -8901292.43044  22888405.7184   22888406.5734
 -21614330.92144 -16842323.29844  20931214.5134   20931213.8244
 -18589127.24444 -14485027.10844  20845060.0894   20845059.9304
 96  3 23  3 25 30.0000000  0  7G16G23G 5G24G17G 6G20
 -16423438.48544 -12797471.89244  21198413.7594   21198413.4874
   -643700.84744   -501585.44544  24989612.1734   24989615.3744
 -15666935.64544 -12207989.90244  22109596.1004   22109596.4514
  -2760115.54044  -2150719.30944  23807452.8324   23807452.4254
 -11493819.08644  -8956215.15944  22874993.1714   22874992.9424
 -21661415.10044 -16879012.25644  20922255.1104   20922254.0584
 -18539711.53944 -14446521.36944  20854463.6964   20854463.6834
 96  3 23  3 26  0.0000000  0  7G16G23G 5G24G17G 6G20
 -16390585.62644 -12771872.25444  21204665.7524   21204665.4204
   -750914.17244   -585128.27444  24969209.7744   24969211.7514
 -15574247.26344 -12135765.18744  22127233.8024   22127233.4994
  -2682240.34144  -2090037.32044  23822272.4544   23822272.6594
 -11564086.37644  -9010968.85444  22861621.9254   22861621.4204
 -21708240.74244 -16915499.75444  20913344.5804   20913343.3814
 -18489791.91644 -14407622.96544  20863962.9264   20863963.1764
 96  3 23  3 26 30.0000000  0  7G16G23G 5G24G17G 6G20
 -16357135.01844 -12745806.83644  21211031.2654   21211030.8534
   -858091.54044   -668643.06644  24948815.2704   24948818.6594
 -15481238.23944 -12063290.63144  22144933.4304   22144933.0674
  -2604350.85444  -2029344.17444  23837095.4814   23837093.8884
 -11634114.75044  -9065536.37844  22848295.5574   22848295.3164
 -21754795.91244 -16951776.50044  20904485.0684   20904483.9814
 -18439359.86244 -14368325.26744  20873560.0084   20873559.9584
 96  3 23  3 27  0.0000000  0  7G16G23G 5G24G17G 6G20
 -16323106.29644 -12719290.94244  21217506.6964   21217506.2934
   -965245.91044   -752139.98344  24928425.1474
 -15387937.88944 -11990589.06144  22162687.3814   22162686.6074
  -2526470.85044  -1968658.50144  23851915.1764   23851913.9134
 -11703918.98644  -9119929.25844  22835011.9474   22835012.5084
 -21801104.25444 -16987860.91144  20895672.9454   20895671.8284
 -18388415.59244 -14328628.44144  20883254.2774   20883254.1464
 96  3 23  3 27 30.0000000  0  7G16G23G 5G24G17G 6G20
 -16288520.60044 -12692341.03744  21224087.8254   21224087.4794
  -1072358.55044   -835604.31944  24908041.8984   24908044.6634
 -15294347.02944 -11917661.11744  22180497.1034   22180496.4974
  -2448593.38244  -1907974.76544  23866733.9374   23866731.6694
 -11773498.38044  -9174146.93544  22821771.4984   22821771.9604
 -21847173.37944 -17023758.91944  20886906.4954   20886905.4204
 -18336947.54744 -14288523.47744  20893048.3404   20893048.3214
 96  3 23  3 28  0.0000000  0  7G16G23G 5G24G17G 6G20
 -16253392.63644 -12664968.59344  21230772.6554   21230772.3844
  -1179433.94344   -919039.63544  24887664.6564   24887664.3904
 -15200487.20244 -11844523.59144  22198357.6714   22198357.3234
  -2370741.70044  -1847311.12044  23881549.1004   23881550.6314
 -11842871.71544  -9228204.05344  22808570.5474   22808571.2564
 -21893039.69644 -17059498.89144  20878178.3644   20878177.2804
 -18284956.24844 -14248010.78344  20902941.9664   20902941.9604
 96  3 23  3 28 30.0000000  0  7G16G23G 5G24G17G 6G20
 -16217708.90844 -12637163.08144  21237563.1714   21237562.9084
  -1286456.64144  -1002433.87844  24867298.4644   24867299.0494
 -15106337.44544 -11771160.16844  22216274.3394   22216273.9104
  -2292895.05644  -1786651.38644  23896362.3594   23896361.7724
 -11912005.17644  -9282074.24644  22795414.6474   22795415.0524
 -21938695.58044 -17095074.88844  20869490.4464   20869489.3574
 -18232410.30544 -14207065.90144  20912941.0534   20912941.0134
 96  3 23  3 29  0.0000000  0  7G16G23G 5G24G17G 6G20
 -16181494.48644 -12608944.04244  21244454.4504   21244454.4234
  -1393424.19944  -1085785.18044  24846944.2964
 -15011913.00144 -11697582.68144  22234242.3634   22234242.3644
  -2215050.16744  -1725993.03044  23911176.5064   23911176.0774
 -11980918.12244  -9335772.62044  22782300.4614   22782301.5224
 -21984138.32544 -17130484.81044  20860842.7934   20860841.7684
 -18179319.92244 -14165696.77744  20923043.7874   20923044.0484
 96  3 23  3 29 30.0000000  0  7G16G23G 5G24G17G 6G20
 -16144742.96044 -12580306.48244  21251448.1134   21251447.7284
  -1500318.78344  -1169079.59044  24826603.1074   24826608.2614
 -14917186.10044 -11623769.52144  22252268.3064   22252268.1904
  -2137188.30444  -1665321.43644  23925993.0194   23925992.7584
 -12049602.59944  -9389292.96544  22769230.6794   22769230.8954
 -22029343.52044 -17165709.62644  20852240.5124   20852239.4854
 -18125676.14544 -14123896.43644  20933251.8274   20933252.1844
 96  3 23  3 30  0.0000000  0  7G16G23G 5G24G17G 6G20
 -16107445.09244 -12551243.19644  21258545.6814   21258545.3784
  -1607180.84344  -1252348.65544  24806267.3334   24806268.5344
 -14822171.89144 -11549732.48544  22270349.5604   22270348.9744
  -2059327.15044  -1604650.39744  23940809.7534   23940808.7414
 -12118069.09344  -9442643.46044  22756201.8434   22756202.0324
 -22074332.84344 -17200766.23344  20843679.0794   20843678.2414
 -18071506.28644 -14081686.16244  20943560.0984   20943560.2184
 96  3 23  3 30 30.0000000  0  7G16G23G 5G24G17G 6G20
 -16069637.09144 -12521782.40844  21265739.9224   21265739.8714
  -1714052.30644  -1335625.02344  24785929.1424
 -14726912.31644 -11475504.25044  22288476.3804   22288475.8014
  -1981507.40444  -1544011.65244  23955617.8704   23955617.3484
 -12186353.24044  -9495851.87944  22743208.3294   22743207.9814
 -22119134.11444 -17235676.29544  20835153.9194   20835153.0724
 -18016865.26544 -14039108.74844  20953958.0994   20953958.2014
 96  3 23  3 31  0.0000000  0  7G16G23G 5G24G17G 6G20
 -16031288.05644 -12491900.04144  21273037.7754   21273037.4264
  -1820893.08344  -1418877.53944  24765598.0164   24765600.8644
 -14631375.54744 -11401060.01644  22306656.5114   22306655.5714
  -1903689.63844  -1483374.43044  23970425.8514   23970423.8134
 -12254418.10344  -9548889.41344  22730255.3654   22730255.6224
 -22163709.91944 -17270410.67344  20826671.3774   20826670.5764
 -17961720.90144 -13996139.12144  20964451.6264   20964451.6454
 96  3 23  3 31 30.0000000  0  7G16G23G 5G24G17G 6G20
 -15992375.06044 -12461578.21744  21280442.8944   21280442.3714
  -1927709.83944  -1502111.27644  24745271.8224   24745280.2614
 -14535564.35644 -11326401.94744  22324888.6934   22324888.7554
  -1825882.34544  -1422745.36244  23985231.8054   23985233.0644
 -12322249.37944  -9601744.93044  22717347.6914   22717347.7674
 -22208063.58844 -17304971.96344  20818231.2034   20818230.2874
 -17906071.20944 -13952775.73244  20975041.3344   20975041.5274
 96  3 23  3 32  0.0000000  0  7G16G23G 6G 5G20G24G17
 -15952929.11144 -12430841.10544  21287949.3214   21287949.2444
  -2034534.45844  -1585351.13144  24724944.7094   24724946.8524
 -22252235.67544 -17339391.76444  20809825.4504   20809824.4054
 -14439525.92644 -11251566.82244  22343163.8904   22343163.1914
 -17849956.50744 -13909049.99644  20985719.4724   20985719.3854
  -1748120.80844  -1362151.93644  24000029.5574   24000029.6194
 -12389870.22344  -9654436.46544  22704480.0084   22704480.6104
 96  3 23  3 32 30.0000000  0  7G16G 6G23G 5G20G24G17
 -15912961.34344 -12399697.38444  21295554.4894   21295554.0904
 -22296193.51844 -17373644.61844  20801460.6124   20801459.4964
  -2141331.73344  -1668569.67444  24704621.1304   24704624.4144
 -14343251.58944 -11176547.85344  22361484.6274   22361484.2114
 -17793357.50244 -13864946.88244  20996490.1164   20996490.2644
  -1670404.38344  -1301593.72844  24014817.9084   24014817.8714
 -12457275.67644  -9706960.16944  22691653.0934   22691653.4944
 96  3 23  3 33  0.0000000  0  7G16G23G 6G 5G20G24G17
 -15872468.77544 -12368144.72544  21303260.2024   21303259.7094
  -2248091.20844  -1751758.79644  24684305.1184   24684309.7214
 -22339913.05044 -17407711.77644  20793141.1254   20793139.6504
 -14246724.32144 -11101331.81144  22379853.1364   22379853.2434
 -17736244.25944 -13820443.06044  21007358.3444   21007358.5374
  -1592728.98944  -1241067.41544  24029599.2894   24029598.9574
 -12524461.28344  -9759312.55844  22678868.7934   22678868.3414
 96  3 23  3 33 30.0000000  0  7G16G 6G23G 5G20G24G17
 -15831433.36644 -12336169.07744  21311068.6754   21311068.7344
 -22383371.82944 -17441575.75244  20784871.1894   20784870.0474
  -2354798.49844  -1834907.19544  24663999.2724   24664003.1184
 -14149924.62744 -11025903.48944  22398273.4414   22398273.0804
 -17678615.24844 -13775537.34344  21018324.8944   21018324.7544
  -1515090.76644  -1180570.13244  24044372.7344   24044375.3454
 -12591428.84044  -9811495.04444  22666125.4354   22666125.3414
 96  3 23  3 34  0.0000000  0  7G16G 6G23G 5G20G24G17
 -15789876.71044 -12303787.25944  21318976.7154   21318976.3524
 -22426551.28144 -17475222.06844  20776654.2874   20776653.1054
  -2461440.40644  -1918004.68344  24643706.5214   24643710.4074
 -14052850.66144 -10950261.43444  22416746.0804   22416745.9004
 -17620474.80144 -13730233.10444  21029388.6004   21029388.4224
  -1437480.80544  -1120094.81044  24059143.0374   24059141.0784
 -12658183.91344  -9863511.96144  22653422.2524   22653422.5624
 96  3 23  3 34 30.0000000  0  7G 6G16G23G 5G20G24G17
 -22469445.47044 -17508646.10444  20768491.8214   20768490.4224
 -15747801.20344 -12271001.14544  21326983.6014   21326983.2184
  -2568015.22544  -2001049.87544  24623427.1854   24623433.5574
 -13955509.78544 -10874411.40644  22435269.4174   22435269.2034
 -17561816.34444 -13684525.22144  21040550.9624   21040551.4364
  -1359903.42044  -1059644.87644  24073904.7044   24073903.5424
 -12724747.25844  -9915379.48044  22640754.8604   22640755.1744
 96  3 23  3 35  0.0000000  0  7G16G 6G23G 5G20G24G17
 -15705203.72244 -12237808.29844  21335089.4954   21335089.4254
 -22512083.04844 -17541870.18344  20760378.1164   20760376.9114
  -2674530.84744  -2084048.97744  24603157.4904   24603160.6734
 -13857911.23544 -10798360.60644  22453841.7464   22453841.7994
 -17502651.70344 -13638422.91244  21051809.4934   21051809.6244
  -1282358.27444   -999220.09144  24088661.5254   24088661.6904
 -12791117.88644  -9967096.83644  22628125.2404   22628125.0364
 96  3 23  3 35 30.0000000  0  7G 6G16G23G 5G20G24G17
 -22554462.23944 -17574892.92744  20752313.5544   20752312.5504
 -15662054.93644 -12204185.85844  21343300.6694   21343300.3014
  -2780950.40244  -2166973.17044  24582904.9144   24582908.0454
 -13760041.40344 -10722098.40844  22472465.7794   22472465.9124
 -17442983.25644 -13591928.02744  21063164.0614   21063164.2074
  -1204813.22144   -938795.39644  24103418.5944   24103419.1024
 -12857262.23044 -10018637.86344  22615538.1434   22615539.1054
 96  3 23  3 36  0.0000000  0  7G16G 6G23G 5G20G24G17
 -15618363.14344 -12170140.29544  21351614.6604   21351614.4774
 -22596599.38544 -17607727.05744  20744295.2204   20744294.0574
  -2887275.71144  -2249823.97544  24562673.5894   24562676.1844
 -13661923.32144 -10645642.75944  22491137.0424   22491136.6954
 -17382808.90244 -13545038.92444  21074614.9354   21074615.1064
  -1127271.45744   -878373.25144  24118173.6244   24118173.6004
 -12923183.76044 -10070005.26844  22602993.6574   22602993.8994
 96  3 23  3 36 30.0000000  0  7G 6G16G23G 5G20G24G17
 -22638506.69844 -17640382.10044  20736320.6124   20736319.0484
 -15574120.61944 -12135665.59744  21360033.8524   21360033.5034
  -2993500.67144  -2332596.56644  24542459.1544   24542462.2204
 -13563547.72844 -10568986.46544  22509857.5884   22509857.0134
 -17322131.06944 -13497757.50344  21086161.5424   21086161.6654
  -1049732.96144   -817953.61744  24132927.2114   24132926.8684
 -12988867.36944 -10121187.27444  22590494.2574   22590494.4954
 96  3 23  3 37  0.0000000  0  7G16G 6G23G 5G20G24G17
 -15529328.62944 -12100762.74244  21368557.2764   21368557.2104
 -22680173.29644 -17672849.56544  20728391.6364   20728390.7394
  -3099625.34944  -2415291.03144  24522264.0324   24522268.4184
 -13464916.66544 -10492131.09644  22528626.3714   22528625.9074
 -17260968.96344 -13450098.72944  21097800.5364   21097800.4964
   -972191.16844   -757531.42644  24147684.1784   24147683.6724
 -13054292.56544 -10172167.92644  22578043.8224   22578044.1814
 96  3 23  3 37 30.0000000  0  7G 6G16G23G 5G20G24G17
 -22721596.34444 -17705127.25544  20720508.9884   20720508.0074
 -15484012.94244 -12065451.81344  21377180.6604   21377180.3444
  -3205674.94544  -2497927.01844  24502081.9024   24502084.7314
 -13366066.41344 -10415104.92644  22547437.0654   22547436.9624
 -17199341.40644 -13402077.25744  21109528.0644   21109527.9374
   -894665.30544   -697121.71944  24162437.0304   24162437.5734
 -13119489.23944 -10222970.50644  22565637.3854   22565637.5374
 96  3 23  3 38  0.0000000  0  7G 6G16G23G 5G20G24G17
 -22762770.03344 -17737210.64744  20712674.0474   20712672.8134
 -15438204.14344 -12029756.63944  21385897.9944   21385897.7354
  -3311669.65844  -2580520.19444  24481912.9764   24481916.1774
 -13267006.34244 -10337915.26444  22566287.5214   22566287.7084
 -17137242.13244 -13353688.22344  21121344.7064   21121345.0894
   -817162.38044   -636729.84244  24177183.9894   24177185.8714
 -13184468.72144 -10273603.85544  22553272.9104   22553273.3614
 96  3 23  3 38 30.0000000  0  7G 6G16G23G 5G20G24G17
 -22803686.94744 -17769093.94644  20704887.6324   20704886.4634
 -15391896.43644 -11993672.71144  21394709.8274   21394709.3124
  -3417610.87344  -2663071.69344  24461753.9834   24461756.1664
 -13167730.39244 -10260557.39144  22585179.3664   22585179.2974
 -17074682.18544 -13304940.22144  21133249.2984   21133249.5994
   -739683.58844   -576356.80544  24191929.2044   24191930.0404
 -13249221.50944 -10324060.55444  22540950.4364   22540951.2884
 96  3 23  3 39  0.0000000  0  7G 6G16G23G 5G20G24G17
 -22844353.66944 -17800782.28844  20697148.9714   20697147.9854
 -15345091.55644 -11957201.36944  21403616.4274   21403616.1144
  -3523502.22544  -2745584.37744  24441603.6604   24441607.9214
 -13068253.33444 -10183042.80544  22604108.6854   22604108.6564
 -17011660.17044 -13255832.16844  21145242.0214   21145242.3884
   -662244.84844   -516014.89844  24206666.0444   24206666.5464
 -13313775.89744 -10374362.66444  22528666.2474   22528667.1024
 96  3 23  3 39 30.0000000  0  7G 6G16G23G 5G20G24G17
 -22884763.46144 -17832270.42844  20689459.1504   20689458.5474
 -15297770.14544 -11920327.53544  21412621.3374   21412621.1244
  -3629319.93144  -2828039.65344  24421465.7074   24421467.9614
 -12968544.23044 -10105347.40644  22623082.6044   22623082.1414
 -16948151.73844 -13206345.08944  21157327.5294   21157327.9344
   -584836.44944   -455696.66544  24221395.7634   24221393.9824
 -13378119.05244 -10424500.16944  22516421.7274   22516422.1534
 96  3 23  3 40  0.0000000  0  7G 6G16G23G 5G20G24G17
 -22924932.12044 -17863570.67544  20681815.4884   20681814.2884
 -15249938.45844 -11883056.08844  21421723.0714   21421723.0844
  -3735069.91744  -2910442.12744  24401342.9444   24401345.5624
 -12868608.66044 -10027475.53844  22642099.7944   22642099.7944
 -16884190.21844 -13156504.95144  21169498.8774   21169499.0994
   -507483.37644   -395421.52044  24236116.4974   24236115.5424
 -13442252.97444 -10474474.63044  22504217.3684   22504218.0174
 96  3 23  3 40 30.0000000  0  7G 6G16G23G 5G20G24G17
 -22964853.84044 -17894678.50444  20674218.6454   20674217.3754
 -15201589.53644 -11845381.59344  21430923.9724   21430923.6694
  -3840738.14144  -2992780.94944  24381235.1094   24381239.5694
 -12768454.67644  -9949433.48144  22661158.6644   22661159.1514
 -16819791.45644 -13106324.10744  21181753.5864   21181753.8714
   -430194.03444   -335196.01644  24250823.5864   24250821.7614
 -13506180.01344 -10524287.89044  22492053.3684   22492053.0724
 96  3 23  3 41  0.0000000  0  7G 6G16G23G 5G20G24G17
 -23004518.64744 -17925586.13844  20666670.6764   20666669.7174
 -15152734.57044 -11807312.78744  21440220.7434   21440220.9024
  -3946320.61244  -3075052.93244  24361143.1514   24361145.9274
 -12668090.01444  -9871227.26044  22680257.3984   22680256.9554
 -16754945.79444 -13055795.02844  21194093.2894   21194093.1974
   -352961.96844   -275015.20944  24265520.4064   24265520.0674
 -13569898.00444 -10573938.24944  22479927.8914   22479927.8224
 96  3 23  3 41 30.0000000  0  7G 6G16G23G 5G20G24G17
 -23043911.78444 -17956282.07844  20659174.1974   20659173.4704
 -15103378.05444 -11768853.15944  21449612.9734   21449612.3644
  -4051817.66744  -3157258.33844  24341068.6644   24341070.5894
 -12567527.06644  -9792866.52344  22699393.9474   22699393.3444
 -16689652.63444 -13004917.25044  21206518.4504   21206518.3274
   -275767.73344   -214863.84944  24280209.9794   24280207.6634
 -13633383.24444 -10623407.24944  22467846.7354   22467846.6664
 96  3 23  3 42  0.0000000  0  7G 6G16G23G 5G20G24G17
 -23083030.59544 -17986764.26144  20651730.1144   20651729.3514
 -15053526.75244 -11730007.98144  21459099.6714   21459099.1704
  -4157215.61044  -3239386.53744  24321011.3504   24321011.8034
 -12466779.29544  -9714361.76444  22718565.2764   22718564.3014
 -16623901.66544 -12953682.73644  21219030.4794   21219030.1534
   -198598.37244   -154731.87244  24294893.5514   24294892.3964
 -13696641.53444 -10672699.40244  22455809.2484   22455809.4744
 96  3 23  3 42 30.0000000  0  7G 6G16G23G 5G20G24G17
 -23121880.03944 -18017036.55144  20644337.7604   20644336.2134
 -15003185.16144 -11690780.76044  21468679.1894   21468678.8744
  -4262509.74444  -3321433.84144  24300975.1964   24300974.9674
 -12365852.15844  -9635717.24944  22737771.6444   22737771.6764
 -16557667.88944 -12902072.01144  21231634.1484   21231633.9554
   -121446.65844    -94613.64744  24309574.7634   24309577.4104
 -13759682.91744 -10721822.53844  22443812.7664   22443813.6874
 96  3 23  3 43  0.0000000  0  7G 6G16G23G 5G20G24G17
 -23160453.68544 -18047093.93444  20636997.2894   20636995.8934
 -14952328.38044 -11651152.09744  21478356.5894   21478356.5604
  -4367698.43944  -3403398.97844  24280958.4254   24280959.4804
 -12264735.71544  -9556925.22844  22757013.1394   22757012.9144
 -16490931.61644 -12850069.72944  21244333.7904   21244333.9384
    -44303.65844    -34502.25944  24324253.6094   24324255.2104
 -13822500.57344 -10770771.34244  22431858.7384   22431858.9154
 96  3 23  3 43 30.0000000  0  7G 6G16G23G 5G20G24G17
 -23198760.09244 -18076943.07744  20629707.6924   20629706.7614
 -14900967.97744 -11611130.99144  21488130.4914   21488130.1194
  -4472776.43844  -3485277.88044  24260962.2244   24260963.8084
 -12163429.57444  -9477985.37644  22776291.1054   22776290.3824
 -16423716.31444 -12797694.17744  21257124.5014   21257124.5824
     32817.51544     25592.10144  24338929.3964   24338930.7684
 -13885100.54044 -10819550.52644  22419946.5934   22419946.8394
 96  3 23  3 44  0.0000000  0  7G 6G16G23G 5G20G24G17
 -23236816.16644 -18106597.15044  20622466.0294   20622465.1794
 -14849130.79044 -11570738.37744  21497994.3024   21497994.0094
  -4577764.57244  -3567086.69144  24240982.5424   24240986.4634
 -12061945.39344  -9398906.79844  22795602.7854   22795602.2964
 -16356054.57544 -12744970.74944  21269999.9094   21269999.6354
    109887.86044     85646.90144  24353597.9234   24353597.4514
 -13947511.51544 -10868182.43744  22408069.9504   22408070.4444
 96  3 23  3 44 30.0000000  0  7G 6G16G23G 5G20G24G17
 -23274594.75744 -18136035.00644  20615276.7594   20615275.6144
 -14796793.80944 -11529956.31244  21507954.3024   21507953.7034
  -4682665.69344  -3648827.78344  24221021.0774   24221021.5784
 -11960263.73844  -9319674.34644  22814952.4894   22814951.2374
 -16287946.39644 -12691899.44944  21282960.6234   21282960.4234
    186910.04644    145664.16644  24368254.5824   24368253.4564
 -14009712.07544 -10916650.39444  22396233.7054   22396234.2994
 96  3 23  3 45  0.0000000  0  7G 6G16G23G 5G20G24G17
 -23312095.38044 -18165256.26644  20608140.7254   20608139.2404
 -14743953.55644 -11488782.07644  21518009.3764   21518009.1624
  -4787480.27644  -3730501.43144  24201074.8794   24201077.9454
 -11858376.53644  -9240281.72544  22834341.1084   22834341.0084
 -16219409.59044 -12638494.15644  21296002.6674   21296003.0104
    263887.38344    205646.51144  24382902.2434   24382901.9084
 -14071694.35244 -10964948.24044  22384438.8464   22384439.0554
 96  3 23  3 45 30.0000000  0  7G 6G16G23G 5G20G24G17
 -23349310.67244 -18194255.19244  20601058.9034   20601057.7034
 -14690615.21744 -11447219.73044  21528159.0064   21528158.6124
  -4892180.39644  -3812085.83244  24181151.6454   24181153.2384
 -11756273.30044  -9160720.76844  22853770.6064   22853769.7634
 -16150437.48644 -12584749.67244  21309127.3984   21309127.7074
    340840.76944    265610.19944  24397547.2284   24397546.4014
 -14133449.09344 -11013068.79644  22372687.6754   22372687.8684
 96  3 23  3 46  0.0000000  0  7G 6G16G23G 5G20G24G17
 -23386236.81044 -18223028.79844  20594032.1214   20594031.1394
 -14636753.93544 -11405249.89444  21538408.5584   21538408.0884
  -4996763.18644  -3893578.84644  24161250.9074   24161250.1984
 -11653953.08644  -9080990.73544  22873241.6584   22873241.3114
 -16081000.22044 -12530642.72744  21322340.7914   21322340.7944
    417777.23244    325560.71344  24412186.8744   24412183.7044
 -14194966.87744 -11061004.71444  22360981.3804   22360981.3014
 96  3 23  3 46 30.0000000  0  7G 6G16G23G 5G20G24G17
 -23422901.76344 -18251598.88844  20587055.0654   20587053.8384
 -14582391.73144 -11362889.73044  21548753.4514   21548752.7564
  -5101239.28744  -3974988.77344  24141369.7374   24141371.7904
 -11551438.74144  -9001109.43144  22892749.1304   22892748.4804
 -16011112.29844 -12476184.61544  21335640.0174   21335640.3304
    494670.51744    385477.66844  24426819.7054   24426813.8084
 -14256266.56344 -11108770.68044  22349316.2164   22349316.8024
 96  3 23  3 47  0.0000000  0  7G 6G16G23G 5G20G24G17
 -23459308.72644 -18279967.94644  20580126.8924   20580125.8444
 -14527545.23044 -11320152.19044  21559190.3554   21559189.9944
  -5205596.40144  -4056305.93244  24121510.1134   24121510.0614
 -11448746.89344  -8921089.82444  22912290.8264   22912290.1244
 -15940775.35544 -12421376.62244  21349025.0774   21349025.1544
    571532.01744    445369.74044  24441445.0764   24441445.7974
 -14317353.23144 -11156370.66044  22337691.4814   22337691.8754
 96  3 23  3 47 30.0000000  0  7G 6G16G23G 5G20G24G17
 -23495428.83244 -18308113.47544  20573253.3774   20573252.1984
 -14472222.07744 -11277043.23344  21569718.1174   21569717.7284
  -5309821.33044  -4137520.11044  24101678.0234   24101679.2444
 -11345866.04044  -8840922.93544  22931868.2514   22931868.2444
 -15869972.13644 -12366205.29044  21362498.3684   21362498.2454
    648378.23644    505249.88244  24456067.1144   24456071.5174
 -14378211.64744 -11203792.78244  22326110.6584   22326111.0284
 96  3 23  3 48  0.0000000  0  7G 6G16G23G 5G20G24G17
 -23531245.46344 -18336022.53444  20566437.9814   20566436.6564
 -14416426.31844 -11233566.01244  21580335.7344   21580335.2824
  -5413932.78244  -4218645.84044  24081864.8994   24081864.6854
 -11242793.66244  -8760606.79644  22951481.9504   22951481.4594
 -15798714.51944 -12310679.87844  21376058.5424   21376058.5854
    725202.00644    565112.49244  24470685.8974   24470686.5954
 -14438833.97444 -11251030.92744  22314574.4174   22314574.8794
 96  3 23  3 48 30.0000000  0  7G 6G16G23G 5G20G24G17
 -23566753.32144 -18363690.99244  20559680.7714   20559679.8314
 -14360184.67344 -11189741.35544  21591037.9294   21591037.5564
  -5517945.03744  -4299694.32344  24062072.0054   24062074.0724
 -11139543.10144  -8680151.83144  22971130.5804   22971130.1554
 -15727038.60844 -12254828.52544  21389697.6854   21389697.5664
    801999.89944    624954.96144  24485300.6754   24485303.8964
 -14499239.64944 -11298100.26144  22303079.6824   22303080.6754
 96  3 23  3 49  0.0000000  0  8G 6G16G23G 5G20G24G26G17
 -23601952.00244 -18391118.52744  20552982.9084   20552981.9374
 -14303495.06044 -11145567.62344  21601825.6864   21601825.2164
  -5621862.21044  -4380668.66744  24042297.1704   24042298.8724
 -11036121.98544  -8599563.96044  22990810.0014   22990809.6704
 -15654952.29344 -12198657.37644  21403415.2864   21403415.1994
    878776.05844    684780.55144  24499912.2084   24499913.4364
         0.07554                  24074394.1184
 -14559426.94244 -11344999.42544  22291626.5124   22291626.6304
 96  3 23  3 49 30.0000000  0  7G 6G16G23G 5G20G24G17
 -23636837.44144 -18418301.98144  20546344.1974   20546343.2494
 -14246346.94044 -11101036.61444  21612700.5984   21612700.1524
  -5725670.05444  -4461557.84144  24022544.1104   24022543.5164
 -10932519.44344  -8518834.71244  23010525.5724   23010525.3804
 -15582453.83844 -12142165.08044  21417211.1844   21417210.9904
    955518.18244    744579.57344  24514516.1824   24514517.0274
 -14619389.74544 -11391723.65644  22280215.9564   22280215.5714
 96  3 23  3 50  0.0000000  0  7G 6G16G23G 5G20G24G17
 -23671438.36744 -18445263.73744  20539760.0354   20539758.7914
 -14188752.58244 -11056157.89744  21623660.4214   21623659.9014
  -5829382.80344  -4542372.91344  24002807.6434   24002807.5514
 -10828781.08744  -8437999.62144  23030266.3214   23030265.3124
 -15509570.23844 -12085372.67844  21431080.8584   21431080.9754
   1032191.99544    804325.34644  24529107.1494   24529105.7304
 -14679162.16544 -11438299.54644  22268841.6464   22268841.6304
 96  3 23  3 50 30.0000000  0  7G 6G16G23G 5G20G24G17
 -23705746.21144 -18471997.11744  20533231.4844   20533230.3584
 -14130680.29144 -11010906.75144  21634711.4574   21634710.9774
  -5932953.62244  -4623077.43144  23983098.9384   23983099.2654
 -10724897.26944  -8357051.20244  23050034.6714   23050034.5634
 -15436272.48844 -12028257.55844  21445028.5844   21445028.9664
   1108820.15044    864035.59344  24543689.5184   24543688.3714
 -14738727.94744 -11484714.41944  22257506.5014   22257506.3434
 96  3 23  3 51  0.0000000  0  7G 6G16G23G 5G20G24G17
 -23739767.67444 -18498507.34444  20526757.3424   20526756.3154
 -14072114.48744 -10965271.06344  21645856.0774   21645855.5684
  -6036351.01644  -4703646.77444  23963422.5594   23963422.2934
 -10620869.53744  -8275990.63644  23069830.6424   23069829.6114
 -15362552.11244 -11970813.12144  21459057.1434   21459057.4924
   1185401.43644    923709.34544  24558260.6034   24558258.3624
 -14798073.87644 -11530957.98144  22246213.1674   22246212.9384
 96  3 23  3 51 30.0000000  0  7G 6G16G23G 5G20G24G17
 -23773497.95144 -18524790.67044  20520338.7504   20520337.5594
 -14013063.54344 -10919257.34144  21657093.1574   21657092.8494
  -6139576.90044  -4784082.46844  23943779.4924   23943781.9064
 -10516711.26844  -8194828.36044  23089651.1824   23089651.5754
 -15288416.03844 -11913044.76244  21473164.9814   21473165.1764
   1261923.33944    983336.85044  24572822.9514   24572818.1964
 -14857214.98244 -11577041.93944  22234959.4464   22234959.7504
 96  3 23  3 52  0.0000000  0  8G 6G16G23G 5G20G24G26G17
 -23806910.86544 -18550826.70244  20513980.3874   20513979.3574
 -13953499.87344 -10872844.09044  21668427.4274   21668427.1284
  -6242619.14744  -4864375.08644  23924171.8224   23924171.1874
 -10412406.74544  -8113552.11644  23109500.1344   23109500.6194
 -15213847.32844 -11854939.28844  21487354.9454   21487355.3084
   1338421.84344   1042946.13244  24587380.2564
        -1.22154                  23984707.8874
 -14916128.64344 -11622948.66344  22223748.6254   22223748.7734
 96  3 23  3 52 30.0000000  0  8G 6G16G23G 5G20G24G26G17
 -23839996.98744 -18576608.09244  20507684.3184   20507683.3054
 -13893420.84444 -10826029.25744  21679859.7684   21679859.3754
  -6345468.74744  -4944517.58644  23904600.0984   23904601.9524
 -10307932.29044  -8032143.44944  23129380.7234   23129379.8054
 -15138848.76544 -11796498.86344  21501626.4114   21501626.6844
   1414912.30244                  24601932.8914
    -78164.92644                  23969834.0164
 -14974796.21244 -11668663.63344  22212584.0564   22212584.7334
 96  3 23  3 53  0.0000000  0  8G 6G16G23G 5G20G24G26G17
 -23872755.32144 -18602134.06244  20501450.8624   20501449.5234
 -13832851.95544 -10778832.72044  21691385.9464   21691385.8694
  -6448151.16544  -5024529.82644  23885059.6314   23885060.9174
 -10203285.01944  -7950600.13144  23149294.2354   23149293.7354
 -15063427.12544 -11737728.76044  21515978.7884   21515978.8524
   1491393.91544                  24616486.5284
   -156208.58044                  23954983.4384
 -15033224.56644 -11714192.18444  22201465.7374   22201465.3714
 96  3 23  3 53 30.0000000  0  8G 6G16G23G 5G20G24G26G17
 -23905230.17944 -18627439.14244  20495271.0884   20495269.7684
 -13771855.33444 -10731302.88644  21702993.3274   21702993.0404
  -6550744.39144  -5104472.55844  23865536.8124   23865537.2234
 -10098500.97544  -7868950.23844  23169233.9764   23169233.8024
 -14987625.52544 -11678662.58944  21530403.1454   21530403.4244
   1567828.05644   1221705.09344  24631034.0214   24631032.1324
   -234188.12444                  23940144.2774
 -15091468.27144 -11759576.86244  22190382.1674   22190382.4784
 96  3 23  3 54  0.0000000  0  8G 6G16G23G 5G20G24G26G17
 -23937437.81244 -18652535.99444  20489142.1884   20489141.1564
 -13710440.14444 -10683446.88944  21714679.9714   21714679.8544
  -6653254.71844  -5184350.70944  23846029.6914   23846030.3944
  -9993570.81544  -7787186.47844  23189202.3764   23189201.9504
 -14911455.64244 -11619309.44644  21544898.2104   21544898.5574
   1644217.57644   1281232.85644  24645571.8644   24645571.4264
   -312100.14144                  23925317.5844
 -15149525.30144 -11804816.08144  22179334.3884   22179334.2114
 96  3 23  3 54 30.0000000  0  7G 6G16G23G 5G20G24G17
 -23969395.01644 -18677437.71244  20483060.7284   20483059.6124
 -13648630.75544 -10635283.72944  21726442.4424   21726442.0814
  -6755687.17944  -5264168.16444  23826537.4524   23826538.6824
  -9888496.17444  -7705310.14344  23209196.6814   23209196.9984
 -14834923.12744 -11559673.72944  21559461.9484   21559462.0584
   1720543.77844   1340707.32244  24660097.6074   24660098.2204
 -15207399.16644 -11849912.57044  22168321.2994   22168321.5974
 96  3 23  3 55  0.0000000  0  7G 6G16G23G 5G20G24G17
 -24001084.28644 -18702130.64644  20477030.5474   20477029.5324
 -13586413.29744 -10586802.59144  21738282.0344   21738281.4454
  -6858031.53944  -5343916.97544  23807062.1774   23807062.0994
  -9783264.95244  -7623311.81144  23229220.9454   23229221.0004
 -14757999.84644 -11499733.51944  21574099.8454   21574099.7674
   1796819.77944   1400143.20244  24674611.4414   24674612.9814
 -15265076.77244 -11894856.12844  22157345.7214   22157345.9794
 96  3 23  3 55 30.0000000  0  8G 6G16G23G 5G20G24G26G17
 -24032466.23244 -18726584.10544  20471058.6334   20471057.3764
 -13523751.81944 -10537975.46544  21750206.0534   21750205.5784
  -6960239.53644  -5423559.53344  23787611.6754   23787612.7884
  -9677860.93944  -7541178.82344  23249279.5264   23249280.6374
 -14680669.05044 -11439475.76244  21588815.3124   21588815.6354
   1873054.12944   1459546.60244  24689118.3624   24689116.2724
        -0.23754                  23880926.8664
 -15322530.75844 -11939625.44444  22146412.3124   22146412.2314
 96  3 23  3 56  0.0000000  0  8G 6G16G23G 5G20G24G26G17
 -24063537.79444 -18750795.71044  20465146.0774   20465144.8334
 -13460667.37144 -10488818.75344  21762210.2254   21762209.6404
  -7062298.02944  -5503085.59544  23768191.2404   23768192.8054
  -9572317.86244  -7458937.48744  23269363.4374   23269363.1954
 -14602949.80844 -11378915.32344  21603604.5254   21603604.7824
   1949233.69944                  24703615.0494
    -77533.29644                  23866174.3354
 -15379773.00044 -11984229.75744  22135519.1964   22135519.8404
 96  3 23  3 56 30.0000000  0  6G16G23G 6G 5G20G17
 -13397149.92244 -10439324.63244  21774297.5584   21774297.3474
  -7164190.76044  -5582482.51344  23748801.7834   23748802.3454
 -24094263.76844 -18774738.02244  20459299.0224   20459298.0364
  -9466648.97644  -7376598.09844  23289471.9574   23289470.5644
 -14524822.82844 -11318037.16344  21618471.9554   21618472.1524
 -15436796.93044 -12028663.96544  22124668.2464   22124668.3184
 96  3 23  3 57  0.0000000  0  6G 6G16G23G 5G20G17
 -24124642.49344 -18798409.75444  20453517.9794   20453516.6854
 -13333214.96144 -10389505.17844  21786463.7054   21786463.1934
  -7265930.59744  -5661760.27144  23729441.4844   23729442.1544
  -9360894.28444  -7294191.83844  23309595.8044   23309595.7804
 -14446308.27444 -11256857.00044  21633412.8224   21633412.9944
 -15493631.80044 -12072950.86544  22113852.9424   22113853.0564
 96  3 23  3 57 30.0000000  0  6G 6G16G23G 5G20G17
 -24154642.59644 -18821786.45444  20447809.3054   20447807.9004
 -13268827.00044 -10339332.74744  21798716.0924   21798715.6694
  -7367469.02744  -5740881.11544  23710118.1354   23710119.0984
  -9255035.25344  -7211704.28544  23329740.3414   23329741.5834
 -14367378.24244 -11195353.09044  21648433.0544   21648432.7214
 -15550245.15444 -12117065.14644  22103080.1414   22103079.7424
 96  3 23  3 58  0.0000000  0  7G 6G16G23G 5G20G26G17
 -24184235.38544 -18844845.76944  20442177.9544   20442176.8204
 -13203943.76444 -10288774.38244  21811063.2814   21811062.7524
  -7468778.58344  -5819823.59244  23690840.0624   23690840.5674
  -9149036.98044  -7129108.24144  23349911.3634   23349909.7284
 -14287991.87744 -11133493.58844  21663539.5644   21663539.6604
        -0.08754                  23807426.8104
 -15606588.46944 -12160969.00644  22092357.5894   22092357.9194
 96  3 23  3 58 30.0000000  0  7G 6G16G23G 5G20G26G17
 -24213453.05144 -18867612.77844  20436617.8394   20436617.0404
 -13138569.79544 -10237833.62744  21823503.9454   21823502.8404
  -7569885.22744  -5898607.95544  23671600.5944   23671602.0054
  -9042906.77544  -7046409.39744  23370107.3354   23370107.7034
 -14208177.18944 -11071300.32944  21678727.7574   21678727.6664
    -76767.16144                  23792816.9234
 -15662665.02144 -12204665.01144  22081686.8604   22081687.0084
 96  3 23  3 59  0.0000000  0  7G 6G16G23G 5G20G26G17
 -24242326.80444 -18890111.80244  20431123.5914   20431122.4724
 -13072718.49644 -10186520.92444  21836034.3584   21836034.0294
  -7670794.33544  -5977238.38744  23652397.6154   23652398.3594
  -8936646.96344  -6963609.58444  23390327.7494   23390327.9354
 -14127953.68244 -11008788.50744  21693993.1674   21693993.5814
   -153395.40844                  23778236.8894
 -15718484.80244 -12248160.92944  22071064.8454   22071064.5644
 96  3 23  3 59 30.0000000  0  7G 6G16G23G 5G20G26G17
 -24270884.44844 -18912364.51344  20425689.1644   20425688.0494
 -13006409.88244 -10134851.87244  21848652.4314   21848652.4254
  -7771517.48144  -6055723.92744  23633231.1564   23633231.3794
  -8830256.08944  -6880707.60244  23410573.3864   23410573.4434
 -14047351.05644 -10945981.27544  21709331.5874   21709332.1104
   -229885.07744                  23763678.4924
 -15774049.24244 -12291457.87044  22060490.7174   22060491.0154
 96  3 23  4  0  0.0000000  0  7G 6G16G23G 5G20G26G17
 -24299137.36044 -18934379.76144  20420312.7464   20420311.7174
 -12939669.33844 -10082846.25144  21861353.2084   21861352.6174
  -7872076.71944  -6134081.74944  23614095.0754   23614095.0214
  -8723742.69344  -6797710.15144  23430841.6594   23430839.9714
 -13966408.35444 -10882909.05544  21724734.5054   21724734.5594
   -306241.52244                  23749148.8184
 -15829379.18044 -12334572.08344  22049961.6904   22049962.7504
 96  3 23  4  0 30.0000000  0  7G 6G16G23G 5G20G26G17
 -24327071.70844 -18956146.78444  20414997.2014   20414995.9514
 -12872501.13444 -10030507.39044  21874134.5554   21874133.9624
  -7972446.04044  -6212291.54844  23594994.9144   23594994.6134
  -8617101.24144  -6714612.91344  23451134.6954   23451134.4984
 -13885116.52344 -10819564.77844  21740204.0594   21740204.3074
   -382457.58244                  23734647.1014
 -15884474.44444 -12377503.43744  22039478.2214   22039477.9454
 96  3 23  4  1  0.0000000  0  7G 6G16G23G 5G20G26G17
 -24354727.26144 -18977696.56644  20409734.3784   20409733.2514
 -12804963.93444  -9977881.00344  21886986.5624   21886986.2284
  -8072670.37844  -6290388.40344  23575922.6664   23575922.8544
  -8510385.50644  -6631457.77944  23471441.6194   23471441.1614
 -13803513.03544 -10755977.65344  21755732.9474   21755733.0154
   -458554.62244                  23720165.9844
 -15939408.31744 -12420309.03444  22029024.4474   22029024.5974
 96  3 23  4  1 30.0000000  0  7G 6G16G23G 5G20G26G17
 -24382073.93944 -18999005.66344  20404530.7184   20404529.7264
 -12737042.85544  -9924955.48444  21899911.9004   21899911.5304
  -8172739.13044  -6368364.02044  23556880.3664   23556881.7994
  -8403586.50944  -6548237.79544  23491765.5724   23491765.2224
 -13721586.66244 -10692138.92444  21771322.9784   21771322.9394
   -534510.16844                  23705712.6314
 -15994162.83344 -12462974.87344  22018604.6064   22018604.9724
 96  3 23  4  2  0.0000000  0  7G 6G16G23G 5G20G26G17
 -24409075.70344 -19020045.99844  20399392.4004   20399391.1724
 -12668713.30544  -9871711.67144  21912914.7534   21912914.4754
  -8272633.79644  -6446203.98544  23537871.3554   23537872.6414
  -8296701.41344  -6464950.72744  23512105.0544   23512105.1364
 -13639302.24844 -10628021.20744  21786981.2714   21786981.1544
   -610313.29244                  23691286.0244
 -16048725.24444 -12505491.01744  22008222.1974   22008222.1624
 96  3 23  4  2 30.0000000  0  7G 6G16G23G 5G20G26G17
 -24435742.78744 -19040825.54544  20394317.4664   20394316.5894
 -12599986.07844  -9818157.99444  21925992.6234   21925992.4474
  -8372376.17944  -6523925.29844  23518891.6994   23518891.7724
  -8189744.52544  -6381607.71144  23532458.6084   23532458.4214
 -13556648.46344 -10563615.65544  21802709.5984   21802709.8954
   -685961.96144                  23676892.3994
 -16103100.14044 -12547861.03344  21997874.2864   21997874.4494
 96  3 23  4  3  0.0000000  0  8G 6G16G23G 5G20G22G26G17
 -24462062.10044 -19061334.09944  20389309.3754   20389308.0404
 -12530850.54544  -9764286.15544  21939149.0944   21939148.4774
  -8471965.22744  -6601527.11844  23499940.6534   23499940.2134
  -8082704.72844  -6298200.09644  23552827.6254   23552828.2654
 -13473622.74444 -10498920.29244  21818508.9804   21818509.0494
        -0.61154        -0.15354  24878792.3734
   -761438.92344                  23662528.9864
 -16157275.73644 -12590075.75644  21987565.3704   21987565.5124
 96  3 23  4  3 30.0000000  0  8G 6G16G23G 5G20G22G26G17
 -24488031.04144 -19081569.63944  20384367.5864   20384366.2974
 -12461309.33144  -9710098.18844  21952382.1424   21952381.6654
  -8571389.66644  -6679000.68744  23481020.8884   23481020.3274
  -7975584.67344  -6214729.93544  23573211.9264   23573211.3064
 -13390245.06944 -10433950.68044  21834374.8474   21834374.8944
    -82217.33744                  24863147.7634
   -836754.32544                  23648196.2254
 -16211236.34944 -12632122.96744  21977297.2504   21977296.9884
 96  3 23  4  4  0.0000000  0  7G 6G16G23G 5G20G26G17
 -24513646.69044 -19101529.88344  20379493.1054   20379492.2484
 -12391360.01844  -9655592.22944  21965692.7734   21965692.2574
  -8670633.10544  -6756333.21744  23462134.6974   23462135.2434
  -7868372.55444  -6131188.04444  23593613.1044   23593611.8134
 -13306504.57844 -10368698.35544  21850309.7774   21850310.0874
   -911887.54144                  23633898.6514
 -16264975.66044 -12673997.72844  21967071.1694   21967071.0454
 96  3 23  4  4 30.0000000  0  7G 6G16G23G 5G20G26G17
 -24538913.25044 -19121218.11344  20374685.0374   20374683.8704
 -12320994.24544  -9600761.76344  21979083.3384   21979082.9224
  -8769672.06544  -6833506.40044  23443288.3234   23443289.4404
  -7761056.69644  -6047565.28444  23614034.6034   23614034.4594
 -13222407.57244 -10303168.23244  21866313.3264   21866313.6234
   -986823.70444                  23619640.1414
 -16318483.42844 -12715692.06744  21956888.8994   21956888.9234
 96  3 23  4  5  0.0000000  0  8G 6G16G23G 5G20G22G26G17
 -24563790.24544 -19140602.78644  20369950.9214   20369949.9624
 -12250178.80444  -9545580.89344  21992558.9314   21992558.7714
  -8868445.03944  -6910472.33344  23424491.9324   23424491.9524
  -7653610.77044  -5963841.20144  23634481.1604   23634480.8444
 -13137942.14044 -10237351.02344  21882386.5454   21882386.9734
         0.22654                  24816615.7024
  -1061537.64944                  23605421.8794
 -16371733.01444 -12757185.21344  21946756.1644   21946755.8554
 96  3 23  4  5 30.0000000  0  8G 6G16G23G 5G20G22G26G17
 -24588328.98944 -19159723.88344  20365281.4354   20365280.3824
 -12178948.83244  -9490077.02144  22006113.2134   22006113.1404
  -8966989.40944  -6987260.11944  23405739.0314   23405740.0994
  -7546081.58344  -5880052.23044  23654942.9924   23654943.5424
 -13053148.06344 -10171277.72244  21898522.5534   21898522.9694
    -80784.16144                  24801244.5454
  -1136068.17544   -885248.12644  23591239.2514
 -16424756.19444 -12798501.95444  21936665.3144   21936664.9764
 96  3 23  4  6  0.0000000  0  8G 6G16G23G 5G20G22G26G17
 -24612554.40544 -19178600.82744  20360671.4614   20360670.2294
 -12107321.00344  -9434263.12644  22019743.6484   22019743.1764
  -9065322.14644  -7063883.01144  23387027.7924   23387028.1904
  -7438493.12444  -5796217.06444  23675416.4124   23675413.6734
 -12968031.34544 -10104953.01644  21914719.8254   21914719.6424
   -161236.76244                  24785932.8014
  -1210421.57944   -943185.82744  23577090.4874
 -16477562.81244 -12839649.94544  21926616.4914   21926616.7884
 96  3 23  4  6 30.0000000  0  8G 6G16G23G 5G20G22G26G17
 -24636454.76644 -19197224.48744  20356123.3694   20356122.1794
 -12035289.34244  -9378134.56244  22033450.9164   22033450.5784
  -9163427.78144  -7140328.92144  23368359.1224   23368358.8864
  -7330849.72844  -5712339.10644  23695900.9894   23695900.6194
 -12882599.10044 -10038382.44644  21930977.4254   21930977.5614
   -241367.37344                  24770684.5014
  -1284592.53644  -1000981.36344  23562976.6454   23562972.1364
 -16530146.48644 -12880624.20844  21916610.4574   21916610.3734
 96  3 23  4  7  0.0000000  0  8G 6G16G23G 5G20G22G26G17
 -24660037.05844 -19215600.29744  20351635.7084   20351634.8944
 -11962876.71644  -9321709.14544  22047230.5184   22047230.6914
  -9261338.13044  -7216622.70044  23349727.3864   23349726.7744
  -7223160.38444  -5628425.34644  23716393.6054   23716393.1214
 -12796857.17944  -9971570.56844  21947293.1624   21947293.0434
   -321195.65744   -250281.58544  24755494.0494
  -1358594.64344  -1058645.34944  23548894.2884
 -16582518.87144 -12921433.82544  21906644.1184   21906643.7574
 96  3 23  4  7 30.0000000  0  8G 6G16G23G 5G20G22G26G17
 -24683331.10444 -19233751.49544  20347203.0284   20347201.9794
 -11890114.22544  -9265011.09544  22061076.6404   22061076.5164
  -9359085.82344  -7292789.70944  23331125.2304   23331126.2604
  -7115441.87944  -5544488.84744  23736891.0094   23736891.0614
 -12710817.18244  -9904526.41744  21963665.8414   21963665.3334
   -400752.20744                  24740353.2374
  -1432448.06844  -1116193.45944  23534839.1334   23534840.2074
 -16634696.61344 -12962091.78744  21896715.2974   21896715.5114
 96  3 23  4  8  0.0000000  0  8G 6G16G23G 5G20G22G26G17
 -24706323.03744 -19251667.28744  20342827.9514   20342826.8014
 -11817029.04844  -9208061.60144  22074984.1644   22074983.7144
  -9456688.42944  -7368843.64944  23312552.3394   23312554.0274
  -7007704.31544  -5460537.51844  23757392.8984   23757392.9904
 -12624497.60144  -9837264.41344  21980091.4584   21980091.1504
   -480066.35844                  24725260.8234
  -1506169.03044  -1173638.33144  23520811.4194   23520813.0044
 -16686713.96644 -13002624.76544  21886816.6824   21886816.6084
 96  3 23  4  8 30.0000000  0  8G 6G16G23G 5G20G22G26G17
 -24728964.65144 -19269310.10244  20338519.3974   20338518.5534
 -11743600.51044  -9150844.55844  22088957.2564   22088957.3044
  -9554136.72644  -7444777.37644  23294008.6554   23294010.1414
  -6899921.67644  -5376551.04644  23777903.1874   23777902.5764
 -12537873.58144  -9769765.18444  21996576.0524   21996575.7324
   -559131.67444                  24710212.0784
  -1579740.52644  -1230966.73944  23506811.2064   23506812.9664
 -16738564.03944 -13043027.39144  21876949.8174   21876949.8004
 96  3 23  4  9  0.0000000  0  8G 6G16G23G 5G20G22G26G17
 -24751242.71244 -19286669.62844  20334280.0684   20334278.8394
 -11669829.64944  -9093360.78044  22102995.4294   22102995.6064
  -9651434.83444  -7520594.05744  23275493.1704   23275493.6184
  -6792079.78744  -5292518.40644  23798425.2174   23798426.9544
 -12450922.71944  -9702011.27744  22013122.2884   22013122.5724
   -637938.53444                  24695214.0414
  -1653153.67244  -1288171.79644  23492841.6254   23492840.1364
 -16790242.92044 -13083296.62544  21867115.4914   21867115.5614
 96  3 23  4  9 30.0000000  0  8G 6G16G23G 5G20G22G26G17
 -24773165.81144 -19303752.56144  20330108.1014   20330106.8504
 -11595747.78644  -9035634.65244  22117092.6704   22117092.8454
  -9748590.37644  -7596299.64844  23257005.6894   23257006.5294
  -6684216.99344  -5208469.49744  23818950.3394   23818950.7924
 -12363676.59744  -9634027.29344  22029724.2484   22029724.5574
   -716480.82544                  24680269.1844
  -1726418.58644  -1345261.32044  23478899.8874   23478897.7634
 -16841774.44944 -13123451.04244  21857309.3584   21857309.1964
 96  3 23  4 10  0.0000000  0  7G 6G16G23G 5G20G26G17
 -24794634.64844 -19320481.52644  20326022.8304   20326021.6534
 -11521258.43044  -8977590.98944  22131267.2914   22131266.9214
  -9845512.43344  -7671823.30444  23238561.9864   23238562.6674
  -6576257.95144  -5124345.57744  23839494.7084   23839496.1084
 -12276051.03744  -9565747.64544  22046399.2634   22046400.1034
  -1799432.28744  -1402155.09744  23465005.7034   23465006.0594
 -16893069.61144 -13163421.28144  21847548.2124   21847548.2564
 96  3 23  4 10 30.0000000  0  7G 6G16G23G 5G20G26G17
 -24815676.03744 -19336877.41244  20322018.8264   20322017.5644
 -11446361.45344  -8919229.69944  22145520.2854   22145519.9714
  -9942191.19944  -7747157.38244  23220164.7914   23220164.2234
  -6468203.66744  -5040147.44944  23860056.8204   23860057.2304
 -12188056.38244  -9497180.39744  22063144.5484   22063144.6794
  -1872180.65144  -1458842.10644  23451161.9654   23451164.4644
 -16944110.22644 -13203193.17744  21837835.7704   21837835.5134
 96  3 23  4 11  0.0000000  0  7G 6G16G23G 5G20G26G17
 -24836321.14044 -19352964.50444  20318089.9234   20318088.8204
 -11371062.91544  -8860555.52244  22159848.7904   22159848.2734
 -10038611.92544  -7822290.41144  23201816.7394   23201816.4644
  -6360064.49944  -4955883.15144  23880634.7954   23880635.7014
 -12099721.01244  -9428347.65244  22079953.8954   22079954.1714
  -1944657.71244  -1515317.74044  23437369.9934   23437367.8284
 -16994889.09644 -13242761.10344  21828172.9694   21828172.5744
 96  3 23  4 11 30.0000000  0  8G 6G16G23G 5G20G22G26G17
 -24856513.93744 -19368699.15144  20314247.6514   20314246.2714
 -11295295.40944  -8801515.91644  22174267.1734   22174266.6204
 -10134709.96544  -7897171.97744  23183529.7974   23183530.1324
  -6251787.56144  -4871511.51844  23901239.7964   23901240.0964
 -12011008.41444  -9359220.95644  22096835.2484   22096835.1094
        -0.65154                  24621242.4984
  -2016804.44944  -1571535.97344  23423641.3304   23423640.1594
 -17045341.48144 -13282074.63244  21818571.8704   21818571.4694
 96  3 23  4 12  0.0000000  0  8G 6G16G23G 5G20G22G26G17
 -24876326.51744 -19384137.52444  20310477.3284   20310476.2324
 -11219116.43444  -8742155.67744  22188763.8124   22188763.6854
 -10230541.58144  -7971845.95444  23165294.1784   23165293.5854
  -6143426.37544  -4787074.23344  23921860.3424   23921860.5784
 -11921981.14444  -9289849.06144  22113776.2794   22113776.3704
    -76495.70044                  24606686.0534
  -2088684.10244  -1627546.07244  23409961.6764   23409960.1204
 -17095535.26144 -13321186.64244  21809020.3674   21809020.2514
 96  3 23  4 12 30.0000000  0  8G 6G16G23G 5G20G22G26G17
 -24895788.29544 -19399302.54544  20306773.8984   20306773.0764
 -11142559.55544  -8682500.97144  22203331.6994   22203331.5074
 -10326126.08344  -8046327.36644  23147104.9284   23147105.1224
  -6034996.78044  -4702583.65744  23942493.8534   23942494.9324
 -11832677.28744  -9220261.63844  22130770.5014   22130770.6444
   -152636.67344   -118936.89144  24592196.3824
  -2160329.96044  -1683374.00244  23396329.4184   23396328.2464
 -17145502.13044 -13360121.84044  21799512.2654   21799512.1724
 96  3 23  4 13  0.0000000  0  8G 6G16G23G 5G20G22G26G17
 -24914893.32244 -19414189.57844  20303138.4834   20303137.2544
 -11065649.43744  -8622571.00744  22217967.1724   22217966.7574
 -10421497.31644  -8120642.58544  23128956.4734   23128956.6784
  -5926540.75144  -4618072.49244  23963132.2074   23963133.2964
 -11743112.55844  -9150470.95444  22147813.5934   22147813.9984
   -228465.08944   -178023.92944  24577767.3664
  -2231768.80244  -1739040.62344  23382734.3294   23382733.0864
 -17195281.55444 -13398910.98544  21790038.8204   21790038.9644
 96  3 23  4 13 30.0000000  0  8G 6G16G23G 5G20G22G26G17
 -24933604.47244 -19428769.69444  20299577.7284   20299576.6014
 -10988373.88344  -8562356.28644  22232672.3704   22232671.9294
 -10516645.60044  -8194784.08644  23110850.1624   23110850.1554
  -5818045.74744  -4533530.97144  23983778.2634   23983780.0204
 -11653257.06644  -9080453.69844  22164912.7324   22164913.3224
   -303964.62344                  24563400.2324
  -2302983.52344  -1794532.58844  23369182.1874   23369182.6424
 -17244866.22344 -13437548.37344  21780603.3004   21780603.0474
 96  3 23  4 14  0.0000000  0  7G 6G16G23G 5G20G26G17
 -24952000.81344 -19443104.50444  20296076.9504   20296075.8914
 -10910801.98144  -8501910.65444  22247434.1384   22247433.3264
 -10611636.88644  -8268803.24144  23092773.2914   23092774.6964
  -5709579.52344  -4449011.80444  24004419.6644   24004417.6914
 -11563174.94944  -9010259.85044  22182054.9424   22182055.4684
  -2374032.86544  -1849895.68844  23355661.7844   23355660.6144
 -17294329.89544 -13476091.46744  21771191.0244   21771190.6444
 96  3 23  4 14 30.0000000  0  8G 6G16G23G 5G20G22G26G17
 -24970058.53744 -19457175.46144  20292640.7804   20292639.3934
 -10832906.14044  -8441212.59544  22262256.9734   22262256.9334
 -10706458.23744  -8342689.98744  23074729.8334   23074729.4124
  -5601126.34944  -4364502.84244  24025056.7434
 -11472853.16144  -8939879.24744  22199242.7794   22199242.9744
        -1.10654                  24534834.1924
  -2444891.28144  -1905110.03644  23342178.9674   23342176.5754
 -17343647.30144 -13514520.59544  21761806.2594   21761806.3034
 96  3 23  4 15  0.0000000  0  8G 6G16G23G 5G20G22G26G17
 -24987691.97844 -19470915.80544  20289285.1694   20289283.8154
 -10754600.36144  -8380195.10444  22277157.8384   22277157.6804
 -10801032.51644  -8416384.21044  23056732.2244   23056733.8044
  -5492621.35744  -4279953.55344  24045704.7234
 -11382199.05544  -8869239.69244  22216493.6734   22216494.1884
    -74494.41544    -58047.23644  24520659.9434
  -2515471.24344  -1960107.40944  23328747.1374   23328746.4704
 -17392731.61944 -13552768.11444  21752465.8184   21752465.9064
 96  3 23  4 15 30.0000000  0  8G 6G16G23G 5G20G22G26G17
 -25004957.73344 -19484369.63844  20285999.9244   20285998.7394
 -10675915.50744  -8318882.23144  22292131.1254   22292131.1144
 -10895362.12744  -8489887.77944  23038782.2674   23038783.1064
  -5384089.93044                  24066356.8814
 -11291250.65044  -8798370.80644  22233800.7034   22233800.4944
   -148584.62744   -115779.84144  24506564.2964
  -2585808.58644  -2014915.68744  23315362.7854   23315362.5394
 -17441588.92944 -13590838.72944  21743168.6584   21743168.6054
 96  3 23  4 16  0.0000000  0  8G 6G16G23G 5G20G22G26G17
 -25021866.63844 -19497545.41144  20282782.0604   20282780.7194
 -10596866.10544  -8257285.30644  22307173.7444   22307173.2104
 -10989444.54544  -8563198.74244  23020879.1394   23020878.8304
  -5275546.30244                  24087012.5564
 -11200027.14544  -8727287.56044  22251159.5394   22251159.9254
   -222295.99044   -173217.17744  24492534.0224
  -2655908.32744  -2069538.84744  23302024.1544   23302024.7024
 -17490229.48744 -13628740.43844  21733912.7354   21733912.1974
 96  3 23  4 16 30.0000000  0  8G 6G16G23G 5G20G22G26G17
 -25038392.57944 -19510422.76944  20279637.1324   20279636.2394
 -10517461.18144  -8195411.33544  22322284.0284   22322283.6284
 -11083272.61044  -8636311.49844  23003024.2814   23003024.8644
  -5166999.01744                  24107666.6224
 -11108521.25644  -8655984.28044  22268573.0364   22268573.1084
   -295631.65744   -230361.82844  24478579.9354
  -2725767.12744  -2123974.26144  23288729.2374   23288729.1854
 -17538636.89144 -13666460.46544  21724700.6424   21724700.7314
 96  3 23  4 17  0.0000000  0  8G 6G16G23G 5G20G22G26G17
 -25054553.05544 -19523015.34744  20276561.8914   20276560.7844
 -10437728.14944  -8133281.69244  22337456.2454   22337456.1464
 -11176852.63044  -8709230.98144  22985217.5984   22985217.4334
  -5058466.53644                  24128322.2194
 -11016749.31044  -8584473.67944  22286036.5444   22286036.8294
   -368625.92544                  24464688.7404
  -2795393.94544  -2178228.91744  23275480.5104   23275480.9354
 -17586818.23544 -13704004.35044  21715531.6974   21715532.0114
 96  3 23  4 17 30.0000000  0  8G 6G16G23G 5G20G22G26G17
 -25070367.03144 -19535337.92744  20273552.6544   20273551.6064
 -10357708.29944  -8070928.56844  22352683.7954   22352683.5854
 -11270199.12444  -8781968.49444  22967453.8034   22967453.1654
  -4949964.04344                  24148969.3494
 -10924747.71344  -8512784.14044  22303543.8254   22303544.0994
   -441314.91044   -343881.33244  24450857.2774
  -2864800.79844  -2232312.16744  23262272.0904   23262271.7014
 -17634797.62944 -13741390.88644  21706401.8894   21706401.7554
 96  3 23  4 18  0.0000000  0  8G 6G16G23G 5G20G22G26G17
 -25085817.59844 -19547377.33144  20270612.4934   20270611.3674
 -10277420.50544  -8008366.65444  22367962.5834   22367961.9764
 -11363337.30244  -8854543.68344  22949730.1954   22949729.6004
  -4841485.76344                  24169609.1314
 -10832505.94944  -8440907.44444  22321096.7964   22321096.5974
   -513700.88544   -400285.92744  24437080.6864
  -2933967.54744  -2286208.32844  23249109.7784   23249109.1294
 -17682586.51344 -13778628.94644  21697307.7714   21697307.4124
 96  3 23  4 18 30.0000000  0  7G 6G16G23G20G22G26G17
 -25100898.68744 -19559128.82844  20267742.6344   20267741.5164
 -10196849.70044  -7945584.21544  22383294.4824   22383293.9424
 -11456266.79444  -8926956.26844  22932046.2904   22932046.0334
 -10740000.64544  -8368825.39044  22338699.7794   22338700.1504
   -585755.63244   -456432.44244  24423367.4024
  -3002875.06944  -2339902.48544  23235997.9054   23235996.6754
 -17730163.43944 -13815701.85944  21688254.7214   21688254.0114
 96  3 23  4 19  0.0000000  0  7G 6G16G23G20G22G26G17
 -25115613.92044 -19570595.24644  20264942.7234   20264941.4084
 -10115997.29044  -7882582.32544  22398679.8154   22398679.6394
 -11548988.40644  -8999206.86044  22914401.3474   22914402.4034
 -10647244.99244  -8296548.26844  22356350.6754   22356350.9394
   -657477.51844                  24409719.5404
  -3071529.33644  -2393399.30844  23222933.1964   23222931.5384
 -17777547.86844 -13852624.78044  21679237.4504   21679237.0124
 96  3 23  4 19 30.0000000  0  7G 6G16G23G20G22G26G17
 -25129926.69544 -19581748.05444  20262218.8784   20262217.6954
 -10034844.70644  -7819346.54744  22414122.1304   22414122.6324
 -11641479.31244  -9071277.67144  22896800.3444   22896801.5514
 -10554212.40044  -8224055.34044  22374054.1884   22374054.6154
   -728820.50344                  24396143.8174
  -3139909.49944  -2446682.53144  23209921.1924   23209920.6814
 -17824727.73544 -13889388.28644  21670259.4484   21670259.4174
 96  3 23  4 20  0.0000000  0  7G 6G16G23G20G22G26G17
 -25143847.61344 -19592595.52344  20259569.8264   20259568.7714
  -9953379.36244  -7755867.07444  22429625.2234   22429624.5514
 -11733749.16944  -9143176.24744  22879242.0984   22879242.4184
 -10460914.86744  -8151355.96644  22391808.2804   22391808.6494
   -799783.79744   -623207.62244  24382639.4514
  -3208021.56444  -2499756.86244  23196959.2204   23196959.3634
 -17871721.32644 -13926006.66244  21661316.8484   21661316.9294
 96  3 23  4 20 30.0000000  0  7G 6G16G23G20G22G26G17
 -25157353.73544 -19603119.77644  20256999.7854   20256998.5214
  -9871566.07144  -7692116.46044  22445194.0204   22445193.2694
 -11825763.64544  -9214875.82144  22861731.7754   22861733.1374
 -10367372.15344  -8078465.55644  22409608.5684   22409609.2904
   -870355.55344   -678198.58344  24369212.8154   24369208.6964
  -3275863.56944  -2552620.73644  23184048.9504   23184048.2324
 -17918526.81444 -13962478.44344  21652410.2574   21652409.9284
 96  3 23  4 21  0.0000000  0  7G 6G16G23G20G22G26G17
 -25170420.34144 -19613301.54844  20254513.1074   20254511.9624
  -9789400.79644  -7628091.56844  22460829.2054   22460828.6264
 -11917495.62144  -9286355.25444  22844276.8104   22844277.1894
 -10273584.99644  -8005384.66544  22427455.2554   22427456.0664
   -940522.38844   -732874.07444  24355859.0704
  -3343423.20344  -2605264.60044  23171193.5974   23171191.9994
 -17965138.40844 -13998799.15044  21643540.0304   21643540.1104
 96  3 23  4 21 30.0000000  0  7G 6G16G23G20G22G26G17
 -25183058.92344 -19623149.79544  20252108.3164   20252106.9894
  -9706884.55444  -7563793.19644  22476531.0634   22476530.4534
 -12008943.47544  -9357613.31044  22826875.3564   22826875.0624
 -10179550.37944  -7932110.95444  22445350.2214   22445350.6734
  -1010278.14844   -787229.10844  24342584.2864
  -3410689.25844  -2657679.68844  23158392.9304   23158391.2694
 -18011541.26544 -14034957.20544  21634710.0424   21634710.0034
 96  3 23  4 22  0.0000000  0  7G 6G16G23G20G22G26G17
 -25195276.55644 -19632670.03044  20249782.9804   20249781.9514
  -9624020.98544  -7499224.18444  22492299.2714   22492298.8934
 -12100111.58244  -9428653.38844  22809526.6994   22809525.4214
 -10085285.70544  -7858657.96044  22463287.7774   22463287.5774
  -1079631.25744   -841270.49444  24329386.3124   24329386.6274
  -3477672.54644  -2709874.44944  23145646.3984   23145644.9354
 -18057734.31444 -14070951.76544  21625919.6174   21625919.2724
 96  3 23  4 22 30.0000000  0  7G 6G16G23G20G22G26G17
 -25207056.37144 -19641849.10344  20247541.3914   20247540.2974
  -9540825.58544  -7434396.59544  22508131.1984   22508131.1654
 -12190979.17644  -9499459.29444  22792235.5084   22792235.3094
  -9990783.66144  -7785020.00544  22481270.8114   22481271.4634
  -1148571.28444   -894989.97344  24316268.2384   24316266.3084
  -3544369.48444  -2761846.06944  23132954.3394   23132952.7124
 -18103698.94044 -14106768.33744  21617173.0364   21617172.9694
 96  3 23  4 23  0.0000000  0  7G 6G16G23G20G22G26G17
 -25218429.04244 -19650710.92644  20245377.5604   20245376.3374
  -9457321.79344  -7369328.70944  22524022.3004   22524021.8424
 -12281559.52044  -9570041.36744  22774997.9354   22774997.6074
  -9896030.20144  -7711186.14244  22499301.9244   22499302.3234
  -1217101.93444   -948390.49244  24303226.3224
  -3610775.22844  -2813590.79244  23120317.5134   23120317.1774
 -18149420.46644 -14142395.47844  21608472.0904   21608472.4714
 96  3 23  4 23 30.0000000  0  7G 6G16G23G20G22G26G17
 -25229392.38744 -19659253.79244  20243291.1954   20243290.2244
  -9373495.93544  -7304009.85744  22539973.3474   22539972.4594
 -12371839.60844  -9640389.45944  22757817.8894   22757818.3464
  -9801027.24644  -7637157.87044  22517380.6064   22517380.9984
  -1285212.18944  -1001463.42944  24290265.8114   24290263.5704
  -3676882.02044  -2865102.56144  23107738.3314   23107737.8044
 -18194893.45944 -14177828.96044  21599819.0014   21599818.9704
 96  3 23  4 24  0.0000000  0  7G 6G16G23G20G22G26G17
 -25239949.31144 -19667479.96644  20241282.3684   20241281.2124
  -9289361.92944  -7238450.89244  22555983.2404   22555983.5184
 -12461815.32644  -9710500.38344  22740695.5564   22740695.8684
  -9705793.80244  -7562949.99744  22535502.6044   22535503.1414
  -1352907.73344  -1054213.14744  24277382.3624
  -3742688.61944  -2916380.42044  23095215.5464   23095215.7574
 -18240147.12944 -14213091.54244  21591207.5094   21591207.4894
 96  3 23  4 24 30.0000000  0  7G 6G16G23G20G22G26G17
 -25250131.43144 -19675414.09044  20239344.5034   20239343.3894
  -9204947.72344  -7172673.58644  22572046.8224   22572046.4154
 -12551510.81544  -9780392.94944  22723627.0424   22723627.7304
  -9610339.03244  -7488569.68244  22553667.6974   22553667.5884
  -1420211.28744  -1106657.37944  24264574.9054
  -3808196.48644  -2967425.48344  23082749.7544   23082748.0034
 -18285201.67644 -14248198.95944  21582633.8104   21582633.4644
 96  3 23  4 25  0.0000000  0  7G 6G16G23G20G22G26G17
 -25259934.27344 -19683052.67244  20237479.4534   20237478.2294
  -9120227.11744  -7106657.52844  22588169.0234   22588168.1374
 -12640927.07944  -9850067.93744  22706612.5844   22706612.4344
  -9514650.49444  -7414007.19544  22571876.6484   22571876.8804
  -1487106.06144  -1158783.30244  24251845.8314
  -3873390.81644  -3018226.25144  23070343.5144   23070342.4124
 -18330052.06344 -14283147.30044  21574099.2034   21574098.9394
 96  3 23  4 25 30.0000000  0  7G 6G16G23G20G22G26G17
 -25269362.56844 -19690399.39944  20235685.1344   20235683.9774
  -9035230.76944  -7040426.61244  22604343.1594   22604342.7044
 -12730098.19944  -9919551.90544  22689643.9244   22689643.5914
  -9418773.11244  -7339297.56244  22590121.2954   22590121.4584
  -1553622.43844  -1210614.17444  24239187.8854
  -3938301.47744  -3068805.97444  23057991.5234   23057989.9004
 -18374756.01144 -14317981.52644  21565592.2484   21565591.7994
 96  3 23  4 26  0.0000000  0  7G17G 6G16G23G20G22G26
 -18419309.68444 -14352698.65244  21557113.9974   21557113.7784
 -25278409.17644 -19697448.70344  20233963.7204   20233962.4884
  -8949972.39644  -6973991.51544  22620567.5654   22620566.1274
 -12819043.46644  -9988859.88544  22672718.3894   22672717.4154
  -9322702.12344  -7264437.05944  22608403.2364   22608403.4094
  -1619775.35144  -1262161.95044  24226600.1554   24226600.6794
  -4002919.22144  -3119157.45344  23045695.1944   23045694.4134
 96  3 23  4 26 30.0000000  0  7G17G 6G16G23G20G22G26
 -18463686.42544 -14387277.91644  21548669.4044   21548669.3494
 -25287052.60444 -19704183.84244  20232318.9794   20232317.7994
  -8864442.02144  -6907344.47544  22636842.8404   22636842.6404
 -12907766.06544 -10057994.37144  22655834.4904   22655834.1304
  -9226416.86244  -7189409.58144  22626725.5834   22626725.2874
  -1685562.54644  -1313424.68444  24214081.5864   24214082.6104
  -4067245.82444  -3169282.06644  23033454.1934   23033453.2914
 96  3 23  4 27  0.0000000  0  7G17G 6G16G23G20G22G26
 -18507878.70144 -14421713.44844  21540259.6854   21540259.5344
 -25295260.65544 -19710579.72844  20230757.0114   20230755.9174
  -8778622.97944  -6840472.51044  22653173.5594   22653173.5214
 -12996248.49144 -10126941.69644  22638996.4994   22638996.8114
  -9129917.79344  -7114215.50844  22645088.6684   22645088.2144
  -1750969.29344  -1364390.94044  24201634.4564   24201633.8664
  -4131282.42244  -3219180.69544  23021268.2894   23021268.0014
 96  3 23  4 27 30.0000000  0  7G17G 6G16G23G20G22G26
 -18551870.38244 -14455992.67444  21531888.2614   21531888.4144
 -25303009.41344 -19716617.72444  20229282.2924   20229281.2894
  -8692526.41744  -6773384.27444  22669557.7524   22669557.1614
 -13084474.97544 -10195689.58344  22622207.6084   22622208.0454
  -9033193.96444  -7038846.29144  22663493.9674   22663494.3094
  -1815991.44444  -1415057.49444  24189261.6344   24189259.3264
  -4195012.74644  -3268840.67444  23009141.4284   23009139.7764
 96  3 23  4 28  0.0000000  0  7G17G 6G16G23G20G22G26
 -18595640.42144 -14490099.19344  21523559.4284   21523559.7084
 -25310304.49544 -19722302.20444  20227894.2144   20227893.0734
  -8606142.87244  -6706072.41944  22685995.6944   22685995.0834
 -13172432.06344 -10264227.56344  22605469.3444   22605469.7744
  -8936234.02144  -6963293.10544  22681945.2294   22681945.9254
  -1880612.36044  -1465411.40644  24176964.9714   24176961.6114
  -4258431.61044  -3318257.96444  22997073.0384   22997071.4394
 96  3 23  4 28 30.0000000  0  7G17G 6G16G23G20G22G26
 -18639181.29544 -14524027.14244  21515273.8484   21515273.4434
 -25317153.83244 -19727639.35244  20226590.7814   20226589.4774
  -8519460.82844  -6638527.97544  22702490.6394   22702490.5504
 -13260091.41444 -10332533.53044  22588788.2094   22588788.8434
  -8839050.01644  -6887565.31644  22700438.8724   22700439.3764
  -1944808.38344  -1515434.28044  24164748.5134   24164747.7714
  -4321540.87844  -3367434.00444  22985063.2394   22985062.8164
 96  3 23  4 29  0.0000000  0  7G17G 6G16G23G20G22G26
 -18682485.72844 -14557770.85944  21507033.2594   21507032.8834
 -25323554.23244 -19732626.67944  20225372.6444   20225371.6214
  -8432476.22544  -6570747.75744  22719043.0154   22719044.0164
 -13347430.77044 -10400590.15544  22572168.3174   22572169.5744
  -8741652.86044  -6811671.44144  22718973.2114   22718973.8684
  -2008562.50544  -1565112.82244  24152616.2994   24152616.7044
  -4384316.26644  -3416349.87844  22973117.7194   22973117.0994
 96  3 23  4 29 30.0000000  0  7G 6G16G23G20G22G26G17
 -25329524.40744 -19737278.76544  20224236.6514   20224235.4524
  -8345187.26844  -6502730.38644  22735653.9164   22735654.1544
 -13434439.65944 -10468389.27844  22555610.9594   22555611.4184
  -8644042.35444  -6735611.31244  22737548.1764   22737548.0944
  -2071863.20644  -1614438.03044  24140570.2584   24140569.8184
  -4446728.91644  -3464983.09644  22961241.0224   22961240.4144
 -18725544.97344 -14591323.51444  21498839.2274   21498838.9004
 96  3 23  4 30  0.0000000  0  7G 6G16G23G20G22G26G17
 -25335069.02144 -19741599.24844  20223181.5904   20223180.4614
  -8257581.89344  -6434466.45844  22752324.7194   22752324.4374
 -13521110.84444 -10535925.24944  22539118.1504   22539118.6234
  -8546225.67444  -6659390.53744  22756161.2114   22756161.5254
  -2134705.09844  -1663405.72544  24128611.5744   24128612.9884
  -4508763.78744  -3513321.94744  22949435.7834   22949435.0624
 -18768347.05244 -14624675.77944  21490694.3964   21490694.1354
 96  3 23  4 30 30.0000000  0  7G 6G16G23G20G22G26G17
 -25340215.20544 -19745609.26144  20222202.2364   20222201.0734
  -8169710.13944  -6365994.95944  22769046.5494   22769046.2404
 -13607485.87844 -10603230.45444  22522681.8274   22522682.2874
  -8448235.43144  -6583034.50744  22774808.2094   22774808.1804
  -2197135.20144  -1712052.55044  24116731.9344   24116732.3924
  -4570450.69444  -3561389.65044  22937697.7224   22937696.6164
 -18810929.62944 -14657857.01444  21482591.3604   21482591.5884
 96  3 23  4 31  0.0000000  0  7G 6G16G23G20G22G26G17
 -25344955.17444 -19749302.74644  20221300.4084   20221299.3134
  -8081583.02844  -6297324.50544  22785816.3474   22785816.0054
 -13693591.58944 -10670325.79544  22506297.0124   22506297.2654
  -8350059.37344  -6506533.68144  22793490.4164   22793491.3924
  -2259164.15544  -1760386.76644  24104928.4594   24104930.3684
  -4631786.29844  -3609183.59444  22926025.8774   22926024.6354
 -18853308.81144 -14690879.75344  21474526.4374   21474526.8614
 96  3 23  4 31 30.0000000  0  7G 6G16G23G20G22G26G17
 -25349283.24944 -19752675.27444  20220476.9174   20220475.7254
  -7993198.96044  -6228453.81944  22802635.3954   22802634.5754
 -13779433.45244 -10737215.54744  22489961.9464   22489961.4324
  -8251695.09144  -6429886.19944  22812208.4504   22812208.8554
  -2320793.90444  -1808409.93544  24093199.8434   24093201.0254
  -4692778.17844  -3656709.71744  22914418.8784   22914418.1634
 -18895497.40844 -14723753.97944  21466498.1284   21466498.2644
 96  3 23  4 32  0.0000000  0  7G 6G16G23G20G22G26G17
 -25353186.14244 -19755716.48944  20219733.9694   20219732.7744
  -7904574.55444  -6159395.83544  22819499.4424   22819499.0924
 -13865017.97344 -10803904.77344  22473675.6164   22473675.3284
  -8153163.75944  -6353108.54044  22830958.8554   22830958.5654
  -2382033.57144  -1856129.13944  24081548.4294   24081547.3524
  -4753453.90544  -3703989.49044  22902873.6504   22902871.8354
 -18937514.73344 -14756494.74344  21458502.5664   21458502.5234
 96  3 23  4 32 30.0000000  0  7G 6G16G23G20G22G26G17
 -25356645.29244 -19758411.92944  20219075.7974   20219074.4334
  -7815691.38144  -6090136.22544  22836413.8554   22836413.3914
 -13950312.62744 -10870368.13644  22457444.1874   22457443.9474
  -8054452.21744  -6276190.45544  22849743.1364   22849743.4994
  -2442855.31244  -1903522.70044  24069973.7474   24069973.6154
  -4813810.42244  -3751020.52744  22891387.0454   22891385.5124
 -18979360.07544 -14789101.49844  21450539.4794   21450539.4954
 96  3 23  4 33  0.0000000  0  7G 6G16G23G20G22G26G17
 -25359675.40744 -19760773.06044  20218499.1214   20218497.8704
  -7726552.66544  -6020677.47344  22853376.6434   22853376.6184
 -14035310.57144 -10936600.28144  22441269.4434   22441269.5814
  -7955593.67844  -6199157.83944  22868555.1294   22868555.1904
  -2503247.41044  -1950581.49344  24058480.7224   24058481.9794
  -4873849.59944  -3797804.28844  22879962.0194   22879959.7604
 -19021037.33044 -14821577.27744  21442608.6654   21442608.6834
 96  3 23  4 33 30.0000000  0  7G 6G16G23G20G22G26G17
 -25362254.57044 -19762782.79944  20218008.3084   20218007.1424
  -7637150.07844  -5951013.13144  22870389.1294   22870390.4184
 -14119970.43644 -11002568.99044  22425159.1524   22425158.8024
  -7856583.90144  -6122007.36044  22887395.9404   22887396.3624
  -2563186.68144  -1997287.41944  24047074.8644   24047075.3364
  -4933553.22044  -3844326.56744  22868601.3344   22868601.7184
 -19062514.25744 -14853896.95644  21434715.9254   21434715.7534
 96  3 23  4 34  0.0000000  0  7G 6G16G23G20G22G26G17
 -25364384.40744 -19764442.41744  20217603.0314   20217601.9354
  -7547489.92744  -5881148.08044  22887450.8444   22887451.0764
 -14204281.40044 -11068265.82744  22409114.9694   22409115.9324
  -7757409.40744  -6044728.54544  22906268.2324   22906268.7374
  -2622660.46344  -2043630.67844  24035757.4544   24035754.5544
  -4992908.15144  -3890577.15244  22857306.1684   22857304.0634
 -19103771.21844 -14886045.22644  21426865.3924   21426864.6814
 96  3 23  4 34 30.0000000  0  7G 6G16G23G20G22G26G17
 -25366087.49944 -19765769.50044  20217278.8234   20217277.6684
  -7457581.36444  -5811089.46244  22904559.7894   22904558.7394
 -14288253.63144 -11133698.71044  22393134.8254   22393135.4174
  -7658069.53444  -5967320.85244  22925172.1004   22925172.2484
  -2681679.20644  -2089618.86044  24024526.1614   24024525.8214
  -5051899.36844  -3936544.32944  22846080.9434   22846080.0174
 -19144801.47044 -14918016.83744  21419057.6194   21419057.0734
 96  3 23  4 35  0.0000000  0  7G 6G16G23G20G22G26G17
 -25367364.91544 -19766764.89444  20217035.9344   20217034.5964
  -7367440.63744  -5740849.92444  22921713.3554   22921712.7934
 -14371912.75244 -11198887.61944  22377215.5434   22377216.6574
  -7558564.84644  -5889784.74844  22944106.8434   22944106.3544
  -2740258.75844  -2135264.54644  24013378.7594   24013378.0044
  -5110515.02744  -3982218.85744  22834926.7514   22834925.1264
 -19185614.09744 -14949818.87244  21411291.0004   21411291.2374
 96  3 23  4 35 30.0000000  0  7G 6G16G23G20G22G26G17
 -25368208.00544 -19767421.85444  20216875.4774   20216874.4984
  -7277070.43444  -5670431.59444  22938909.6594   22938909.2924
 -14455271.24644 -11263842.27544  22361354.0524   22361354.4374
  -7458875.34944  -5812104.61844  22963077.4994   22963077.7564
  -2798414.99044  -2180581.09144  24002311.2014   24002310.7514
  -5168759.46344  -4027604.11544  22823843.0164   22823841.5284
 -19226223.00944 -14981462.17144  21403563.7104   21403563.2964
 96  3 23  4 36  0.0000000  0  7G 6G16G23G20G22G26G17
 -25368624.43544 -19767746.34644  20216796.3434   20216795.0394
  -7186465.61044  -5599830.42844  22956151.2604   22956149.9844
 -14538341.77344 -11328572.54544  22345546.6214   22345546.0004
  -7359003.68644  -5734282.55344  22982083.0154   22982082.4004
  -2856143.80344  -2225564.60344  23991326.4634   23991324.6894
  -5226620.80344  -4072690.86144  22812832.4284   22812831.2504
 -19266639.91844 -15012955.85844  21395872.3744   21395872.0114
 96  3 23  4 36 30.0000000  0  7G 6G16G23G20G22G26G17
 -25368591.60344 -19767720.76744  20216802.3694   20216801.1014
  -7095616.85944  -5529039.18344  22973439.7324   22973438.5114
 -14621130.71944 -11393083.40744  22329792.4334   22329792.2564
  -7258955.67244  -5656323.06544  23001120.6804   23001121.1664
  -2913437.86744  -2270209.33944  23980423.6434   23980423.6984
  -5284086.86244  -4117469.58944  22801896.8834   22801895.9934
 -19306869.99744 -15044303.96144  21388216.3414   21388216.2604
 96  3 23  4 37  0.0000000  0  7G 6G16G23G20G22G26G17
 -25368109.68544 -19767345.24944  20216894.1154   20216893.1054
  -7004546.87444  -5458075.55444  22990769.3244   22990769.8974
 -14703656.50644 -11457389.20644  22314087.1804   22314087.2264
  -7158743.60544  -5578235.74644  23020190.5224   23020190.2314
  -2970299.40444  -2314517.03144  23969603.0324   23969605.2754
  -5341183.76844  -4161960.67644  22791031.7514   22791030.1334
 -19346942.31244 -15075529.13544  21380591.0154   21380590.7804
 96  3 23  4 37 30.0000000  0  7G 6G16G23G20G22G26G17
 -25367190.44444 -19766628.95744  20217069.0784   20217067.8254
  -6913254.26444  -5386938.45944  23008142.2064   23008141.6434
 -14785910.75944 -11521483.42044  22298435.3214   22298435.4504
  -7058382.84044  -5500032.56044  23039288.1694   23039288.6894
  -3026715.50344  -2358477.64444  23958867.2204   23958866.6814
  -5397916.76844  -4206168.19344  22780236.1374   22780234.8854
 -19386844.12144 -15106621.44544  21372997.9364   21372998.0484
 96  3 23  4 38  0.0000000  0  7G 6G16G23G20G22G26G17
 -25365847.92244 -19765582.84044  20217324.6034   20217323.2524
  -6821744.34844  -5315632.03144  23025555.7414   23025555.8434
 -14867886.45844 -11585360.57744  22282835.7014   22282835.9204
  -6957901.94544  -5421735.77244  23058408.9004   23058408.9604
  -3082682.25144  -2402088.09344  23948217.0264   23948217.6624
  -5454283.41144  -4250090.23644  22769509.4994   22769508.7124
 -19426567.44744 -15137574.67344  21365438.8974   21365438.8824
 96  3 23  4 38 30.0000000  0  7G 6G16G23G20G22G26G17
 -25364066.96944 -19764195.08844  20217663.3424   20217662.4524
  -6730014.50344  -5244154.24544  23043011.2554   23043011.1984
 -14949566.12744 -11649007.06444  22267292.9434   22267292.6434
  -6857287.22244  -5343334.70544  23077556.4294   23077556.5964
  -3138194.58044  -2445344.45844  23937652.8724   23937651.2314
  -5510284.07544  -4293727.10544  22758853.0044   22758851.8934
 -19466098.67844 -15168378.21744  21357916.3464   21357916.1424
 96  3 23  4 39  0.0000000  0  7G 6G16G23G20G22G26G17
 -25361856.88144 -19762472.94744  20218084.1904   20218082.9274
  -6638054.34444  -5172496.98144  23060510.9594   23060509.6264
 -15030932.02844 -11712409.04644  22251808.6054   22251808.9064
  -6756541.72744  -5264831.71644  23096727.6854   23096727.8584
  -3193248.81344  -2488243.86244  23927176.8944   23927177.3564
  -5565917.72744  -4337077.98944  22748265.7824   22748265.2474
 -19505416.30244 -15199015.31444  21350434.5784   21350434.3744
 96  3 23  4 39 30.0000000  0  7G 6G16G23G20G22G26G17
 -25359209.93744 -19760410.39644  20218587.6884   20218586.5624
  -6545852.31844  -5100651.23144  23078056.3214   23078055.1344
 -15111982.66844 -11775565.36844  22236385.3694   22236385.5674
  -6655680.36344  -5186238.46044  23115920.7134   23115920.3124
  -3247858.53444  -2530796.89944  23916785.3304   23916785.7834
  -5621177.01444  -4380137.15344  22737750.7374   22737750.1494
 -19544509.21944 -15229477.31444  21342995.5184   21342995.3294
 96  3 23  4 40  0.0000000  0  7G 6G16G23G20G22G26G17
 -25356105.38644 -19757991.26644  20219178.6924   20219177.3574
  -6453418.45544  -5028624.83944  23095645.6274   23095644.6314
 -15192717.25944 -11838475.42244  22221021.8894   22221022.6634
  -6554703.30144  -5107555.03944  23135136.2784   23135136.2944
  -3302030.50044  -2573008.78944  23906476.5774   23906478.7884
  -5676065.01744  -4422907.01644  22727306.0404   22727305.1874
 -19583382.74444 -15259768.35544  21335598.0764   21335597.7664
 96  3 23  4 40 30.0000000  0  7G 6G16G23G20G22G26G17
 -25352534.35744 -19755208.65244  20219858.1634   20219857.1734
  -6360758.74144  -4956422.47944  23113278.2764   23113277.0424
 -15273128.24744 -11901133.31344  22205720.1914   22205720.9804
  -6453604.15044  -5028776.48944  23154374.2184   23154374.6604
  -3355766.54444  -2614881.01744  23896251.2304   23896249.4324
  -5730580.32144  -4465386.45644  22716931.8324   22716931.0934
 -19622039.99644 -15289890.87744  21328242.0174   21328241.4144
 96  3 23  4 41  0.0000000  0  7G 6G16G23G20G22G26G17
 -25348484.25544 -19752052.73144  20220629.0834   20220628.0184
  -6267863.72044  -4884036.76644  23130955.5844   23130954.2994
 -15353201.19444 -11963527.80144  22190483.0844   22190482.8664
  -6352392.62044  -4949910.36644  23173633.7584   23173635.3784
  -3409054.81544  -2656404.34544  23886110.5444   23886111.0714
  -5784698.94044  -4507556.79844  22706633.9864   22706631.8744
 -19660475.06144 -15319840.26244  21320928.0624   21320927.9294
 96  3 23  4 41 30.0000000  0  7G 6G16G23G20G22G26G17
 -25343956.15744 -19748524.34844  20221490.4224   20221489.1964
  -6174768.92544  -4811495.35944  23148671.5964   23148670.5494
 -15432931.22444 -12025655.08944  22175311.3424   22175310.8954
  -6251070.56944  -4870958.12344  23192914.7244   23192914.9074
  -3461903.37344  -2697585.02944  23876054.2854   23876052.0224
  -5838421.74644  -4549418.71344  22696409.9824   22696408.6024
 -19698714.65844 -15349637.33744  21313651.0634   21313650.9164
 96  3 23  4 42  0.0000000  0  7G 6G16G23G20G22G26G17
 -25338969.34844 -19744638.52844  20222439.2514   20222438.3674
  -6081492.96844  -4738812.80344  23166421.0574   23166420.1114
 -15512301.14544 -12087501.77544  22160207.5534   22160207.0144
  -6149627.03544  -4791911.22344  23212219.3854   23212219.6364
  -3514300.49444  -2738413.91944  23866084.3454   23866082.6604
  -5891740.06044  -4590965.44144  22686264.3044   22686262.6764
 -19736765.18744 -15379287.08544  21306410.2554   21306410.1144
 96  3 23  4 42 30.0000000  0  7G 6G16G23G20G22G26G17
 -25333516.36144 -19740389.45144  20223477.2314   20223476.0504
  -5988015.58044  -4665973.29144  23184209.0704   23184208.5394
 -15591296.09044 -12149056.26644  22145175.2844   22145174.8354
  -6048046.44444  -4712757.52244  23231549.7354   23231550.0204
  -3566219.90244  -2778870.56544  23856204.3994   23856203.5624
  -5944628.43644  -4632177.14344  22676199.8554   22676198.0614
 -19774611.54744 -15408777.74244  21299208.2624   21299208.1244
 96  3 23  4 43  0.0000000  0  7G 6G16G23G20G22G26G17
 -25327598.73244 -19735778.31344  20224603.2994   20224602.2954
  -5894343.54244  -4592982.08244  23202034.0304   23202033.5854
 -15669933.54344 -12210332.18144  22130210.9454   22130210.4464
  -5946322.55644  -4633492.16044  23250907.0754   23250907.0674
  -3617663.39044  -2818956.41944  23846414.6874   23846413.0844
  -5997095.00244  -4673060.16444  22666215.8374   22666215.1644
 -19812256.48644 -15438111.45144  21292044.8554   21292044.8754
 96  3 23  4 43 30.0000000  0  7G 6G16G23G20G22G26G17
 -25321228.19644 -19730814.26244  20225815.4184   20225814.3634
  -5800481.82644  -4519843.09144  23219894.9894   23219893.6244
 -15748225.21444 -12271338.66444  22115312.5434   22115311.9324
  -5844446.34244  -4554108.09244  23270292.8794   23270293.5374
  -3668635.18444  -2858674.66944  23836714.3594   23836712.8924
  -6049155.75544  -4713626.97544  22656308.9254   22656307.7244
 -19849702.85744 -15467290.43244  21284919.0114   21284918.7454
 96  3 23  4 44  0.0000000  0  7G 6G16G23G20G22G26G17
 -25314393.80044 -19725488.76244  20227116.0594   20227114.9104
  -5706402.45944  -4446534.49044  23237797.9754   23237798.3034
 -15826173.74444 -12332077.76444  22100479.6814   22100479.5444
  -5742419.68244  -4474606.80644  23289708.3034   23289708.6594
  -3719120.63244  -2898014.00344  23827107.7454   23827105.5854
  -6100804.14444  -4753872.46344  22646480.4574   22646480.0514
 -19886931.22144 -15496299.53844  21277834.5984   21277834.4754
 96  3 23  4 44 30.0000000  0  8G 6G16G23G21G20G22G26G17
 -25307092.98344 -19719799.81944  20228505.1634   20228504.0744
  -5612106.56344  -4373057.17544  23255742.2004   23255741.8504
 -15903801.62844 -12392567.00544  22085707.1714   22085707.4674
         0.08154                  25610138.5434
  -5640268.56744  -4395008.55644  23309147.3544   23309147.8114
  -3769138.94244  -2936989.33244  23817590.0114   23817587.6574
  -6152055.05944  -4793808.22244  22636727.8904   22636726.7404
 -19923950.51944 -15525145.73744  21270789.8974   21270789.5834
 96  3 23  4 45  0.0000000  0  8G 6G16G23G21G20G22G26G17
 -25299310.85744 -19713735.82944  20229986.2614   20229985.1984
  -5517574.44244  -4299395.78644  23273731.6264   23273730.8674
 -15981078.98244 -12452783.10444  22071001.7514   22071001.6824
   -100217.42544                  25591066.1484
  -5537971.21244  -4315296.31944  23328613.5154   23328612.8374
  -3818676.03244  -2975589.67144  23808162.9994   23808163.5444
  -6202875.67144  -4833408.67844  22627057.4954   22627056.5114
 -19960745.93044 -15553817.47744  21263788.3704   21263788.0364
 96  3 23  4 45 30.0000000  0  7G 6G16G23G20G22G26G17
 -25291116.78244 -19707350.84244  20231545.6274   20231544.3204
  -5422867.57444  -4225598.21444  23291753.9384   23291753.1134
 -16058055.59044 -12512764.86644  22056353.7514   22056354.3194
  -5435609.27144  -4235533.78544  23348092.2064   23348092.1374
  -3867781.45244  -3013853.61944  23798819.1624   23798818.0134
  -6253317.27644  -4872713.81044  22617458.4944   22617457.8294
 -19997384.78944 -15582367.23044  21256815.9154   21256815.7724
 96  3 23  4 46  0.0000000  0  7G 6G16G23G20G22G26G17
 -25282494.20444 -19700631.95444  20233186.1504   20233185.2834
  -5327973.36944  -4151654.68144  23309810.9294   23309810.5054
 -16134718.14344 -12572501.90544  22041765.2484   22041765.6234
  -5333191.28744  -4155727.57444  23367581.9794   23367581.6794
  -3916445.63944  -3051773.77244  23789558.0414   23789557.5044
  -6303364.57444  -4911711.68744  22607934.7494   22607933.3604
 -20033860.98344 -15610790.23144  21249874.7694   21249874.4434
 96  3 23  4 46 30.0000000  0  7G 6G16G23G20G22G26G17
 -25273419.33444 -19693560.63244  20234913.2534   20234912.0944
  -5232869.03344  -4077547.39344  23327908.6834   23327910.1914
 -16211036.03744 -12631970.38344  22027242.1294   22027241.8184
  -5230688.74444  -4075855.45344  23387087.7904   23387087.4294
  -3964640.61944  -3089328.29344  23780387.4354   23780388.5214
  -6352984.65944  -4950376.69444  22598492.5104   22598490.2594
 -20070150.42444 -15639067.71044  21242969.2884   21242968.6414
 96  3 23  4 47  0.0000000  0  7G 6G16G23G20G22G26G17
 -25263908.50144 -19686149.59944  20236723.0054   20236722.0224
  -5137566.87444  -4003286.00944  23346042.8144   23346044.3464
 -16287013.45544 -12691173.55544  22012784.4184   22012783.9944
  -5128111.08644  -3995924.82444  23406606.8424   23406606.8034
  -4012358.52044  -3126511.07344  23771305.7464   23771304.7074
  -6402182.87144  -4988712.96244  22589130.7074   22589128.9374
 -20106264.69944 -15667208.68844  21236096.6344   21236096.4984
 96  3 23  4 47 30.0000000  0  7G 6G16G23G20G22G26G17
 -25253930.11544 -19678374.23844  20238621.8094   20238620.7134
  -5042064.91844  -3928868.89844  23364216.9254   23364217.1154
 -16362638.72044 -12750102.31944  21998393.0954   21998392.9254
  -5025453.30844  -3915931.77444  23426142.8564   23426143.9114
  -4059587.18744  -3163312.62444  23762318.1914   23762317.3194
  -6450951.27744  -5026714.31144  22579849.9064   22579849.1414
 -20142176.40244 -15695191.82244  21229262.8684   21229262.7274
 96  3 23  4 48  0.0000000  0  8G 6G16G23G21G20G22G26G17
 -25243478.93744 -19670230.46744  20240611.0084   20240609.7404
  -4946378.81844  -3854308.28744  23382425.2424   23382425.9314
 -16437920.41244 -12808763.36444  21984067.6624   21984067.4314
        -0.50054        -0.13454  25476822.5514   25476822.1194
  -4922718.57044  -3835878.73344  23445692.0654   23445692.6134
  -4106343.94944  -3199746.48244  23753420.3084   23753421.7054
  -6499283.48344  -5064375.76744  22570652.4504   22570651.1494
 -20177884.57544 -15723016.36344  21222467.9034   21222467.5264
 96  3 23  4 48 30.0000000  0  8G 6G16G23G21G20G22G26G17
 -25232563.02344 -19661724.56644  20242688.0844   20242686.9364
  -4850542.78144  -3779630.86544  23400661.8524   23400661.6044
 -16512865.59844 -12867162.20344  21969805.8134   21969805.9124
    -99897.19544    -77841.66144  25457811.3904   25457811.0804
  -4819907.36944  -3755766.13044  23465256.6114   23465257.0364
  -4152636.57444  -3235818.65244  23744611.4434   23744612.9794
  -6547179.61044  -5101697.41244  22561537.8694   22561536.8964
 -20213396.44544 -15750687.93844  21215710.2154   21215709.8104
 96  3 23  4 49  0.0000000  0  8G 6G16G23G21G20G22G26G17
 -25221162.73144 -19652841.23144  20244857.4714   20244856.2384
  -4754561.39344  -3704840.18544  23418927.1874   23418927.5114
 -16587473.19844 -12925297.97244  21955608.1364   21955608.3244
   -199713.29544   -155620.37644  25438816.4694
  -4717020.46444  -3675594.53144  23484834.7824   23484834.1724
  -4198465.84644  -3271529.75644  23735889.7264   23735889.6454
  -6594632.98344  -5138674.03944  22552508.3604   22552507.1964
 -20248705.41544 -15778201.40844  21208991.0154   21208990.6504
 96  3 23  4 49 30.0000000  0  8G 6G16G23G21G20G22G26G17
 -25209265.39544 -19643570.58344  20247121.3574   20247120.3664
  -4658441.79244  -3629941.79444  23437218.7784   23437218.0114
 -16661739.87244 -12983168.09244  21941476.0804   21941476.3184
   -299430.17244   -233321.83944  25419840.8424
  -4614058.64044  -3595364.53244  23504428.6654   23504430.1724
  -4243846.85444  -3306891.58244  23727255.0094   23727255.3144
  -6641649.27144  -5175310.10044  22543561.6304   22543560.2184
 -20283811.09844 -15805556.47844  21202310.5444   21202310.4884
 96  3 23  4 50  0.0000000  0  8G 6G16G23G21G20G22G26G17
 -25196884.43944 -19633923.09344  20249477.2554   20249476.3014
  -4562175.10844  -3554928.79844  23455537.8424   23455536.7244
 -16735664.70344 -13040771.84244  21927408.6574   21927409.0854
   -399059.59244   -310955.08944  25400880.6904
  -4511027.34944  -3515080.44244  23524034.3924   23524034.8044
  -4288768.63344  -3341895.53744  23718705.2844   23718706.2354
  -6688229.59744  -5211606.44944  22534697.7754   22534696.3044
 -20318729.13844 -15832765.33344  21195665.7594   21195666.0294
 96  3 23  4 50 30.0000000  0  8G 6G16G23G21G20G22G26G17
 -25184004.58244 -19623886.84744  20251928.3254   20251927.1254
  -4465738.11844  -3479783.09144  23473887.6524   23473888.6264
 -16809223.37344 -13098090.27344  21913411.1994   21913411.3204
   -498584.90644   -388507.30544  25381940.0754
  -4407908.75144  -3434728.29944  23543657.3764   23543657.1164
  -4333209.68344  -3376524.91544  23710250.2994   23710249.1404
  -6734361.98544  -5247553.74044  22525918.5634   22525917.7054
 -20353446.77944 -15859818.03044  21189059.1914   21189059.1054
 96  3 23  4 51  0.0000000  0  8G 6G16G23G21G20G22G26G17
 -25170622.95744 -19613459.61144  20254474.8764   20254473.5984
  -4369105.59844  -3404485.03344  23492276.9314   23492277.7634
 -16882406.86844 -13155116.36244  21899485.0204   21899484.9404
   -598012.09844                  25363017.2384
  -4304695.94144  -3354302.75444  23563298.4034   23563298.1534
  -4377154.52644  -3410767.65244  23701887.6894   23701886.3944
  -6780037.44844  -5283144.99344  22517226.5154   22517225.5114
 -20387958.56044 -15886710.31944  21182492.1304   21182491.6404
 96  3 23  4 51 30.0000000  0  7G 6G16G23G20G22G26G17
 -25156777.65244 -19602671.06444  20257109.2754   20257108.0964
  -4272288.98144  -3329043.52244  23510700.1634   23510700.0784
 -16955219.55244 -13211853.49744  21885629.2604   21885628.9314
  -4201401.28244  -3273813.40844  23582954.4954   23582955.1984
  -4420605.31644  -3444625.42544  23693619.2344   23693618.4764
  -6825264.92244  -5318387.16344  22508620.2394   22508618.7554
 -20422283.93944 -15913457.35244  21175960.1114   21175959.9424
